[[{"header":{"parameterUnit":"m.s-1","parameterCategory":1,"la1":30.6,"la2":28.766,"lo1":-90.7593,"lo2":-88.6598,"dx":0.0162,"dy":0.0183,"nx":116,"ny":114,"refTime":"2022-11-11T18:00:00:Z","depth":0,"parameterNumber":2,"parameterNumberName":"U-component_of_WINDS"},"data":[0.0,0.0,0.0,0.0,0.0,0.0,0.0,0.0,0.0,0.0,0.0,0.0,0.0,0.0,0.0,0.0,0.0,0.0,0.0,0.0,0.0,0.0,0.0,0.0,0.0,0.0,0.0,0.0,0.0,0.0,0.0,0.0,0.0,0.0,0.0,0.0,0.0,0.0,0.0,0.0,0.0,0.0,0.0,0.0,0.0,0.0,0.0,0.0,0.0,0.0,0.0,0.0,0.0,0.0,0.0,0.0,0.0,0.0,0.0,0.0,0.0,0.0,0.0,0.0,0.0,0.0,0.0,0.0,0.0,0.0,0.0,0.0,0.0,0.0,0.0,0.0,0.0,0.0,0.0,0.0,0.0,0.0,0.0,0.0,0.0,0.0,0.0,0.0,0.0,0.0,0.0,0.0,0.0,0.0,0.0,0.0,0.0,0.0,0.0,0.0,0.0,0.0,0.0,0.0,0.0,0.0,0.0,0.0,0.0,0.0,0.0,0.0,0.0,0.0,0.0,0.0,0.0,0.0,0.0,0.0,0.0,0.0,0.0,0.0,0.0,0.0,0.0,0.0,0.0,0.0,0.0,0.0,0.0,0.0,0.0,0.0,0.0,0.0,0.0,0.0,0.0,0.0,0.0,0.0,0.0,0.0,0.0,0.0,0.0,0.0,0.0,0.0,0.0,0.0,0.0,0.0,0.0,0.0,0.0,0.0,0.0,0.0,0.0,0.0,0.0,0.0,0.0,0.0,0.0,0.0,0.0,0.0,0.0,0.0,0.0,0.0,0.0,0.0,0.0,0.0,0.0,0.0,0.0,0.0,0.0,0.0,0.0,0.0,0.0,0.0,0.0,0.0,0.0,0.0,0.0,0.0,0.0,0.0,0.0,0.0,0.0,0.0,0.0,0.0,0.0,0.0,0.0,0.0,0.0,0.0,0.0,0.0,0.0,0.0,0.0,0.0,0.0,0.0,0.0,0.0,0.0,0.0,0.0,0.0,0.0,0.0,0.0,0.0,0.0,0.0,0.0,0.0,0.0,0.0,0.0,0.0,0.0,0.0,0.0,0.0,0.0,0.0,0.0,0.0,0.0,0.0,0.0,0.0,0.0,0.0,0.0,0.0,0.0,0.0,0.0,0.0,0.0,0.0,0.0,0.0,0.0,0.0,0.0,0.0,0.0,0.0,0.0,0.0,0.0,0.0,0.0,0.0,0.0,0.0,0.0,0.0,0.0,0.0,0.0,0.0,0.0,0.0,0.0,0.0,0.0,0.0,0.0,0.0,0.0,0.0,0.0,0.0,0.0,0.0,0.0,0.0,0.0,0.0,0.0,0.0,0.0,0.0,0.0,0.0,0.0,0.0,0.0,0.0,0.0,0.0,0.0,0.0,0.0,0.0,0.0,0.0,0.0,0.0,0.0,0.0,0.0,0.0,0.0,0.0,0.0,0.0,0.0,0.0,0.0,0.0,0.0,0.0,0.0,0.0,0.0,0.0,0.0,0.0,0.0,0.0,0.0,0.0,0.0,0.0,0.0,0.0,0.0,0.0,0.0,0.0,0.0,0.0,0.0,0.0,0.0,0.0,0.0,0.0,0.0,0.0,0.0,0.0,0.0,0.0,0.0,0.0,0.0,0.0,0.0,0.0,0.0,0.0,0.0,0.0,0.0,0.0,0.0,0.0,0.0,0.0,0.0,0.0,0.0,0.0,0.0,0.0,0.0,0.0,0.0,0.0,0.0,0.0,0.0,0.0,0.0,0.0,0.0,0.0,0.0,0.0,0.0,0.0,0.0,0.0,0.0,0.0,0.0,0.0,0.0,0.0,0.0,0.0,0.0,0.0,0.0,0.0,0.0,0.0,0.0,0.0,0.0,0.0,0.0,0.0,0.0,0.0,0.0,0.0,0.0,0.0,0.0,0.0,0.0,0.0,0.0,0.0,0.0,0.0,0.0,0.0,0.0,0.0,0.0,0.0,0.0,0.0,0.0,0.0,0.0,0.0,0.0,0.0,0.0,0.0,0.0,0.0,0.0,0.0,0.0,0.0,0.0,0.0,0.0,0.0,0.0,0.0,0.0,0.0,0.0,0.0,0.0,0.0,0.0,0.0,0.0,0.0,0.0,0.0,0.0,0.0,0.0,0.0,0.0,0.0,0.0,0.0,0.0,0.0,0.0,0.0,0.0,0.0,0.0,0.0,0.0,0.0,0.0,0.0,0.0,0.0,0.0,0.0,0.0,0.0,0.0,0.0,0.0,0.0,0.0,0.0,0.0,0.0,0.0,0.0,0.0,0.0,0.0,0.0,0.0,0.0,0.0,0.0,0.0,0.0,0.0,0.0,0.0,0.0,0.0,0.0,0.0,0.0,0.0,0.0,0.0,0.0,0.0,0.0,0.0,0.0,0.0,0.0,0.0,0.0,0.0,0.0,0.0,0.0,0.0,0.0,0.0,0.0,0.0,0.0,0.0,0.0,0.0,0.0,0.0,0.0,0.0,0.0,0.0,0.0,0.0,0.0,0.0,0.0,0.0,0.0,0.0,0.0,0.0,0.0,0.0,0.0,0.0,0.0,0.0,0.0,0.0,0.0,0.0,0.0,0.0,0.0,0.0,0.0,0.0,0.0,0.0,0.0,0.0,0.0,0.0,0.0,0.0,0.0,0.0,0.0,0.0,0.0,0.0,0.0,0.0,0.0,0.0,0.0,0.0,0.0,0.0,0.0,0.0,0.0,0.0,0.0,0.0,0.0,0.0,0.0,0.0,0.0,0.0,0.0,0.0,0.0,0.0,0.0,0.0,0.0,0.0,0.0,0.0,0.0,0.0,0.0,0.0,0.0,0.0,0.0,0.0,0.0,0.0,0.0,0.0,0.0,0.0,0.0,0.0,0.0,0.0,0.0,0.0,0.0,0.0,0.0,0.0,0.0,0.0,0.0,0.0,0.0,0.0,0.0,0.0,0.0,0.0,0.0,0.0,0.0,0.0,0.0,0.0,0.0,0.0,0.0,0.0,0.0,0.0,0.0,0.0,0.0,0.0,0.0,0.0,0.0,0.0,0.0,0.0,0.0,0.0,0.0,0.0,0.0,0.0,0.0,0.0,0.0,0.0,0.0,0.0,0.0,0.0,0.0,0.0,0.0,0.0,0.0,0.0,0.0,0.0,0.0,0.0,0.0,0.0,0.0,0.0,0.0,0.0,0.0,0.0,0.0,0.0,0.0,0.0,0.0,0.0,0.0,0.0,0.0,0.0,0.0,0.0,0.0,0.0,0.0,0.0,0.0,0.0,0.0,0.0,0.0,0.0,0.0,0.0,0.0,0.0,0.0,0.0,0.0,0.0,0.0,0.0,0.0,0.0,0.0,0.0,0.0,0.0,0.0,0.0,0.0,0.0,0.0,0.0,0.0,0.0,0.0,0.0,0.0,0.0,0.0,0.0,0.0,0.0,0.0,0.0,0.0,0.0,0.0,0.0,0.0,0.0,0.0,0.0,0.0,0.0,0.0,0.0,0.0,0.0,0.0,0.0,0.0,0.0,0.0,0.0,0.0,0.0,0.0,0.0,0.0,0.0,0.0,0.0,0.0,0.0,0.0,0.0,0.0,0.0,0.0,0.0,0.0,0.0,0.0,0.0,0.0,0.0,0.0,0.0,0.0,0.0,0.0,0.0,0.0,0.0,0.0,0.0,0.0,0.0,0.0,0.0,0.0,0.0,0.0,0.0,0.0,0.0,0.0,0.0,0.0,0.0,0.0,0.0,0.0,0.0,0.0,0.0,0.0,0.0,0.0,0.0,0.0,0.0,0.0,0.0,0.0,0.0,0.0,0.0,0.0,0.0,0.0,0.0,0.0,0.0,0.0,0.0,0.0,0.0,0.0,0.0,0.0,0.0,0.0,0.0,0.0,0.0,0.0,0.0,0.0,0.0,0.0,0.0,0.0,0.0,0.0,0.0,0.0,0.0,0.0,0.0,0.0,0.0,0.0,0.0,0.0,0.0,0.0,0.0,0.0,0.0,0.0,0.0,0.0,0.0,0.0,0.0,0.0,0.0,0.0,0.0,0.0,0.0,0.0,0.0,0.0,0.0,0.0,0.0,0.0,0.0,0.0,0.0,0.0,0.0,0.0,0.0,0.0,0.0,0.0,0.0,0.0,0.0,0.0,0.0,0.0,0.0,0.0,0.0,0.0,0.0,0.0,0.0,0.0,0.0,0.0,0.0,0.0,0.0,0.0,0.0,0.0,0.0,0.0,0.0,0.0,0.0,0.0,0.0,0.0,0.0,0.0,0.0,0.0,0.0,0.0,0.0,0.0,0.0,0.0,0.0,0.0,0.0,0.0,0.0,0.0,0.0,0.0,0.0,0.0,0.0,0.0,0.0,0.0,0.0,0.0,0.0,0.0,0.0,0.0,0.0,0.0,0.0,0.0,0.0,0.0,0.0,0.0,0.0,0.0,0.0,0.0,0.0,0.0,0.0,0.0,0.0,0.0,0.0,0.0,0.0,0.0,0.0,0.0,0.0,0.0,0.0,0.0,0.0,0.0,0.0,0.0,0.0,0.0,0.0,0.0,0.0,0.0,0.0,0.0,0.0,0.0,0.0,0.0,0.0,0.0,0.0,0.0,0.0,0.0,0.0,0.0,0.0,0.0,0.0,0.0,0.0,0.0,0.0,0.0,0.0,0.0,0.0,0.0,0.0,0.0,0.0,0.0,0.0,0.0,0.0,0.0,0.0,0.0,0.0,0.0,0.0,0.0,0.0,0.0,0.0,0.0,0.0,0.0,0.0,0.0,0.0,0.0,0.0,0.0,0.0,0.0,0.0,0.0,0.0,0.0,0.0,0.0,0.0,0.0,0.0,0.0,0.0,0.0,0.0,0.0,0.0,0.0,0.0,0.0,0.0,0.0,0.0,0.0,0.0,0.0,0.0,0.0,0.0,0.0,0.0,0.0,0.0,0.0,0.0,0.0,0.0,0.0,0.0,0.0,0.0,0.0,0.0,0.0,0.0,0.0,0.0,0.0,0.0,0.0,0.0,0.0,0.0,0.0,0.0,0.0,0.0,0.0,0.0,0.0,0.0,0.0,0.0,0.0,0.0,0.0,0.0,0.0,0.0,0.0,0.0,0.0,0.0,0.0,0.0,0.0,0.0,0.0,0.0,0.0,0.0,0.0,0.0,0.0,0.0,0.0,0.0,0.0,0.0,0.0,0.0,0.0,0.0,0.0,0.0,0.0,0.0,0.0,0.0,0.0,0.0,0.0,0.0,0.0,0.0,0.0,0.0,0.0,0.0,0.0,0.0,0.0,0.0,0.0,0.0,0.0,0.0,0.0,0.0,0.0,0.0,0.0,0.0,0.0,0.0,0.0,0.0,0.0,0.0,0.0,0.0,0.0,0.0,0.0,0.0,0.0,0.0,0.0,0.0,0.0,0.0,0.0,0.0,0.0,0.0,0.0,0.0,0.0,0.0,0.0,0.0,0.0,0.0,0.0,0.0,0.0,0.0,0.0,0.0,0.0,0.0,0.0,0.0,0.0,0.0,0.0,0.0,0.0,0.0,0.0,0.0,0.0,0.0,0.0,0.0,0.0,0.0,0.0,0.0,0.0,0.0,0.0,0.0,0.0,0.0,0.0,0.0,0.0,0.0,0.0,0.0,0.0,0.0,0.0,0.0,0.0,0.0,0.0,0.0,0.0,0.0,0.0,0.0,0.0,0.0,0.0,0.0,0.0,0.0,0.0,0.0,0.0,0.0,0.0,0.0,0.0,0.0,0.0,0.0,0.0,0.0,0.0,0.0,0.0,0.0,0.0,0.0,0.0,0.0,0.0,0.0,0.0,0.0,0.0,0.0,0.0,0.0,0.0,0.0,0.0,0.0,0.0,0.0,0.0,0.0,0.0,0.0,0.0,0.0,0.0,0.0,0.0,0.0,0.0,0.0,0.0,0.0,0.0,0.0,0.0,0.0,0.0,0.0,0.0,0.0,0.0,0.0,0.0,0.0,0.0,0.0,0.0,0.0,0.0,0.0,0.0,0.0,0.0,0.0,0.0,0.0,0.0,0.0,0.0,0.0,0.0,0.0,0.0,0.0,0.0,0.0,0.0,0.0,0.0,0.0,0.0,0.0,0.0,6.7705,0.0,0.0,0.0,0.0,0.0,0.0,0.0,0.0,0.0,0.0,0.0,0.0,0.0,0.0,0.0,0.0,0.0,0.0,0.0,0.0,0.0,0.0,0.0,0.0,4.4008,4.4624,4.5432,4.5893,0.0,0.0,0.0,0.0,0.0,0.0,0.0,4.674,4.674,4.7778,4.9894,5.1548,5.5626,6.1781,6.0396,5.6896,5.1741,0.0,0.0,0.0,0.0,0.0,0.0,0.0,0.0,0.0,0.0,0.0,0.0,0.0,0.0,0.0,0.0,0.0,0.0,0.0,0.0,0.0,0.0,0.0,0.0,0.0,0.0,0.0,0.0,0.0,0.0,0.0,0.0,0.0,0.0,0.0,0.0,0.0,0.0,0.0,0.0,0.0,0.0,0.0,0.0,0.0,0.0,0.0,0.0,0.0,0.0,0.0,0.0,0.0,0.0,0.0,0.0,0.0,0.0,0.0,0.0,0.0,0.0,0.0,0.0,0.0,0.0,0.0,0.0,0.0,0.0,0.0,7.0898,0.0,0.0,0.0,0.0,0.0,0.0,0.0,0.0,0.0,0.0,0.0,0.0,0.0,0.0,0.0,0.0,0.0,0.0,0.0,0.0,0.0,4.3162,4.5547,4.5932,4.6701,4.8394,4.8394,4.8317,4.8317,4.8202,0.0,0.0,0.0,0.0,5.0664,5.0279,5.1818,5.5357,5.8704,6.3705,7.0206,7.1898,6.8475,6.0858,5.7703,0.0,0.0,0.0,0.0,0.0,0.0,0.0,0.0,0.0,0.0,0.0,0.0,0.0,0.0,0.0,0.0,0.0,0.0,0.0,0.0,0.0,0.0,0.0,0.0,0.0,0.0,0.0,0.0,0.0,0.0,0.0,0.0,0.0,0.0,0.0,0.0,0.0,0.0,0.0,0.0,0.0,0.0,0.0,0.0,0.0,0.0,0.0,0.0,0.0,0.0,0.0,0.0,0.0,0.0,0.0,0.0,0.0,0.0,0.0,0.0,0.0,0.0,0.0,8.2593,8.4016,8.5324,8.4632,8.5819,8.8122,8.1085,7.9515,8.1407,7.4226,0.0,0.0,0.0,0.0,0.0,0.0,0.0,0.0,0.0,0.0,0.0,0.0,0.0,0.0,0.0,0.0,0.0,0.0,0.0,4.4662,4.6547,4.7355,4.8471,5.0202,4.9663,4.924,4.924,4.8509,0.0,0.0,0.0,5.0587,5.0702,5.201,5.4703,5.8858,6.8667,7.4745,7.7207,7.8938,7.8707,7.6553,7.1014,6.6821,6.3705,0.0,0.0,0.0,0.0,0.0,0.0,0.0,0.0,0.0,0.0,0.0,0.0,0.0,0.0,0.0,0.0,0.0,0.0,0.0,0.0,0.0,0.0,0.0,0.0,0.0,0.0,0.0,0.0,0.0,0.0,0.0,0.0,0.0,0.0,0.0,0.0,0.0,0.0,0.0,0.0,0.0,6.9169,7.1004,0.0,0.0,0.0,0.0,0.0,0.0,0.0,0.0,0.0,0.0,0.0,0.0,0.0,7.8074,8.0384,8.4042,8.6043,8.6428,9.0244,9.2133,9.2361,9.2249,9.2441,9.2826,9.1672,0.0,8.5305,8.3466,0.0,0.0,0.0,0.0,0.0,0.0,0.0,0.0,0.0,0.0,0.0,0.0,0.0,0.0,0.0,0.0,0.0,0.0,0.0,0.0,0.0,5.2049,5.3972,5.6165,5.6896,5.6203,5.3818,5.3318,0.0,0.0,5.1895,5.2779,5.4203,5.6357,6.0935,6.8052,7.7207,8.2285,8.3555,8.5747,8.6824,8.6786,8.317,7.7053,6.9244,6.632,0.0,0.0,0.0,0.0,0.0,0.0,0.0,0.0,0.0,0.0,0.0,0.0,0.0,0.0,0.0,0.0,0.0,0.0,0.0,0.0,0.0,0.0,0.0,0.0,0.0,0.0,0.0,0.0,0.0,0.0,0.0,0.0,0.0,0.0,0.0,0.0,0.0,0.0,0.0,6.9309,7.2456,7.4158,7.2919,7.0717,0.0,0.0,0.0,0.0,0.0,0.0,0.0,0.0,0.0,8.2803,8.3307,8.4997,8.8128,9.0013,9.1168,9.1703,9.4016,9.5401,9.5863,9.6325,9.6556,9.6594,9.6557,9.5288,9.2867,8.8224,8.4114,8.0446,0.0,0.0,0.0,0.0,7.495,7.5787,0.0,0.0,0.0,0.0,0.0,0.0,0.0,0.0,0.0,0.0,0.0,0.0,5.4126,5.7357,6.015,6.229,6.3782,6.3051,5.9258,5.8165,5.6703,5.4587,5.3895,5.4818,5.7588,6.2281,6.8629,7.663,8.3862,8.7863,8.8748,9.0864,9.2287,9.3056,9.1556,8.5478,7.6207,7.2783,6.7782,6.182,0.0,0.0,0.0,0.0,0.0,0.0,0.0,0.0,0.0,0.0,0.0,0.0,0.0,0.0,0.0,0.0,0.0,0.0,0.0,0.0,0.0,0.0,0.0,0.0,0.0,0.0,0.0,0.0,0.0,0.0,0.0,0.0,0.0,0.0,0.0,0.0,0.0,7.337,7.5819,7.7696,7.7592,7.5725,0.0,0.0,0.0,0.0,0.0,0.0,8.0704,8.1584,8.431,8.9183,8.9569,9.1313,9.4634,9.4864,9.5324,9.5978,9.663,9.7246,9.7825,9.848,9.8788,9.8788,9.8826,9.8788,9.8326,9.2409,8.934,8.7958,8.3734,8.1539,8.0844,8.1224,8.1418,8.2064,0.0,0.0,0.0,0.0,0.0,0.0,0.0,0.0,0.0,0.0,0.0,5.5972,5.7857,6.2474,6.5909,6.6945,6.7718,6.7102,6.4667,6.1296,5.8973,5.8088,5.5742,5.5972,5.9319,6.9783,7.7438,8.19,8.7979,9.1402,9.2249,9.3172,9.4018,9.4826,9.3903,9.1402,8.7478,8.1708,7.6707,7.2014,6.3782,0.0,0.0,0.0,0.0,0.0,0.0,0.0,0.0,0.0,0.0,0.0,0.0,0.0,0.0,0.0,0.0,0.0,0.0,0.0,0.0,0.0,0.0,0.0,0.0,0.0,0.0,0.0,0.0,0.0,0.0,0.0,0.0,0.0,0.0,0.0,0.0,0.0,0.0,8.2936,8.3926,0.0,0.0,0.0,0.0,7.942,8.1026,8.347,8.6799,8.7768,9.0223,9.4482,9.5441,9.6288,9.7287,9.8132,9.8594,9.8632,9.8671,9.8709,9.8748,9.8788,9.8789,9.8788,9.8826,9.8788,9.8711,9.7481,9.4637,9.0799,8.8958,8.6265,8.3632,8.519,8.7269,8.9724,0.0,0.0,0.0,4.4085,4.3855,4.3778,4.347,4.4393,4.574,4.7471,5.3356,5.8242,6.0512,6.7205,7.2195,7.3817,7.5543,7.4879,7.0882,6.7242,6.4628,6.3243,6.0204,6.2435,7.0783,7.8015,8.3785,8.8017,9.2364,9.4711,9.517,9.7133,9.8632,9.9516,9.8518,9.7096,9.5016,8.8325,8.2785,7.7938,7.2706,6.709,0.0,0.0,0.0,0.0,0.0,0.0,0.0,0.0,0.0,0.0,0.0,0.0,0.0,0.0,0.0,0.0,0.0,0.0,0.0,0.0,0.0,0.0,0.0,0.0,0.0,0.0,0.0,0.0,0.0,0.0,0.0,0.0,0.0,0.0,0.0,0.0,0.0,8.504,8.6467,0.0,8.4099,8.5632,8.6603,8.6312,8.8344,9.068,9.302,9.3407,9.4789,9.7364,9.7749,9.8326,9.9173,9.9481,9.9904,10.0404,10.0981,10.0981,10.0404,10.102,10.1173,10.1212,10.0673,10.102,10.1905,9.9981,9.7943,9.6057,9.5405,9.4095,9.2704,9.3826,9.4172,9.4326,0.0,0.0,0.0,4.4432,4.4316,4.4316,4.4316,4.5278,4.7163,5.0279,5.6357,6.1858,6.5551,7.2706,7.8083,8.0068,8.2155,8.1484,7.7169,7.3005,6.9487,6.6859,6.5397,6.9283,7.9208,8.4439,8.8825,9.2479,9.5595,9.7441,9.7978,9.971,10.1203,10.25,10.12,10.0466,9.9827,9.4249,8.9056,8.417,8.0169,7.5207,6.9629,0.0,0.0,0.0,0.0,0.0,0.0,0.0,0.0,0.0,0.0,0.0,0.0,0.0,0.0,0.0,0.0,0.0,0.0,0.0,0.0,0.0,0.0,0.0,0.0,0.0,0.0,0.0,0.0,0.0,0.0,0.0,0.0,0.0,0.0,0.0,8.58,8.7222,8.9167,8.9705,8.7993,9.0104,9.1754,9.2026,9.3868,9.5597,9.7094,9.7134,9.7788,9.9211,9.948,10.0096,10.0904,10.1211,10.1596,10.2172,10.2828,10.2712,10.2172,10.2828,10.2982,10.2982,10.2404,10.2789,10.3714,10.1788,10.0635,9.9942,9.8826,9.8018,9.7518,9.7518,9.7017,9.6479,0.0,0.0,4.5316,4.447,4.4355,4.4355,4.4355,4.5817,4.9048,5.4895,6.0935,6.6936,7.286,7.8861,8.3279,8.5375,8.689,8.6434,8.3279,7.8108,7.3197,6.8821,7.1245,7.6207,8.3708,8.8786,9.2556,9.5134,9.7634,9.9403,10.0519,10.0595,10.1602,10.3391,10.1797,10.1491,10.2019,9.9518,9.5745,9.1014,8.594,8.2862,8.0246,0.0,0.0,0.0,0.0,0.0,0.0,0.0,0.0,0.0,0.0,0.0,0.0,0.0,0.0,0.0,0.0,0.0,0.0,0.0,0.0,0.0,0.0,0.0,0.0,0.0,0.0,0.0,0.0,0.0,0.0,0.0,0.0,0.0,8.3759,8.519,8.7225,8.979,9.2254,9.3139,9.1565,9.3676,9.5443,9.6326,9.7096,9.7941,9.8825,9.8865,9.9288,10.0211,10.1019,10.1789,10.2713,10.3518,10.4016,10.4016,10.4016,10.4016,10.3901,10.3906,10.3907,10.3907,10.3903,10.3903,10.379,10.2901,10.2594,10.2328,9.8904,9.7558,9.7366,9.5752,9.5712,9.6443,4.5586,4.5586,4.5509,4.5278,4.524,4.524,4.524,4.6663,4.9471,5.4203,6.1589,6.8205,7.2976,8.0977,8.6094,8.6396,8.8205,8.8004,8.5018,7.9713,7.587,7.3976,8.0477,8.6017,8.9979,9.2633,9.5211,9.775,9.9096,10.0096,10.0788,10.2727,10.3993,10.4891,10.5491,10.4881,10.329,10.2397,10.0095,9.6676,9.2767,8.8632,8.417,0.0,0.0,0.0,0.0,0.0,0.0,0.0,0.0,0.0,0.0,0.0,0.0,0.0,0.0,0.0,0.0,0.0,0.0,0.0,0.0,0.0,0.0,0.0,0.0,0.0,0.0,0.0,0.0,0.0,0.0,0.0,0.0,8.7718,8.653,8.8913,9.1449,9.3366,9.4751,9.5635,9.5751,9.6942,9.7825,9.8095,9.8327,9.9058,10.0481,10.0596,10.1289,10.279,10.3095,10.3595,10.4403,10.471,10.5095,10.5672,10.5672,10.5403,10.4826,10.4787,10.448,10.3903,10.3209,10.3324,10.3788,10.2284,10.2017,10.2405,10.0211,9.898,9.8481,9.8634,9.9211,9.9942,4.5586,4.5586,4.5586,4.5586,4.5893,4.6124,4.6124,4.7586,5.0818,5.6896,6.3166,6.9552,7.5976,8.3093,8.7671,8.8363,8.9748,8.929,8.625,8.1192,7.94,8.1708,8.6555,9.0902,9.4518,9.6249,9.7865,9.9327,10.0289,10.1212,10.1905,10.3925,10.5317,10.6015,10.6896,10.6217,10.451,10.3994,10.2295,9.9862,9.7847,9.4403,8.994,8.5824,8.2285,7.9007,7.5408,7.3781,7.3056,7.0979,0.0,0.0,0.0,0.0,0.0,0.0,0.0,0.0,0.0,0.0,0.0,0.0,0.0,0.0,0.0,0.0,0.0,0.0,0.0,0.0,0.0,0.0,0.0,0.0,8.8339,9.1408,9.1177,9.2523,9.4176,9.5865,9.648,9.7134,9.798,9.8827,9.948,9.9827,10.0212,10.1019,10.2328,10.2404,10.298,10.4406,10.4403,10.5018,10.6213,10.6213,10.6597,10.7408,10.7098,10.6713,10.6213,10.5787,10.5403,10.4903,10.4364,10.4482,10.4789,10.348,10.3212,10.3367,0.0,0.0,0.0,0.0,9.8827,9.9211,4.5624,4.5663,4.574,4.574,4.6471,4.7048,4.7048,4.8548,5.2664,6.1012,6.5282,7.0975,8.0092,8.5055,8.844,9.0364,9.1195,9.0261,8.707,8.3433,8.3978,8.9787,9.0594,9.3056,9.7673,9.9288,10.0096,10.0212,10.1212,10.229,10.3403,10.4523,10.5502,10.6601,10.6601,10.6093,10.5311,10.4519,10.3121,10.1317,10.1311,9.9404,9.598,9.1364,8.8435,8.6203,8.1585,7.9818,7.93,7.6924,0.0,0.0,0.0,0.0,0.0,0.0,0.0,0.0,0.0,0.0,0.0,0.0,0.0,0.0,0.0,0.0,0.0,0.0,0.0,0.0,0.0,0.0,0.0,0.0,9.1989,9.4789,9.6249,9.5943,9.6058,9.7479,9.7825,9.8211,9.9019,9.9981,10.0788,10.152,10.2289,10.3098,10.3983,0.0,0.0,0.0,0.0,10.602,10.7716,10.7598,10.7908,10.8601,10.7908,10.7598,10.7523,10.679,10.6328,10.629,10.6294,10.6179,10.6102,10.5293,10.4792,10.4407,10.1404,9.9673,9.8748,9.7174,9.6558,9.6597,4.574,4.6163,4.6663,4.6663,4.7317,4.7855,4.7855,4.9894,5.401,6.1166,6.6821,7.2976,8.0285,8.6094,8.9402,8.9363,9.1159,9.0884,8.7512,8.9594,9.0979,9.0941,9.4903,9.7865,9.9558,9.9904,10.0404,10.1096,10.1481,10.2267,10.3399,10.3808,10.4686,10.5703,10.5703,10.5312,10.4414,10.4288,10.3417,10.2218,10.2213,10.0404,9.7442,9.5788,9.3554,9.1014,8.9349,8.7879,8.6538,8.5347,8.3696,8.1952,8.0914,7.793,0.0,0.0,0.0,0.0,0.0,0.0,0.0,0.0,0.0,0.0,0.0,0.0,0.0,0.0,0.0,0.0,0.0,0.0,0.0,9.0607,9.4714,9.7672,9.7325,9.8327,9.8981,9.8557,9.975,10.0596,10.0788,10.2213,10.3174,10.3362,10.3593,10.4018,10.4787,10.4903,10.5595,10.7098,10.6521,10.6597,10.7716,10.6976,10.6703,10.6895,0.0,0.0,10.6597,10.6521,10.602,10.5403,10.5405,10.502,10.4403,10.4211,10.3286,10.2017,10.1289,10.0595,9.9747,9.8672,9.8326,9.8326,4.6932,4.7201,4.7509,4.7509,4.8202,4.874,4.874,5.0548,5.4357,6.1204,6.6128,7.1591,7.8438,8.3324,8.6055,8.5868,8.7671,8.8974,8.9286,9.1672,9.3672,9.4941,9.7865,9.9827,10.0712,10.0712,10.0904,10.1289,10.1712,10.2212,10.281,10.3608,10.4298,10.4883,10.5312,10.5,10.4219,10.4219,10.3594,10.2694,10.2685,10.1705,10.0006,9.8548,9.6826,9.5093,9.4086,9.3466,9.2931,9.1602,9.0373,8.9063,8.7829,8.4767,8.1129,0.0,0.0,0.0,0.0,0.0,0.0,0.0,0.0,0.0,0.0,0.0,0.0,0.0,0.0,8.4401,0.0,0.0,9.2409,9.406,9.648,9.8441,9.925,10.0212,10.0519,10.0096,10.1212,10.2097,10.2595,10.3789,10.4328,10.3901,10.4285,10.471,10.5095,10.5095,10.5672,10.6982,10.6595,10.6825,10.7716,10.7287,10.7325,10.7594,10.721,10.7095,10.6982,10.6597,10.6213,10.5787,10.5787,10.548,10.5095,10.471,10.4016,10.3093,10.229,10.0904,9.9403,9.8979,9.8786,9.8786,4.8355,4.8509,4.8548,4.8394,4.9086,4.9663,4.9663,5.1241,5.4549,6.0589,6.4705,6.9436,7.563,7.9323,8.1554,8.2099,8.4318,8.7198,9.071,9.2749,9.5365,9.8904,9.9865,10.0596,10.1289,10.1289,10.1289,10.1289,10.1789,10.2212,10.2401,10.3402,10.3984,10.4219,10.4804,10.4609,10.3906,10.3906,10.3515,10.289,10.289,10.281,10.2413,10.0507,9.9154,9.8019,9.7169,9.7052,9.709,9.5903,9.5367,9.5058,9.3826,9.1367,8.8221,8.4767,8.3426,0.0,0.0,0.0,0.0,0.0,0.0,0.0,0.0,0.0,8.3361,8.6041,8.7264,8.8723,9.1642,9.287,9.4406,9.7287,9.8018,9.8942,10.1019,10.1712,10.202,10.202,10.2712,10.3405,10.4285,10.5018,10.521,10.471,10.5095,10.5405,10.5405,10.5403,10.5787,10.6597,10.6514,10.6784,10.7716,10.7523,10.7793,10.837,10.7793,10.7408,10.7408,10.6713,10.6405,10.6405,10.6405,10.6405,10.6328,10.548,10.498,10.4672,10.3174,10.1212,9.925,9.9134,9.8942,9.8788,4.924,4.9894,5.0164,4.9394,4.9971,5.0548,5.0548,5.2626,5.5318,5.8319,6.3589,6.8552,7.236,7.5822,7.8477,8.0015,8.4658,8.8238,8.994,9.5288,9.8903,9.9904,10.0712,10.1212,10.1289,10.1289,10.1289,10.1289,10.1789,10.2483,10.3297,10.3089,10.3515,10.4219,10.3515,10.3086,10.3008,10.3008,10.3008,10.289,10.289,10.2889,10.2806,10.2289,10.0883,9.9019,9.8942,9.7827,9.652,9.7058,9.6751,9.6251,9.6788,9.5672,9.3484,9.0031,8.7445,8.4882,8.1256,8.1188,0.0,8.4627,8.4724,8.569,0.0,0.0,8.8804,9.2063,9.3407,9.4366,9.552,9.6403,9.7325,9.8478,9.9904,10.1019,10.1289,10.3172,10.471,10.471,10.4787,10.5172,10.602,10.6213,10.6521,10.7175,10.6602,10.6295,10.6295,10.6292,10.6713,10.7523,10.679,10.679,10.7716,10.6905,10.6597,10.6713,10.6597,10.6521,10.6521,10.6405,10.6405,10.6405,10.6405,10.6405,10.6328,10.548,10.4713,10.3867,10.2982,10.1981,10.0904,10.0173,9.9481,9.8788,5.0164,5.0433,5.0587,5.0202,5.0471,5.0702,5.0702,5.201,5.3895,5.6434,6.0242,6.3974,6.7398,7.0821,7.3553,7.5245,8.1616,8.6191,8.7594,9.5057,9.9442,9.9327,10.0712,10.1481,10.1289,10.1289,10.1289,10.1289,10.1712,10.2096,10.2596,10.2699,10.289,10.3398,10.3086,10.289,10.289,10.289,10.289,10.289,10.289,10.289,10.2812,10.2187,10.132,10.0201,9.8919,9.7629,0.0,9.7288,9.6597,9.5982,9.8289,9.7174,9.46,9.268,9.1026,8.9748,8.929,0.0,0.0,0.0,8.9914,9.0517,9.2553,9.2254,9.2332,9.4751,9.5903,9.6557,9.6903,9.7711,9.8673,0.0,10.0789,10.1827,10.3288,10.4903,10.5672,10.521,10.602,10.6597,10.6405,10.6902,10.6902,10.6213,10.579,10.5599,10.5599,10.5597,10.602,10.6905,10.6597,10.6597,10.6905,10.6597,10.6405,10.6405,10.6405,10.6097,10.5595,10.5595,10.5403,10.4903,10.4903,10.4903,10.4903,10.4016,10.3403,10.3098,10.2213,10.1597,10.1289,10.0904,10.0596,10.0288,5.0625,5.0702,5.0702,5.0702,5.0702,5.0702,5.0702,5.1395,5.2549,5.4395,5.7088,6.0127,6.3551,6.6513,6.8975,7.0733,7.741,8.2806,8.5727,9.3577,9.8438,9.9197,10.071,10.1481,10.1289,10.1289,10.1289,10.1289,10.1597,10.1809,10.2085,10.2398,10.2617,10.289,10.289,10.289,10.289,10.289,10.289,10.289,10.289,10.289,10.2812,10.1914,10.1004,9.9913,9.7987,9.6608,9.5623,9.5704,9.4828,9.4138,9.7327,9.6789,9.4907,9.4522,9.3522,9.2674,9.3384,0.0,0.0,9.2795,9.4177,9.4943,9.4368,9.4712,9.5443,9.6711,9.7441,9.7941,9.8173,9.8904,9.9981,10.1404,10.202,10.3095,10.521,10.602,10.6328,10.5903,10.6867,10.7369,10.6482,10.7018,10.6899,10.5903,10.5595,10.548,10.548,10.548,10.5672,10.6405,10.6405,10.6405,10.6405,10.6405,10.6405,10.6405,10.6405,10.5864,10.5095,10.4864,10.448,10.3903,10.3903,10.3903,10.3788,10.2978,10.2595,10.252,10.1597,10.1289,10.1289,10.1289,10.1289,10.1289,5.051,5.0702,5.0702,5.0702,5.0702,5.0702,5.0702,5.1395,5.1933,5.201,5.4972,5.8357,6.1781,6.3705,6.5513,6.7372,7.2327,7.8278,8.5073,9.1019,9.6068,10.0211,10.1002,10.1289,10.1289,10.1289,10.1289,10.1289,10.1597,10.1828,10.2097,10.2386,10.2617,10.289,10.289,10.289,10.289,10.289,10.289,10.289,10.289,10.289,10.2812,10.1914,9.9917,9.7372,9.6267,9.4563,9.2772,9.1715,9.0787,9.0493,9.3102,9.4407,9.5137,9.5966,9.4463,9.213,9.0504,9.1784,9.3791,9.4712,9.6788,9.8632,9.8632,9.8632,9.8671,9.8709,9.8748,9.9018,9.9865,10.0673,10.1481,10.2405,10.3905,10.5287,10.6213,10.6405,10.671,10.7471,10.7677,10.7373,0.0,10.6405,10.679,10.76,10.679,10.6405,10.6405,10.6405,10.6405,10.6405,10.6405,10.6405,10.6405,10.6405,10.6405,10.6405,10.6405,10.5864,10.5095,10.4291,10.3907,10.3907,10.3907,10.3907,10.383,10.2982,10.2597,10.252,10.1597,10.1289,10.1289,10.1289,10.1289,10.1289,4.9894,5.0279,5.0702,5.0702,5.0702,5.0702,5.0702,5.0933,5.1087,5.1087,5.3587,0.0,0.0,0.0,0.0,0.0,7.1066,7.6323,8.0764,8.8451,9.4016,9.6718,9.9362,10.0904,10.1289,10.1289,10.1289,10.1289,10.1404,10.1597,10.1789,10.2088,10.239,10.2617,10.2812,10.289,10.289,10.289,10.2617,10.1992,10.1992,10.1719,10.1015,9.9414,9.7175,9.4442,0.0,8.8822,8.7911,8.8521,8.8117,8.8209,9.305,9.3631,9.2523,9.2864,9.3092,9.3435,9.3971,9.4362,9.5058,9.7019,9.8173,9.8789,9.8789,9.8789,9.8789,9.8789,9.8789,9.9058,9.9942,10.0288,10.1211,10.3095,10.4403,10.5403,10.6328,10.7402,10.7475,10.6092,10.7023,0.0,0.0,0.0,0.0,10.6905,10.6597,10.6405,10.6405,10.6405,10.6405,10.6405,10.6405,10.6405,10.6405,10.6405,10.6097,10.5524,10.4403,10.3711,10.3405,10.2597,10.2213,10.2213,10.2213,10.2213,10.2213,10.1904,10.1712,10.1712,10.1404,10.1289,10.1289,10.1289,10.1289,10.1289,4.9894,5.0317,5.0702,5.0702,5.0702,0.0,0.0,0.0,0.0,0.0,0.0,0.0,0.0,0.0,0.0,0.0,0.0,7.3161,7.7736,8.4173,8.9483,9.3169,9.5516,9.7442,9.9019,9.8481,9.8596,9.9519,9.9519,9.9981,10.0789,10.1107,10.1305,10.1601,10.1914,10.1992,10.1992,10.1992,10.1601,10.1094,10.0508,9.9648,9.8554,9.6406,9.3328,0.0,8.6007,8.3518,8.2263,8.4073,8.4535,8.519,9.023,9.1968,9.221,9.283,9.3789,9.5014,9.6743,9.6556,9.652,9.9057,9.9712,9.9865,10.048,10.0596,10.048,10.0211,10.0211,10.0096,10.0096,10.0596,10.148,10.3209,10.44,10.548,10.6713,10.7287,10.7133,10.571,10.6328,10.6328,0.0,0.0,0.0,10.6405,10.6405,10.6405,10.6405,10.6405,10.6405,10.6405,10.6405,10.6405,10.6405,10.6405,10.6023,10.51,10.3403,10.2595,10.2597,10.1712,10.1289,10.1289,10.1289,10.1289,10.1289,10.1289,10.1289,10.1289,10.1289,10.1289,10.1289,10.1289,10.1289,10.1289,5.0491,5.0664,5.0702,0.0,0.0,0.0,0.0,0.0,0.0,0.0,0.0,0.0,0.0,0.0,0.0,0.0,0.0,0.0,7.575,7.8486,8.281,8.9585,8.9859,9.1402,9.4711,9.3287,9.3672,9.6057,9.6057,9.698,9.8827,9.9096,9.9332,9.9491,9.9726,9.9844,9.9883,9.9844,9.9804,9.9609,9.7969,9.664,9.5429,9.2888,8.8578,8.3658,8.1886,7.896,7.634,7.893,8.0585,8.2131,8.5401,8.9859,9.4205,9.5826,9.6403,9.6865,9.848,9.8289,9.8288,10.0788,10.1404,10.1904,10.3483,10.3907,10.3598,10.2713,10.252,10.1982,0.0,0.0,10.2404,10.2476,10.3977,10.571,10.7287,10.621,10.5403,0.0,0.0,0.0,0.0,0.0,0.0,10.6328,10.6405,10.6405,10.6405,10.6405,10.6405,10.6405,10.6405,10.6405,10.6405,10.629,10.579,10.4982,10.3328,10.248,10.248,10.1712,10.1289,10.1289,10.1289,10.1289,10.1289,10.1289,10.1289,10.1289,10.1289,10.1289,10.1289,10.1289,10.1289,10.1289,0.0,0.0,0.0,0.0,0.0,0.0,0.0,0.0,0.0,0.0,0.0,0.0,0.0,0.0,0.0,0.0,0.0,0.0,7.0405,7.4861,7.9451,8.4164,8.7325,9.0017,9.2133,9.2402,9.2518,9.2518,9.2518,9.2749,9.3249,9.3677,9.3901,9.3925,9.3688,9.3945,9.4531,9.3867,9.3125,9.2344,9.1914,9.1172,9.0114,8.7889,8.5048,8.2023,7.9972,7.7439,7.5543,7.872,8.3303,0.0,0.0,9.3477,9.6517,9.6326,0.0,9.9364,10.0404,10.0519,10.0788,10.279,10.3212,10.3403,10.3788,10.3903,10.3518,10.19,10.1171,10.0404,0.0,0.0,0.0,10.1403,10.3595,0.0,10.4906,10.5599,0.0,10.4676,0.0,10.4214,10.4212,10.4405,0.0,0.0,10.602,10.6405,10.6405,10.6405,10.6405,10.6405,10.6405,10.6405,10.6405,10.5174,10.4097,10.3212,10.2097,10.1597,10.1597,10.1404,10.1289,10.1289,10.1289,10.1289,10.1289,10.1289,10.1289,10.1289,10.1289,10.1289,10.1289,10.1289,10.1289,10.1289,0.0,0.0,0.0,0.0,0.0,0.0,0.0,0.0,0.0,0.0,0.0,0.0,0.0,0.0,0.0,0.0,0.0,0.0,0.0,7.1299,7.5225,7.8823,8.1631,8.4286,8.6709,8.6517,8.7055,8.844,8.7325,8.7517,8.894,8.8602,8.848,8.8497,8.8316,8.8537,8.9062,8.8476,8.789,0.0,0.0,8.5663,8.4596,8.26,8.0277,7.7977,7.713,7.7351,7.8566,8.1984,8.6406,9.0864,9.2941,9.5134,9.7173,9.8212,0.0,10.0401,10.202,10.2212,10.2288,10.3982,10.4403,10.44,10.44,10.44,10.3901,10.2207,10.148,10.0712,9.9096,9.971,10.0673,0.0,0.0,0.0,10.4482,10.4906,10.5022,0.0,10.3598,0.0,10.3905,10.4212,10.4597,0.0,10.5597,10.602,10.6405,10.6405,10.6405,10.6405,10.6405,10.6213,10.5787,10.4482,10.3482,10.2595,10.1712,10.1289,10.1289,10.1289,10.1289,10.1289,10.1289,10.1289,10.1289,10.1289,10.1289,10.1289,10.1289,10.1289,10.1289,10.1289,10.1289,10.1289,0.0,0.0,0.0,0.0,0.0,0.0,0.0,0.0,0.0,5.1433,5.1761,5.2376,0.0,0.0,0.0,0.0,0.0,0.0,0.0,0.0,7.064,7.3899,7.4976,7.7053,8.0362,7.9054,8.0092,8.3708,8.1516,8.19,8.4747,8.3548,8.3034,8.3136,8.3141,8.3263,8.3499,8.3109,8.2992,8.2935,8.1359,8.0242,7.9326,0.0,7.5592,7.3678,7.4571,7.8094,8.2832,8.6384,8.9341,9.1988,9.4521,9.5981,9.7366,10.0286,10.0902,10.1096,10.329,10.3405,10.3283,10.4903,10.5287,10.521,10.5095,10.498,10.4403,10.2591,10.229,10.1481,9.8942,10.0595,10.2097,10.1289,0.0,10.4983,10.4787,10.4287,10.3905,10.367,10.3135,10.2904,10.3672,10.4405,10.4789,10.4789,10.4789,10.5213,10.629,10.6405,10.6405,10.6405,10.6328,10.5787,10.4903,10.4097,10.3328,10.2403,10.1712,10.1289,10.1289,10.1289,10.1289,10.1289,10.1289,10.1289,10.1289,10.1289,10.1289,10.1289,10.1289,10.1289,10.1289,10.1289,10.1289,10.1289,0.0,0.0,0.0,0.0,0.0,0.0,0.0,0.0,0.0,0.0,5.3759,5.3318,0.0,0.0,0.0,0.0,0.0,0.0,0.0,0.0,0.0,7.0398,7.2052,7.413,7.6823,7.7284,7.7515,7.7553,7.7092,7.7169,7.7746,7.7669,7.7641,7.7653,7.7092,7.7287,7.7882,7.6444,7.6173,7.6521,7.5581,7.5474,7.5782,7.4637,0.0,0.0,7.5302,7.8569,8.2907,8.7113,9.0607,9.3714,9.6289,9.8173,9.9558,10.0095,10.1712,10.329,10.383,10.4289,10.4903,10.5864,10.6213,10.602,10.5287,10.4597,0.0,10.1019,10.048,9.975,9.7174,9.9365,10.1289,10.0401,10.3017,10.4595,10.3168,10.3518,10.3597,0.0,10.2711,10.2711,10.2828,10.302,0.0,0.0,10.302,10.402,10.629,10.6405,10.6405,10.6405,10.5672,10.4903,10.4095,10.3288,10.2365,10.152,10.1404,10.1289,10.1289,10.1289,10.1289,10.1289,10.1289,10.1289,10.1289,10.1289,10.1289,10.1289,10.1289,10.1289,10.1289,10.1289,10.1289,10.1289,0.0,0.0,0.0,0.0,0.0,0.0,0.0,5.4361,5.5941,5.8077,5.805,5.7313,5.5951,5.5742,5.6395,0.0,0.0,0.0,0.0,0.0,0.0,6.7641,6.9744,7.164,7.3322,7.4178,7.487,7.5351,0.0,7.3822,7.4678,7.386,7.3553,7.3619,7.318,7.3316,7.3713,7.28,7.2596,7.2842,7.2454,7.2531,7.28,7.2338,0.0,0.0,7.4918,7.8922,8.3989,8.5996,9.0142,9.4791,9.7366,9.875,9.9557,10.048,10.1904,10.3289,10.3789,10.448,10.5287,10.6213,10.6405,10.6097,10.4826,0.0,0.0,10.0519,10.0096,9.9442,9.7327,9.9711,10.1597,10.0284,10.2899,10.4477,10.2784,10.3403,10.3598,10.2674,10.2211,10.2094,0.0,10.2597,10.2597,10.2597,10.2981,10.402,10.5595,10.6636,10.7098,10.7098,10.6172,10.5403,10.4518,10.3211,10.2172,10.1289,10.1289,10.1289,10.1289,10.1289,10.1289,10.1289,10.1289,10.1289,10.1289,10.1289,10.1289,10.1289,10.1289,10.1289,10.1289,10.1289,10.1289,10.1289,0.0,0.0,0.0,0.0,0.0,0.0,5.4362,5.6348,5.8662,6.172,6.2589,6.181,5.895,5.7208,5.6806,0.0,0.0,0.0,0.0,0.0,0.0,0.0,0.0,0.0,7.0333,0.0,0.0,7.3889,7.186,0.0,0.0,0.0,0.0,0.0,7.0706,7.0744,7.086,7.0706,7.076,0.0,0.0,7.0783,7.0898,0.0,0.0,0.0,0.0,7.8877,8.422,8.5137,8.9329,9.4674,9.7596,9.8519,9.8827,10.0519,10.1827,10.2788,10.367,10.4634,10.548,10.6213,10.6405,10.602,10.4326,10.3135,10.1789,10.0172,9.9824,9.9364,9.7827,10.0096,10.1904,10.0593,10.2901,10.4287,10.2784,10.3405,10.3599,10.2713,10.202,0.0,10.2476,10.2595,0.0,10.2328,10.3289,10.4289,10.5287,10.6905,10.7713,10.7675,10.6864,10.5903,10.4903,10.3403,10.2212,10.1289,10.1289,10.1289,10.1289,10.1289,10.1289,10.1289,10.1289,10.1289,10.1289,10.1289,10.1289,10.1289,10.152,10.152,10.1289,10.152,10.152,10.1289,0.0,0.0,0.0,0.0,0.0,0.0,5.5114,5.7674,6.1035,6.5897,6.5947,6.5149,6.4026,6.0381,5.8137,0.0,0.0,0.0,0.0,0.0,0.0,0.0,0.0,0.0,0.0,0.0,0.0,7.1245,7.1014,0.0,0.0,0.0,0.0,0.0,0.0,6.9833,6.9833,6.9833,0.0,0.0,0.0,0.0,0.0,0.0,0.0,0.0,0.0,7.8284,8.2054,8.5901,8.9133,9.2249,9.6326,9.7634,9.7943,9.9712,10.1289,10.2788,10.3672,10.5095,10.6328,10.6405,10.6405,10.602,10.4289,10.2597,10.0904,9.9287,9.8902,9.8634,9.7673,9.9673,10.1404,10.1212,10.2828,10.3674,10.2668,10.3405,10.3599,10.2713,0.0,0.0,10.2595,10.2595,10.2288,10.152,10.2982,10.4599,10.6213,10.7175,10.7675,10.7671,10.6905,10.5595,10.4016,10.3097,10.2174,10.1289,10.1289,10.1289,10.1289,10.1289,10.1289,10.1289,10.1289,10.1289,10.1289,10.1289,10.1289,10.1404,10.2212,10.202,10.1404,10.2212,10.202,10.1289,0.0,0.0,0.0,0.0,0.0,0.0,5.7236,5.9733,6.3245,6.9365,6.9442,6.8597,6.7768,6.343,5.9991,5.8445,0.0,0.0,0.0,0.0,0.0,0.0,0.0,0.0,0.0,0.0,7.0898,7.0898,7.0898,0.0,0.0,0.0,0.0,0.0,0.0,6.9206,6.9717,6.9717,0.0,0.0,0.0,0.0,0.0,0.0,0.0,0.0,0.0,0.0,8.1285,8.2439,8.5901,9.0056,9.2249,9.4326,9.6749,10.0481,10.2404,10.3597,10.4405,10.552,10.6405,10.6405,10.5982,10.529,10.4174,10.2597,10.0789,9.9171,9.8786,9.8518,9.7635,9.875,9.998,10.0519,10.1597,10.2597,10.3324,10.3712,10.383,10.3367,10.2905,0.0,0.0,0.0,10.1904,10.2097,10.3714,10.5408,10.7098,10.8021,10.8402,10.8398,10.7591,10.6399,10.4593,10.3289,10.2213,10.1289,10.1289,10.1289,10.1289,10.1289,10.1289,10.1289,10.1289,10.1289,10.1289,10.1289,10.1289,10.1289,10.1712,10.1597,10.1289,10.1712,10.1597,10.1289,0.0,0.0,0.0,0.0,0.0,5.2608,5.8279,6.0843,6.4512,7.1324,7.1666,7.0976,7.0113,6.5499,6.1505,5.9216,5.8858,0.0,0.0,0.0,0.0,0.0,0.0,0.0,0.0,0.0,7.0667,7.0898,7.0898,7.0898,0.0,0.0,6.9321,6.9271,0.0,0.0,0.0,0.0,0.0,0.0,0.0,0.0,0.0,0.0,0.0,0.0,0.0,0.0,0.0,0.0,0.0,8.8556,8.9863,9.2441,9.5903,10.0481,10.2597,10.3712,10.4789,10.5713,10.6405,10.6405,10.5674,10.4906,10.4097,10.2597,10.0827,9.9172,9.8788,9.8595,9.8019,9.8212,9.8827,10.0172,10.0904,10.1788,10.3286,10.3864,10.4174,10.3906,0.0,0.0,0.0,10.1481,10.1789,10.2905,10.4291,10.5984,10.7905,10.8825,10.9205,10.8898,10.8398,10.7133,10.5095,10.3674,10.252,10.1712,10.1404,10.1289,10.1289,10.1289,10.1289,10.1289,10.1289,10.1289,10.1289,10.1597,10.1712,10.1712,10.1981,10.1904,10.1712,10.202,10.1712,10.1289,0.0,0.0,0.0,0.0,0.0,0.0,5.7526,6.0465,6.4545,7.1295,7.2195,7.185,7.0986,6.6343,6.2618,6.0916,5.8473,0.0,0.0,0.0,0.0,0.0,0.0,0.0,0.0,0.0,7.0102,7.0898,7.0898,7.0898,7.086,6.919,6.841,6.8398,0.0,0.0,0.0,0.0,0.0,0.0,0.0,0.0,7.1675,0.0,0.0,0.0,0.0,0.0,0.0,0.0,0.0,0.0,0.0,9.2943,9.5674,9.9135,10.1289,10.2981,10.4597,10.5713,10.6405,10.6405,10.5713,10.4905,10.4097,10.2595,10.0787,9.9173,9.8788,9.8788,9.8788,9.8058,9.8365,10.0904,10.1289,10.1594,10.248,10.4016,10.4782,0.0,0.0,10.3522,10.2713,10.1789,10.1981,10.383,10.4597,0.0,10.8782,10.9709,10.9825,10.8898,10.8867,10.7716,10.5095,10.4291,10.3367,10.2597,10.1712,10.1289,10.1289,10.1289,10.1289,10.1289,10.1289,10.1289,10.1404,10.2213,10.2597,10.2713,10.3522,10.329,10.2713,10.3597,10.2789,10.1404,0.0,0.0,0.0,0.0,0.0,0.0,5.7526,5.9973,6.3219,6.8866,7.0115,7.0383,7.014,6.5548,6.2247,6.1747,5.938,0.0,0.0,0.0,0.0,0.0,0.0,0.0,0.0,6.7806,6.9794,7.1772,7.1772,7.1772,7.1772,7.0629,6.9475,6.836,6.7487,6.7564,0.0,0.0,0.0,0.0,0.0,7.1403,7.1679,0.0,0.0,0.0,0.0,0.0,0.0,0.0,0.0,0.0,0.0,0.0,0.0,9.6673,9.9904,10.2789,10.3982,10.4482,10.4713,10.4713,10.3597,10.2597,10.2904,10.2096,10.0788,9.9135,9.8788,9.8826,9.8789,9.8096,9.8711,10.252,10.2097,10.2404,10.5597,10.548,0.0,10.4789,10.3211,10.1979,0.0,0.0,10.2328,10.4484,10.5518,10.7087,10.9709,11.0594,11.0402,10.8898,10.8867,10.7408,10.4285,10.4018,10.3212,10.1712,10.1404,10.1289,10.1289,10.1904,10.2213,10.2213,10.279,10.3098,10.3098,10.3367,10.3483,10.3482,10.3829,10.3713,10.3483,10.379,10.3213,10.2213,0.0,0.0,0.0,0.0,0.0,0.0,5.629,5.7995,6.0685,6.582,6.6918,6.7675,6.8602,6.4756,6.1939,6.1632,5.9848,0.0,0.0,0.0,0.0,0.0,0.0,0.0,6.5832,6.7218,6.9459,7.2685,7.2696,7.2706,7.2668,7.1783,7.0348,6.8347,6.75,6.7564,0.0,0.0,0.0,0.0,7.086,7.1105,7.1702,0.0,0.0,0.0,0.0,0.0,0.0,0.0,0.0,0.0,0.0,0.0,0.0,0.0,9.8096,10.1096,10.2904,10.3597,10.3905,10.3905,10.2828,10.1904,10.248,10.1673,10.048,9.9058,9.8557,9.8404,9.875,9.8096,9.8673,10.2289,10.1981,10.2481,10.579,10.529,0.0,10.4599,0.0,0.0,0.0,10.1981,10.2982,10.5871,10.6595,10.7971,11.0594,11.0863,11.0402,10.8898,10.8867,10.76,10.4903,10.4211,10.352,10.2713,10.2097,10.1981,10.2328,10.279,10.3098,10.3097,10.3674,10.3674,0.0,10.4097,10.4212,10.3903,10.4212,10.4405,10.4406,10.4406,10.3597,10.2595,0.0,0.0,0.0,0.0,0.0,0.0,0.0,5.515,5.7357,6.2233,6.3015,6.4001,6.6384,6.3806,6.1582,6.0723,5.9854,0.0,0.0,0.0,0.0,0.0,0.0,0.0,6.5812,6.6679,6.9152,7.3405,7.3601,7.3697,7.3735,7.2976,7.1206,6.8652,6.777,6.7757,0.0,0.0,0.0,0.0,7.0294,7.0667,0.0,0.0,0.0,0.0,0.0,0.0,0.0,0.0,0.0,0.0,0.0,0.0,0.0,0.0,0.0,0.0,0.0,10.2903,10.3597,10.3672,10.3095,10.2403,10.248,10.1288,0.0,9.898,9.8173,9.7864,9.8634,9.8134,9.8442,10.1096,10.152,10.2097,10.3789,10.3982,0.0,0.0,10.3097,0.0,10.3905,10.3174,10.4099,10.7412,10.779,10.8898,11.1406,11.0671,10.9825,10.8898,10.879,10.7985,10.6328,10.4791,10.4292,10.5024,10.3406,10.3098,10.3907,10.3907,10.3905,10.4016,10.4016,10.3516,10.2899,10.4518,10.471,10.4093,10.4903,10.521,10.521,10.521,10.4093,10.2784,0.0,0.0,0.0,0.0,0.0,0.0,0.0,0.0,0.0,0.0,6.0173,6.1627,6.2204,6.0973,5.9758,0.0,0.0,0.0,0.0,0.0,0.0,0.0,0.0,0.0,6.5851,6.6679,6.8883,7.2531,7.4465,7.5741,7.6425,7.6833,7.4973,7.1272,7.0401,6.9412,0.0,0.0,0.0,0.0,7.0733,7.0937,0.0,0.0,0.0,0.0,7.3676,7.5533,0.0,0.0,0.0,0.0,0.0,0.0,0.0,0.0,9.4747,9.6865,9.8288,0.0,10.1095,10.1788,10.1289,10.0789,0.0,10.1327,10.0596,9.9134,9.8634,9.8557,9.875,9.8634,9.9558,10.2789,10.3289,10.3905,10.5597,10.4713,0.0,10.4674,10.2904,10.2481,10.4599,10.4095,10.4708,10.7482,10.8325,10.9474,11.1406,11.0675,10.9832,10.8909,10.8293,10.7175,10.5403,10.498,10.4597,10.4215,10.3828,10.3711,10.3903,10.3903,10.4211,10.4826,10.4826,10.471,10.4595,10.5676,10.5599,10.4903,10.5787,10.6097,10.6097,10.6097,10.5018,10.3593,0.0,0.0,0.0,0.0,0.0,0.0,0.0,0.0,0.0,0.0,5.7037,5.8489,6.0027,5.9427,5.8773,0.0,0.0,0.0,0.0,0.0,0.0,0.0,0.0,6.2897,6.5818,6.6705,6.9167,7.3366,7.5139,7.6817,7.8436,7.8108,7.6101,7.2698,7.1094,6.9605,0.0,0.0,0.0,7.0863,7.0475,0.0,0.0,0.0,0.0,0.0,7.487,7.6885,0.0,8.1008,8.3555,8.6324,0.0,0.0,0.0,0.0,9.4287,9.5903,9.6711,9.8481,10.021,10.0596,10.0404,10.0212,10.0712,10.0404,9.9904,9.8981,9.848,9.8441,9.9249,9.9404,10.0289,10.2904,10.3597,10.4289,10.5597,0.0,10.5405,10.4597,10.3712,10.3405,0.0,10.4518,10.5515,10.8094,10.9017,11.0094,11.1406,11.0291,10.9409,10.8911,10.7716,10.6713,10.5672,10.5287,10.5136,10.5022,10.4595,10.471,10.5018,10.5018,10.5328,10.5715,10.5713,10.548,10.521,10.5986,10.5909,10.521,10.6097,10.6405,10.6405,10.6405,10.5287,10.3901,0.0,0.0,0.0,0.0,0.0,0.0,0.0,0.0,0.0,0.0,0.0,0.0,0.0,0.0,0.0,0.0,0.0,0.0,0.0,0.0,0.0,0.0,6.1593,6.2759,6.623,6.6923,6.9605,7.4318,7.5851,7.7801,8.0164,7.8985,7.6683,7.3377,7.0964,6.9335,6.8471,6.9459,7.0256,7.086,7.014,0.0,0.0,0.0,0.0,0.0,0.0,0.0,0.0,8.2887,8.5164,8.7786,9.0098,0.0,0.0,0.0,0.0,0.0,9.6326,9.825,9.9904,10.0096,10.0211,10.0288,10.0327,9.9711,9.9173,9.9019,9.8404,9.8403,9.9981,10.0327,10.0789,10.252,10.352,10.4289,10.4789,10.6213,10.629,10.4212,10.4405,0.0,10.4097,10.4864,10.6402,10.8594,10.9786,11.0671,11.1522,10.9983,10.8983,10.887,10.7367,10.6521,10.6405,10.548,10.5403,10.602,10.5403,10.548,10.6213,10.6213,10.6292,10.641,10.6099,10.5672,10.5095,10.5793,10.5676,10.521,10.5864,10.6328,10.6405,10.6328,10.521,10.3901,0.0,0.0,0.0,0.0,0.0,0.0,0.0,0.0,0.0,0.0,0.0,0.0,0.0,0.0,0.0,0.0,0.0,0.0,0.0,0.0,0.0,6.3045,6.2988,6.4501,6.7911,6.8129,6.9643,7.2569,7.7053,8.0138,8.1939,8.3144,8.0061,7.3427,7.1544,6.9836,6.851,7.0063,7.0783,7.0898,7.0783,0.0,0.0,0.0,0.0,0.0,0.0,0.0,0.0,8.1952,8.4686,8.7606,8.8725,0.0,0.0,0.0,0.0,0.0,9.7593,9.8709,9.9172,9.9904,10.0596,10.1096,10.1134,10.1018,10.0711,9.9981,9.9788,9.9981,10.0903,10.1097,10.1712,10.3365,10.4405,10.4713,0.0,0.0,10.4289,10.3905,0.0,10.3482,10.4789,10.6405,10.7521,10.7905,11.0021,11.1406,11.1522,11.0483,10.9675,10.8909,10.8024,10.7098,10.6405,10.548,10.4826,10.4285,10.4826,10.521,10.5287,10.5287,10.5713,10.629,10.4903,10.4593,10.5095,10.4518,10.4595,10.5095,10.521,10.5787,10.6328,10.5595,10.471,10.3708,0.0,0.0,0.0,0.0,0.0,0.0,0.0,0.0,0.0,0.0,0.0,0.0,0.0,0.0,0.0,0.0,0.0,0.0,0.0,0.0,6.2151,6.5216,6.532,6.6307,6.836,7.0194,7.2646,7.5617,7.9808,8.3218,8.5714,8.3753,7.9515,7.3437,7.1698,6.9977,6.851,7.0179,7.0898,7.0898,0.0,0.0,0.0,0.0,0.0,0.0,0.0,0.0,0.0,0.0,8.6599,8.9671,9.1021,0.0,0.0,0.0,0.0,0.0,9.6902,9.8096,9.9134,10.0404,10.1019,10.1289,10.1289,10.1712,10.1828,10.0904,10.0673,10.0904,10.1174,10.1712,10.2712,10.4905,0.0,10.5713,10.529,10.5713,10.5405,0.0,0.0,10.4597,10.4482,10.6405,10.7905,10.829,11.0291,11.1522,11.1522,11.0714,10.979,10.8906,10.7675,10.6405,10.5097,10.4211,10.4287,10.5214,10.5099,10.529,10.5787,10.5787,10.5787,10.5672,10.4903,10.448,10.4405,10.4095,10.4095,10.4482,10.4903,10.5095,10.4903,10.4097,10.352,10.302,0.0,0.0,0.0,0.0,0.0,0.0,0.0,0.0,0.0,0.0,0.0,0.0,0.0,0.0,0.0,0.0,0.0,0.0,0.0,6.0304,6.2603,6.6654,6.7552,6.8693,7.0157,7.2745,7.5745,7.9124,8.2728,8.5915,8.8605,8.3874,7.8946,7.3986,7.2083,7.0285,6.8806,7.0256,7.0898,7.0898,0.0,0.0,0.0,0.0,0.0,0.0,0.0,0.0,0.0,0.0,0.0,0.0,0.0,0.0,0.0,9.5126,9.517,9.5328,9.6788,9.7981,9.9209,10.0903,10.1212,10.1212,10.1788,10.2135,10.2212,10.198,10.1904,10.1981,10.2213,10.2905,0.0,10.6405,10.6405,0.0,0.0,0.0,10.5713,10.3482,10.4789,10.5097,10.3482,10.6097,10.8098,10.829,11.0291,11.1522,11.1522,11.0906,11.0098,10.9213,10.7982,10.6521,10.4789,10.3711,10.3982,10.5524,10.5023,10.5291,10.6097,10.6328,10.5864,10.5095,10.4903,10.4482,10.3907,10.348,10.352,10.3907,10.4405,10.4095,10.3518,10.2789,10.252,10.2213,0.0,0.0,0.0,0.0,0.0,0.0,0.0,0.0,0.0,0.0,0.0,0.0,0.0,0.0,0.0,0.0,0.0,0.0,0.0,6.0311,6.2337,6.582,6.8971,7.215,7.5386,7.5687,7.7493,8.0926,8.507,8.7648,8.8651,8.5074,8.0708,7.5732,7.3215,7.1197,6.9679,7.0552,7.0898,7.0898,7.0898,0.0,0.0,0.0,0.0,0.0,0.0,0.0,0.0,0.0,0.0,0.0,0.0,0.0,9.3138,9.5511,9.563,9.5712,9.894,9.9327,9.9211,10.0865,10.0673,10.0827,10.3209,10.2476,10.1823,10.3401,10.3712,10.3907,10.4677,10.5484,10.6482,10.7408,10.6174,10.4905,10.4212,0.0,10.2597,10.1597,10.302,10.3405,10.1712,10.5905,10.8213,10.6713,10.9598,11.1522,11.1522,11.1406,11.1021,11.0098,10.9983,10.9098,10.7405,10.579,10.4212,10.2904,10.3595,10.4403,10.521,10.602,10.5864,10.5095,10.4291,10.4022,10.383,10.2174,10.2405,10.383,10.3098,10.2713,10.2713,10.2597,10.2097,10.1404,0.0,0.0,0.0,0.0,0.0,0.0,0.0,0.0,0.0,0.0,0.0,0.0,0.0,0.0,0.0,0.0,0.0,0.0,0.0,6.0311,6.2567,6.65,6.8883,7.1996,7.5908,7.8569,8.1574,8.5036,8.8723,9.0219,8.9335,8.4345,8.0138,7.6646,7.3008,7.0771,6.9756,7.0552,7.0898,7.0898,7.0898,7.0898,0.0,0.0,0.0,0.0,0.0,0.0,0.0,0.0,8.7679,9.0373,9.1024,9.2523,9.4214,9.5211,9.4867,9.4792,9.771,9.9018,9.9904,10.0981,10.1904,10.2713,10.3676,10.3789,10.3901,10.4477,10.5097,10.5715,10.66,10.6095,10.6092,10.7482,10.6215,10.5022,10.4674,10.3905,10.3289,10.2981,10.3482,10.3597,10.302,10.6097,10.7905,10.7287,10.9906,11.1522,11.1522,11.0983,11.0483,11.0214,10.8713,10.7521,10.6905,10.4713,10.3482,10.3405,10.3711,10.4326,10.5095,10.602,10.5672,10.4285,10.4021,10.329,10.2213,10.1597,10.1712,10.2328,10.1904,10.2097,10.252,10.1981,10.1597,10.1289,0.0,0.0,0.0,0.0,0.0,0.0,0.0,0.0,0.0,0.0,0.0,0.0,0.0,0.0,0.0,0.0,0.0,0.0,5.9353,6.0065,6.2285,6.6538,6.8359,7.114,7.5118,7.9869,8.3951,8.7414,9.0526,9.1062,8.8983,8.3879,8.0285,7.7907,7.3867,7.1772,7.1283,7.1283,7.1129,7.0898,7.0898,7.0898,0.0,0.0,0.0,0.0,0.0,0.0,0.0,0.0,8.8021,9.0562,9.1367,9.2982,9.4711,9.5251,9.5559,9.6021,9.7479,9.9362,10.1018,10.1596,10.2597,10.3599,10.4176,10.4522,10.4903,10.5403,10.6018,10.671,10.7482,10.6514,0.0,0.0,10.579,10.4713,10.4674,10.3789,10.3328,10.3789,10.3712,10.3597,10.3905,10.5982,10.7405,10.771,10.9786,11.1214,11.1522,11.0714,11.0214,11.0214,10.8213,10.7098,10.679,10.5097,10.4097,10.3905,10.4212,10.4595,10.5095,10.548,10.498,10.3901,10.3597,10.279,10.1712,10.1404,10.1289,10.1289,10.1289,10.1712,10.2097,10.1481,10.1289,10.1289,0.0,0.0,0.0,0.0,0.0,0.0,0.0,0.0,0.0,0.0,0.0,0.0,0.0,0.0,0.0,0.0,0.0,0.0,5.9314,5.9496,6.1411,6.5667,6.7487,6.9977,7.3405,7.924,8.3957,8.7379,8.9944,8.9863,8.7319,8.3912,8.1431,7.966,7.6233,7.4703,7.4588,7.2916,7.1695,7.0937,7.0937,7.0937,7.1014,0.0,0.0,0.0,0.0,0.0,0.0,0.0,8.7281,8.9162,9.1677,9.3059,9.409,9.5749,9.8056,9.9863,9.9011,10.0591,10.2597,10.2585,10.2591,10.3097,10.471,10.4477,10.44,10.6097,10.6399,10.6703,10.7482,10.6976,0.0,10.6407,10.502,10.3903,10.3905,10.2403,10.2019,10.3711,10.3212,10.2981,10.3789,10.5405,10.679,10.7636,10.921,11.0594,11.1406,11.0714,11.0214,11.0214,10.929,10.8482,10.7713,10.7713,10.6405,10.3905,10.4713,10.5097,10.5018,10.4287,10.3903,10.3785,10.2981,10.2597,10.252,10.1712,10.1289,10.1289,10.1289,10.1289,10.1289,10.1289,10.1289,10.1289,0.0,0.0,0.0,0.0,0.0,0.0,0.0,0.0,0.0,0.0,0.0,0.0,0.0,0.0,0.0,0.0,0.0,0.0,5.7692,5.9419,6.1243,6.3152,6.6525,6.9169,7.0774,7.7193,8.2817,8.7386,8.8797,8.8137,8.5593,8.3349,8.1415,7.973,7.7501,7.5511,7.3793,7.3339,7.2954,7.2723,7.2723,7.2377,7.1849,0.0,0.0,0.0,0.0,0.0,0.0,0.0,0.0,0.0,9.1356,9.34,9.5365,9.4674,9.5863,9.7362,9.7095,9.9324,10.1671,10.171,10.398,10.5982,10.5287,10.4903,10.521,10.6982,10.6828,10.6787,10.8293,10.6905,0.0,10.629,10.4482,10.3405,10.4595,10.3788,10.3828,10.552,10.4905,10.4482,10.4674,10.5715,10.6523,10.6787,10.8902,10.9979,10.9713,10.9406,10.929,10.929,10.7905,10.729,10.7713,10.6482,10.5213,10.3905,10.3482,10.3289,10.3405,10.3712,10.3635,10.298,10.2712,10.2597,10.2597,10.2289,10.1904,10.1289,10.1289,10.1289,10.1289,10.1289,10.1289,10.1289,0.0,0.0,0.0,0.0,0.0,0.0,0.0,0.0,0.0,0.0,5.6214,5.6214,0.0,0.0,0.0,0.0,0.0,0.0,5.6977,5.9056,6.0958,6.2512,6.5692,6.8745,7.1621,7.6348,8.0284,8.3389,8.594,8.6049,8.3862,8.3811,8.3086,8.1766,8.076,7.91,7.6908,7.5918,7.511,7.4494,7.4494,7.3773,7.2745,0.0,0.0,0.0,0.0,0.0,0.0,0.0,0.0,0.0,9.0586,9.2556,9.4714,9.433,9.6402,9.8705,9.8364,10.0824,10.3288,10.3328,10.502,10.6521,10.5787,10.5595,10.5864,10.6982,10.679,10.6713,10.7716,10.6713,0.0,10.5366,10.4406,10.3829,10.452,10.4212,10.452,10.6213,10.529,10.4905,10.5597,10.5792,10.6215,10.6902,10.8287,10.9094,10.8906,10.8598,10.8406,10.8406,10.7098,10.6713,10.7213,10.6482,10.5405,10.3905,10.3712,10.3212,10.2597,10.2789,10.2789,10.2635,10.2597,10.2404,10.2096,10.2481,10.2097,10.1289,10.1289,10.1289,10.1289,10.1289,10.1289,10.1289,0.0,0.0,0.0,0.0,0.0,0.0,0.0,0.0,0.0,5.6669,5.6746,5.6708,0.0,0.0,0.0,5.5665,5.5665,5.6032,5.6823,5.8599,6.0696,6.3092,6.5141,6.8847,7.4445,7.6072,7.689,7.7073,8.2082,8.374,8.224,8.4939,8.5762,8.504,8.5074,8.4057,8.2163,7.9768,7.7814,7.6361,7.6284,7.5216,7.3803,7.4533,0.0,0.0,0.0,0.0,0.0,0.0,0.0,0.0,8.9752,9.1216,9.2909,9.4408,9.8364,10.209,10.1325,10.3599,10.6218,10.629,10.5672,10.5403,10.6213,10.6405,10.6405,10.6405,0.0,10.6405,10.6328,10.6328,10.579,10.4175,10.4483,10.4791,10.4097,10.402,10.4595,10.6213,10.5097,10.4713,10.629,10.5713,10.5905,10.7521,10.7713,10.8021,10.8598,10.8098,10.7713,10.7598,10.6713,10.6405,10.6521,10.7098,10.629,10.4097,10.4713,10.4212,10.2597,10.1712,10.1827,10.2597,10.2674,10.2289,10.1594,10.2481,10.2289,10.1404,10.1404,10.1404,10.1289,10.1289,10.1289,10.1289,0.0,0.0,0.0,0.0,0.0,0.0,0.0,0.0,5.4857,5.5865,5.4839,5.4276,5.4951,5.5028,0.0,5.4759,5.5357,5.578,5.5994,5.883,6.1081,6.2298,6.6538,7.0409,7.3678,7.3465,7.3955,7.5253,7.9741,8.1754,8.1439,8.5305,8.6655,8.5846,8.656,8.517,8.2188,8.1029,7.9946,7.8908,7.8223,7.6963,7.5472,7.5677,7.7197,0.0,0.0,0.0,0.0,0.0,0.0,0.0,9.0659,9.2088,9.348,9.3868,9.6674,9.9596,9.9402,10.1825,10.4595,10.521,10.5787,10.6213,10.6405,10.6405,10.6405,10.6405,10.6405,10.6213,10.548,10.5403,10.5095,10.4095,10.398,10.4287,10.4787,10.4828,10.5213,10.629,10.6097,10.602,10.6405,10.6213,10.629,10.6713,10.7328,10.7521,10.7021,10.7405,10.7405,10.6713,10.579,10.5982,10.7405,10.5597,10.5097,10.579,10.4713,10.3597,10.2597,10.1712,10.1789,10.2597,10.3289,10.3482,10.3405,10.4174,10.3674,10.2328,10.2328,10.1904,10.1289,10.1289,10.1289,10.1289,0.0,0.0,0.0,0.0,0.0,0.0,0.0,0.0,5.4626,5.5056,5.3626,5.2909,5.38,5.4244,0.0,0.0,5.5241,5.5703,5.5703,5.8907,6.2082,6.5013,6.8075,7.0525,7.2217,7.2217,7.2437,7.2877,7.6775,7.9292,8.0575,8.52,8.7386,8.7417,8.8675,8.7555,8.4676,8.3413,8.2446,8.1523,8.0677,7.9561,7.8438,7.844,7.9519,8.1154,8.2452,0.0,0.0,0.0,0.0,0.0,0.0,0.0,9.2172,9.3826,9.6442,9.9058,10.0284,10.2207,10.4093,10.4903,10.5787,10.6405,10.6405,10.6405,10.6405,10.6405,10.6405,10.6328,10.5787,10.5674,10.5407,10.4595,10.4787,10.5136,10.5095,10.552,10.5905,10.629,10.6405,10.6405,10.6405,10.6405,10.6405,10.6405,10.6828,10.6905,10.6405,10.679,10.7098,10.7021,10.579,10.5905,10.7713,10.5213,10.4482,10.579,10.4097,10.302,10.2597,10.1712,10.202,10.3212,10.3289,10.3289,10.3289,10.4174,10.3482,10.1981,10.2366,10.2097,10.1289,10.1289,10.1289,10.1289,0.0,0.0,0.0,0.0,0.0,0.0,0.0,0.0,0.0,5.4651,5.3049,5.2239,5.3109,5.3841,5.4284,0.0,0.0,0.0,5.5703,5.8886,6.2891,6.7564,6.869,6.964,7.0475,7.1161,7.1314,7.0898,7.4051,7.7099,8.0131,8.5084,8.7921,8.8989,9.0364,8.9739,8.7512,8.5824,8.4676,8.3939,8.2901,8.2117,8.1522,8.1368,8.1809,8.2631,8.3676,8.5368,8.7089,8.6517,0.0,0.0,0.0,0.0,9.0675,9.3705,9.6361,9.8903,10.1287,10.3017,10.4326,10.5095,10.5864,10.6405,10.6405,10.6405,10.6405,10.6405,10.6405,10.6405,10.6213,10.6292,10.6101,10.5172,10.5787,10.6097,10.5405,10.5905,10.6405,10.6405,10.6405,10.6405,10.6405,10.6405,10.6405,10.6405,10.6405,10.6405,10.6405,10.6521,10.7021,10.7713,10.6213,10.6097,10.7713,10.4982,10.4212,10.529,10.3789,10.3097,10.3212,10.2212,10.2597,10.4097,10.3212,10.2904,10.3097,10.3789,10.3097,10.1597,10.252,10.2212,10.1289,10.1289,10.1289,10.1289,0.0,0.0,0.0,0.0,0.0,0.0,0.0,0.0,0.0,0.0,5.3437,5.2242,5.309,5.3282,5.3358,5.3371,5.4161,5.4951,5.5665,0.0,0.0,6.4971,6.6602,6.7829,6.8729,6.8855,6.9575,7.0898,7.2869,7.63,8.1018,8.5382,8.8256,8.9748,8.9979,8.9479,8.8402,8.6671,8.5863,8.5632,8.4061,8.3362,8.3156,8.2446,8.2682,8.3643,8.5176,8.5978,8.6363,8.7012,8.7781,0.0,0.0,0.0,9.1248,9.2476,9.4631,9.7019,9.8827,10.2097,10.51,10.5982,10.6328,10.6405,10.6405,10.6405,10.6405,10.6405,10.6405,10.6213,10.5403,10.5905,10.6097,10.521,10.5787,10.6405,10.6213,10.629,10.6405,10.6405,10.6405,10.6405,10.6405,10.6405,10.6405,10.6405,10.6405,10.6405,10.6405,10.7098,10.7598,10.7713,10.6713,10.6713,10.7713,10.4405,10.3905,10.6213,10.5213,10.5213,10.579,10.4289,10.4097,10.4905,10.4097,10.4097,10.4789,10.4905,10.3905,10.252,10.3405,10.2712,10.1289,10.1289,10.1289,10.1289,0.0,0.0,0.0,0.0,0.0,0.0,0.0,0.0,0.0,0.0,0.0,5.2239,5.3126,5.3205,5.3378,5.3897,5.428,5.528,5.7054,5.8965,6.1219,6.3762,6.5062,6.632,6.7667,6.8129,6.9217,7.0892,7.3091,7.6785,8.1853,8.5642,8.8521,9.0633,9.0633,9.0171,8.9248,8.7555,8.7094,8.7396,8.5719,8.6137,8.7616,8.5324,8.5863,8.782,8.7627,8.7555,8.756,8.7473,8.8007,8.87,8.8709,0.0,0.0,0.0,9.3592,9.5555,9.8673,10.2327,10.5174,10.5636,10.602,10.6405,10.6405,10.6405,10.6405,10.6405,10.6405,10.6328,10.5864,10.6097,10.6328,10.5864,10.6097,10.6405,10.6405,10.6405,10.6405,10.6405,10.6405,10.6405,10.6405,10.6405,10.6405,10.6405,10.6405,10.6405,10.6405,10.679,10.7213,10.7713,10.5905,10.5597,10.7021,10.3597,10.2712,10.4289,10.4789,10.529,10.5597,10.4905,10.4789,10.5097,10.4212,10.3789,10.3789,10.4713,10.3789,10.202,10.3405,10.2789,10.1289,10.1289,10.1289,10.1289,0.0,0.0,0.0,0.0,0.0,0.0,0.0,0.0,0.0,0.0,0.0,5.2581,5.3447,0.0,0.0,0.0,5.4821,5.5818,5.8171,5.9265,6.0689,6.256,6.3916,6.5086,6.609,6.7218,6.8679,7.0613,7.3159,7.7309,8.3039,8.6252,8.9325,9.2133,9.1479,9.0979,9.0441,8.8556,8.8474,8.9508,8.8021,8.9056,9.127,8.894,8.9594,9.1655,9.0163,8.9517,8.9178,8.8325,8.8474,8.9008,8.9021,8.9563,0.0,0.0,0.0,9.4821,9.8442,10.171,10.4208,10.471,10.5403,10.6097,10.6328,10.6405,10.6405,10.6405,10.6405,10.6405,10.6405,10.6405,10.6405,10.6405,10.6405,10.6405,10.6405,10.6405,10.6405,10.6405,10.6405,10.6405,10.6405,10.6405,10.6405,10.6405,10.6213,10.6213,10.6405,10.6405,10.679,10.7713,10.5905,10.529,10.6097,10.3289,10.2289,10.2981,10.4597,10.5405,10.5405,10.5405,10.529,10.5097,10.4212,10.3482,10.302,10.4289,10.3405,10.152,10.3212,10.2789,10.1289,10.1289,10.1289,10.1289,0.0,0.0,0.0,0.0,0.0,0.0,0.0,0.0,0.0,0.0,0.0,5.3447,5.4353,5.5126,5.5591,5.5615,5.5651,5.6412,5.8174,5.9848,6.0817,6.0896,6.3276,0.0,6.3514,6.5141,6.7268,6.9778,7.2302,7.74,8.4844,8.7445,9.0825,9.4711,9.2287,9.1633,9.221,8.9671,9.0052,9.2199,9.1279,9.1544,9.2503,9.3101,9.3408,9.3474,9.2592,9.1784,9.0941,9.0059,8.9821,8.985,8.9863,9.0406,9.1171,0.0,0.0,0.0,9.7135,9.9516,10.1897,10.3516,10.4593,10.5403,10.6213,10.6405,10.6405,10.6405,10.6405,10.6405,10.6405,10.6405,10.6405,10.6405,10.6405,10.6405,10.6405,10.6405,10.6405,10.6405,10.6405,10.6405,10.6405,10.6405,10.6405,10.6405,10.5597,10.5482,10.6405,10.6405,10.679,10.7713,10.7598,10.679,10.5213,10.4212,10.3789,10.3905,10.552,10.629,10.629,10.629,10.5905,10.5097,10.4212,10.3905,10.3789,10.3905,10.2904,10.152,10.3212,10.2789,10.1289,10.1289,10.1289,10.1289,0.0,0.0,0.0,0.0,0.0,0.0,0.0,0.0,0.0,0.0,0.0,0.0,0.0,5.5549,5.5934,5.6489,5.7516,5.8209,5.8289,6.0381,6.1381,6.08,6.3253,6.447,6.4155,6.5295,6.7693,7.1299,7.3293,7.8177,8.5729,8.8276,9.1441,9.4905,9.2941,9.2479,9.3095,9.0556,9.0668,9.2434,9.1553,9.271,9.4866,9.4024,9.5061,9.6789,0.0,0.0,0.0,9.1825,9.1206,9.0744,9.0748,9.1325,9.2053,9.2053,9.382,9.5973,9.6596,9.9365,10.2367,10.3598,10.4905,10.602,10.6328,10.6405,10.6405,10.6405,10.6405,10.6405,10.6405,10.6405,10.6405,10.6405,10.6405,10.6405,10.6405,10.6405,10.6405,10.6405,10.6405,10.6405,10.6405,10.6405,10.6213,10.5597,10.579,10.579,10.5597,10.6097,10.6521,10.6905,10.629,10.5213,10.3482,10.3789,10.3905,10.3905,10.5597,10.6405,10.6405,10.6405,10.6213,10.5905,10.4982,10.4405,10.3905,10.3905,10.3212,10.2212,10.2789,10.2289,10.1289,10.1289,10.1289,10.1289,0.0,0.0,0.0,0.0,0.0,0.0,0.0,0.0,5.5647,5.6482,0.0,0.0,0.0,0.0,5.7956,5.825,5.9826,6.0426,5.9642,6.1689,6.269,6.2106,6.3974,6.4908,6.4603,6.518,6.7526,7.1775,7.3178,7.7784,8.529,8.7545,9.0594,9.4099,9.2676,9.3136,9.486,9.2556,9.2441,9.3749,9.3438,9.4482,9.629,9.6251,9.7327,9.8673,0.0,0.0,0.0,0.0,9.3782,9.3281,9.2977,9.2938,9.2903,9.2903,9.4321,9.5781,9.5518,9.8324,10.1481,10.2404,10.4328,10.602,10.6328,10.6597,10.679,10.6521,10.6405,10.6405,10.6405,10.6405,10.6405,10.6405,10.6405,10.6405,10.6405,10.6405,10.6405,10.6405,10.6405,10.629,10.602,10.602,10.5597,10.4789,10.4982,10.5097,10.5097,10.5405,10.579,10.6405,10.529,10.4212,10.302,10.3597,10.3905,10.3905,10.5597,10.6405,10.6405,10.6405,10.6405,10.6405,10.579,10.5097,10.4289,10.4289,10.3597,10.2597,10.2904,10.2289,10.1289,10.1289,10.1289,10.1289,0.0,0.0,0.0,0.0,0.0,0.0,5.8368,5.7653,5.7439,5.8308,0.0,0.0,0.0,0.0,0.0,6.0997,6.2406,6.3045,6.2252,6.38,6.4701,6.4718,6.5513,6.559,6.468,6.468,6.6731,7.0902,7.19,7.6209,8.3618,8.5395,8.8444,9.2486,9.1643,9.3561,9.7315,9.563,9.5405,9.6367,0.0,9.6979,9.6711,10.0019,10.0288,0.0,9.8942,9.8404,0.0,9.7591,0.0,9.7354,9.6509,9.5132,9.3791,9.3753,9.4364,9.486,0.0,0.0,0.0,9.99,10.2591,10.5287,10.6213,10.6982,10.7408,10.6597,10.6405,10.6405,10.6405,10.6405,10.6405,10.6405,10.6405,10.6405,10.6405,10.6405,10.6405,10.6405,10.6405,10.602,10.5213,10.5097,10.4713,10.3905,10.3097,10.3289,10.4905,10.4289,10.4713,10.629,10.4789,10.3905,10.3905,10.3905,10.3905,10.3905,10.5597,10.6405,10.6405,10.6405,10.6405,10.6405,10.6405,10.5905,10.5097,10.5097,10.4097,10.2712,10.3482,10.2789,10.1289,10.1289,10.1289,10.1289,0.0,0.0,0.0,0.0,0.0,6.0111,6.0111,5.9919,6.0073,0.0,0.0,0.0,6.1349,6.2334,6.3128,6.3526,6.4547,6.5072,6.4883,6.6436,6.7359,6.7372,6.7564,6.7295,6.6423,6.6423,6.7884,7.0922,7.4263,7.8515,8.3657,8.6621,8.9662,9.2738,9.313,9.3939,9.4933,9.3056,0.0,9.6288,9.5861,9.6628,0.0,0.0,0.0,0.0,0.0,10.152,0.0,0.0,9.8635,9.6482,9.5635,9.548,9.5443,9.4828,9.5288,9.5749,9.4866,0.0,0.0,0.0,0.0,0.0,10.5319,10.5592,10.5864,10.6328,10.6405,10.6405,10.6405,10.6405,10.6405,10.6405,10.6405,10.6405,10.6405,10.6405,10.6405,10.6405,10.579,10.5405,10.5097,10.4597,10.3905,10.302,10.3289,10.3482,10.3289,10.4212,10.529,10.6405,10.4789,10.3905,10.3905,10.3905,10.3905,10.3905,10.5597,10.6405,10.6405,10.6405,10.6405,10.6405,10.6405,10.629,10.602,10.5405,10.4482,10.3482,10.3097,10.2289,10.1289,10.1289,10.1289,10.1289,0.0,0.0,6.1805,6.1651,6.2344,6.3051,6.3383,6.3421,6.3614,0.0,0.0,0.0,6.468,6.641,6.7333,6.6795,6.7512,6.8115,6.8501,6.9113,6.9624,6.9975,6.9655,6.9066,6.8206,6.7834,6.8732,7.0927,7.4447,7.8391,8.2611,8.6022,8.9051,9.1616,9.2093,9.2777,9.333,9.1848,0.0,0.0,9.69,0.0,0.0,10.1596,10.2174,0.0,0.0,0.0,10.1479,10.2672,10.0979,0.0,0.0,9.7248,9.6634,9.5789,9.6404,9.7058,9.5866,9.7747,10.0092,10.0096,0.0,0.0,10.5403,10.5903,10.6328,10.679,10.6905,10.679,10.6521,10.6405,10.6405,10.6405,10.6405,10.6405,10.6405,10.6405,10.6405,10.6405,10.602,10.5482,10.5097,10.4405,10.3482,10.2712,10.2712,10.2789,10.2597,10.4212,10.529,10.579,10.4597,10.4097,10.4405,10.4097,10.4097,10.4405,10.579,10.6405,10.6405,10.6405,10.6405,10.6405,10.6405,10.6405,10.6405,10.5905,10.4982,10.3789,10.3289,10.2404,10.1289,10.1289,10.1289,10.1289,0.0,0.0,6.4008,6.4879,6.5755,6.6628,6.7539,6.777,6.7847,0.0,6.8025,6.846,6.9425,7.2095,7.2877,7.0602,7.1029,7.1787,7.2542,7.1968,7.1939,7.2592,7.1871,7.1002,6.9977,6.9323,6.9605,7.0898,7.3814,7.7203,8.1026,8.4583,8.7526,8.9816,8.9934,9.0849,9.2268,9.1848,0.0,9.6515,9.8788,9.9904,0.0,0.0,10.2788,0.0,10.3283,10.2976,10.2092,10.4484,10.3904,0.0,0.0,0.0,9.7825,9.6865,9.7712,9.8634,9.702,9.8364,10.0211,10.0096,10.1981,0.0,10.5794,10.6794,10.7482,10.7675,10.7716,10.7523,10.6713,10.6597,10.6597,10.6405,10.6521,10.6521,10.6405,10.6405,10.6405,10.6405,10.629,10.602,10.5213,10.4405,10.3482,10.2712,10.1789,10.1712,10.2597,10.3982,10.4905,10.5097,10.4212,10.4212,10.5097,10.4289,10.4289,10.5097,10.602,10.6405,10.6405,10.6405,10.6405,10.6405,10.6405,10.6405,10.6405,10.6405,10.5482,10.3982,10.3905,10.2904,10.1404,10.1289,10.1289,10.1289,6.5397,6.5923,6.664,6.7512,6.8385,6.9459,7.0969,7.1804,7.2486,7.3135,7.3856,7.4851,7.6363,7.5928,7.5292,7.4822,7.4918,7.5071,7.5245,7.5745,7.5822,7.5255,7.5091,7.3947,7.1766,7.2234,7.1992,7.0898,7.6209,7.9254,8.0174,8.4916,8.7868,8.9213,9.0063,9.0628,9.1136,9.3743,0.0,9.6557,9.6905,0.0,10.117,10.2401,10.2591,10.2515,10.3516,10.4093,10.4407,0.0,10.43,10.3712,0.0,0.0,0.0,9.8865,9.9212,9.9904,9.8634,9.9673,10.0903,10.0288,0.0,0.0,0.0,10.498,10.6011,10.7399,10.7671,10.76,10.7523,10.7985,10.7985,10.6597,10.6982,10.7175,10.6521,10.6405,10.6405,10.6405,10.579,10.529,10.5097,10.4405,10.3482,10.2712,10.1789,10.1712,10.2597,10.2904,10.3712,10.5097,10.3597,10.3597,10.5097,10.4289,10.4289,10.5097,10.602,10.6405,10.6405,10.6405,10.6405,10.6405,10.6405,10.6405,10.6405,10.6405,10.579,10.4789,10.4174,10.3289,10.2289,10.1597,10.1289,10.1289,6.7064,6.7487,6.8282,6.999,7.136,7.3034,7.558,7.6378,7.71,7.8344,7.9614,8.0131,7.9248,7.9915,7.9931,7.8631,7.8531,7.8685,7.9092,7.9199,7.8977,7.8554,7.8536,7.7545,7.5387,7.5774,7.5379,7.4081,7.8762,8.1497,8.2429,8.6675,8.9825,9.1976,9.1322,9.201,9.3633,9.4071,9.5424,9.7402,9.8865,0.0,10.2711,10.402,10.4482,10.4597,10.5022,10.5597,10.6022,10.5183,10.4607,0.0,0.0,10.2406,10.1789,0.0,10.098,10.2097,10.048,10.1288,10.252,10.2096,0.0,0.0,0.0,0.0,10.5823,10.7402,10.7787,10.7902,10.771,10.7713,10.7482,10.7098,10.7405,10.7482,10.7098,10.6713,10.6405,10.6405,10.602,10.5713,10.5713,10.4982,10.3982,10.2712,10.1789,10.152,10.1904,10.2789,10.3597,10.4482,10.4097,10.4482,10.5713,10.4905,10.4905,10.579,10.6213,10.6405,10.6405,10.6405,10.6405,10.6405,10.6405,10.6405,10.6405,10.6405,10.6097,10.5597,10.4405,10.3405,10.252,10.1597,10.1289,10.1289,6.8767,6.9036,6.9794,7.1849,7.3716,7.5955,7.8846,7.9845,8.0953,8.2785,8.4561,8.4643,8.2045,8.422,8.5016,8.2971,8.2663,8.2778,8.324,8.2701,8.2285,8.2285,8.2147,8.1385,7.9992,7.9661,7.8998,7.8045,8.1239,8.3439,8.472,8.8248,9.136,9.3971,9.2823,9.3785,9.6097,0.0,0.0,9.8709,0.0,10.2982,10.3599,10.5177,10.5793,10.5909,10.6218,10.6602,10.6909,10.6012,10.5117,10.4414,10.4492,10.3815,0.0,0.0,0.0,0.0,0.0,0.0,0.0,0.0,0.0,10.3829,0.0,0.0,0.0,0.0,10.7798,10.8014,10.7894,10.7518,10.7213,10.7402,10.7675,10.779,10.7287,10.671,10.6479,10.679,10.6597,10.6521,10.6597,10.5713,10.452,10.3212,10.2097,10.1597,10.1597,10.2712,10.3597,10.3905,10.4212,10.4905,10.6097,10.529,10.529,10.6213,10.629,10.6405,10.6405,10.6405,10.6405,10.6405,10.6405,10.6405,10.6405,10.6405,10.6405,10.6213,10.4597,10.3482,10.2712,10.1712,10.1289,10.1289,7.0629,7.1245,7.1849,7.2157,7.4226,7.6216,7.7418,8.0102,8.2898,8.5382,8.7183,8.841,8.8717,8.909,8.9234,8.8925,8.8238,0.0,8.6858,8.6742,8.6665,8.6665,8.5934,8.544,8.5247,8.3779,8.2271,8.0669,8.3292,8.4324,8.3849,8.7974,9.009,9.0625,9.3894,9.5118,9.4943,0.0,9.9604,0.0,10.2521,10.279,0.0,10.3018,10.3478,10.3901,10.5405,10.6213,10.6485,0.0,10.6289,10.6093,0.0,10.4918,10.5582,10.2483,0.0,0.0,0.0,0.0,0.0,0.0,10.4905,0.0,0.0,0.0,10.5426,10.6393,0.0,0.0,0.0,0.0,0.0,10.6905,10.7793,10.7982,10.57,10.6007,10.6972,10.8406,10.729,10.6713,10.7521,10.6095,10.498,10.4789,10.3289,10.252,10.252,10.1904,10.2289,10.3905,10.252,10.2904,10.5213,10.4405,10.4405,10.529,10.602,10.6405,10.6405,10.6405,10.6405,10.6405,10.6405,10.6405,10.6405,10.6405,10.6405,10.6213,10.4597,10.3789,10.3597,10.1904,10.1289,10.1289,7.2073,7.2437,7.2954,7.307,7.4658,7.713,8.0453,8.5483,8.894,8.9025,9.0979,9.2095,9.1485,9.1521,9.1595,9.1595,0.0,9.0905,0.0,0.0,8.9517,8.8902,8.807,8.7612,8.7637,8.6445,8.5445,8.478,8.6357,8.7166,8.7286,8.9056,9.1245,9.3662,9.4625,9.6472,9.8992,0.0,10.1117,0.0,0.0,0.0,0.0,10.4828,10.5473,10.5685,10.6386,10.6815,10.7114,0.0,10.6601,0.0,0.0,0.0,0.0,10.4597,0.0,0.0,0.0,0.0,0.0,0.0,0.0,0.0,10.5601,0.0,10.6292,0.0,0.0,0.0,0.0,0.0,0.0,0.0,10.8411,10.8413,0.0,0.0,10.721,10.7405,10.6787,10.6479,10.6905,10.6328,10.5595,10.5095,10.402,10.3097,10.2597,10.2289,10.2597,10.3905,10.3597,10.4289,10.579,10.552,10.552,10.5905,10.6213,10.6405,10.6405,10.6405,10.6405,10.6405,10.6405,10.6405,10.6405,10.6405,10.6405,10.629,10.5097,10.4289,10.3789,10.252,10.1712,10.1289,7.359,7.3591,7.3674,7.3108,7.4472,7.7439,8.2785,8.8353,9.178,9.1254,9.3403,9.4554,9.333,9.3983,0.0,0.0,9.4497,9.4419,0.0,0.0,9.2592,9.2438,9.0722,0.0,0.0,8.9217,8.8294,8.8094,8.8512,8.9094,8.9906,8.9906,9.1707,9.493,9.5357,9.7587,10.1094,0.0,10.2592,10.3598,10.3901,10.4393,10.508,10.6485,10.7204,10.7383,10.7383,10.75,10.7695,10.7383,10.6719,0.0,10.7695,10.6914,10.539,0.0,0.0,0.0,10.5716,0.0,0.0,0.0,0.0,0.0,0.0,0.0,0.0,0.0,0.0,0.0,0.0,0.0,10.7779,10.8321,0.0,10.7912,0.0,10.6713,0.0,0.0,0.0,0.0,10.6405,10.6213,10.5903,10.5518,10.448,10.3597,10.2981,10.2712,10.2981,10.3905,10.4212,10.4905,10.602,10.579,10.579,10.602,10.602,10.6213,10.6405,10.6405,10.6405,10.6405,10.6405,10.6405,10.6405,10.6405,10.6405,10.629,10.5713,10.4982,10.4097,10.2981,10.2212,10.1597,7.5365,7.4909,7.3944,7.1695,7.3185,7.6736,8.2702,8.5884,8.8457,9.0877,0.0,0.0,0.0,0.0,0.0,0.0,0.0,9.867,9.6951,0.0,9.6355,0.0,0.0,0.0,0.0,9.2784,9.0636,8.9829,8.9063,8.9102,8.9906,8.9906,9.0437,9.1539,9.613,9.8264,9.8672,10.25,10.49,10.6103,10.5597,10.6404,10.7811,0.0,10.7186,10.8008,10.8008,0.0,0.0,10.6992,10.6719,10.6484,10.5781,10.6719,10.7695,10.6719,10.8085,10.9792,10.8393,10.9219,11.0102,10.8075,0.0,0.0,0.0,0.0,10.5403,0.0,0.0,0.0,0.0,10.7902,10.751,10.701,10.6591,0.0,0.0,0.0,0.0,0.0,0.0,0.0,0.0,10.5595,10.5518,10.6284,10.4785,10.3903,10.3905,10.3097,10.2981,10.3905,10.3097,10.3482,10.5097,10.4405,10.4405,10.5097,10.5097,10.5597,10.6405,10.6405,10.6405,10.6405,10.6405,10.6405,10.6405,10.6405,10.6405,10.6405,10.6405,10.579,10.4905,10.3212,10.2597,10.2404,7.8469,7.8237,7.7323,7.4252,7.4742,7.7795,8.4489,8.994,0.0,0.0,0.0,0.0,0.0,0.0,9.884,0.0,0.0,9.9765,9.9023,9.8494,0.0,0.0,0.0,9.5444,0.0,0.0,9.2438,9.1595,9.0787,9.0479,9.074,9.0171,9.0671,9.2203,9.5858,9.8442,0.0,0.0,0.0,0.0,0.0,10.7695,10.9609,0.0,10.7695,10.8008,10.8008,10.8008,10.8008,10.7695,10.7187,10.6914,10.7695,10.7187,10.6601,10.789,10.8515,10.8707,10.8703,11.008,11.1333,10.9321,10.9521,0.0,0.0,0.0,0.0,0.0,0.0,0.0,0.0,10.831,10.7986,10.8184,10.7213,10.6174,0.0,0.0,0.0,0.0,0.0,0.0,0.0,0.0,0.0,10.7179,10.6174,10.5595,10.5597,10.4212,10.3789,10.4713,10.4405,10.4789,10.5905,10.5097,10.5097,10.602,10.5405,10.5597,10.6405,10.6405,10.6405,10.6405,10.6405,10.6405,10.6405,10.6405,10.6405,10.6405,10.6405,10.6213,10.579,10.4097,10.3097,10.252,8.0828,8.0538,7.9605,7.6563,7.7593,8.0761,0.0,0.0,0.0,0.0,9.8902,0.0,9.8505,0.0,9.9986,0.0,10.0703,10.1015,10.0586,10.0312,0.0,9.9548,9.8212,0.0,0.0,0.0,9.4359,9.3551,9.1976,9.1206,9.1198,9.0633,9.1133,9.263,9.6009,9.8775,10.1094,10.4687,10.6601,0.0,0.0,10.8203,0.0,0.0,10.8398,10.8789,10.8203,10.8008,10.8008,10.8008,10.7617,10.7383,10.8515,10.789,10.7187,10.8789,10.9297,10.9492,10.9687,11.0993,11.1894,11.0418,11.0483,11.0605,10.9098,0.0,10.9213,0.0,0.0,0.0,0.0,10.8727,10.8395,10.8685,10.7292,10.5792,0.0,10.46,0.0,0.0,0.0,0.0,0.0,0.0,0.0,0.0,0.0,0.0,0.0,10.4905,10.4597,10.5097,10.5097,10.5482,10.6405,10.529,10.529,10.6405,10.5213,10.529,10.6405,10.6405,10.6405,10.6405,10.6405,10.6405,10.6405,10.6405,10.6405,10.6405,10.6405,10.6213,10.579,10.4405,10.3212,10.2097,8.2593,8.2015,8.1085,7.8883,8.1655,8.5382,0.0,0.0,9.5495,0.0,9.9058,9.9619,9.9327,10.1211,10.1797,10.0117,10.1797,0.0,10.1719,10.1484,0.0,0.0,10.0672,10.0094,10.0864,0.0,0.0,0.0,9.2669,9.1287,9.1325,9.1248,9.1672,9.2669,9.6509,9.9203,10.1094,10.4219,10.6484,10.8008,10.8008,10.8086,10.8086,10.8008,10.9101,11.039,10.8593,10.8008,10.8008,10.8008,10.8008,10.8008,10.8008,10.8593,10.9218,10.9297,11.0508,11.1718,11.1484,11.1797,11.1986,11.13,11.0602,11.0182,11.0521,10.9213,10.8367,0.0,0.0,0.0,0.0,0.0,10.8485,10.8485,10.6871,10.46,10.1789,0.0,0.0,0.0,0.0,0.0,0.0,0.0,0.0,0.0,0.0,0.0,0.0,10.5174,10.5174,10.5174,10.5174,10.5482,10.629,10.4713,10.4713,10.629,10.4713,10.4789,10.6405,10.6405,10.6405,10.6405,10.6405,10.6405,10.6405,10.6405,10.6405,10.6405,10.6405,10.579,10.4905,10.4097,10.2789,10.1289,8.6417,8.6728,8.7179,8.6846,8.7346,8.8931,0.0,0.0,0.0,0.0,10.1193,10.1507,10.0811,10.1406,10.1719,10.1211,10.2187,0.0,0.0,0.0,0.0,10.248,10.1807,10.13,10.0792,9.888,0.0,9.7554,9.4093,9.2707,9.332,9.1864,9.1675,9.2638,9.5901,9.8652,10.1094,10.4219,10.6484,10.8008,10.8008,10.8789,10.9804,10.8515,10.9101,11.039,10.8593,10.8008,10.8008,10.8008,10.8008,10.8008,10.8008,10.8203,10.8515,10.9101,10.9609,11.0117,11.0703,11.0781,11.0815,11.13,11.0601,11.0005,11.0497,11.0171,10.979,10.9717,10.9786,0.0,0.0,0.0,0.0,10.9104,10.7063,10.4792,0.0,0.0,0.0,0.0,0.0,0.0,0.0,0.0,0.0,0.0,0.0,0.0,0.0,0.0,10.6097,10.6097,10.6097,10.5905,10.5405,10.4405,10.4405,10.5405,10.4405,10.4789,10.6405,10.6405,10.6405,10.6405,10.6405,10.6405,10.6405,10.6405,10.6405,10.6405,10.6405,10.552,10.4097,10.3212,10.2212,10.1289,8.9336,8.9873,9.0807,9.1934,9.2018,0.0,9.5727,0.0,0.0,10.1601,10.2608,0.0,10.2419,10.289,10.3281,10.3281,10.3789,0.0,0.0,0.0,0.0,10.3789,10.3984,10.3711,10.289,10.1406,0.0,9.9034,0.0,9.4472,9.4051,9.2977,9.2864,9.3749,9.7171,9.9507,10.1094,10.4609,10.6797,10.8008,10.8008,10.8593,0.0,10.8398,10.8593,10.9297,10.8398,10.8008,10.8008,10.8008,10.8008,10.8008,10.8008,10.8008,10.8086,10.8593,10.8984,10.9414,10.9883,11.0117,11.0299,11.0984,11.0407,10.9788,11.0302,10.9896,10.9675,11.0217,11.0109,11.0195,11.1093,0.0,0.0,0.0,0.0,0.0,0.0,0.0,0.0,0.0,0.0,0.0,0.0,0.0,0.0,0.0,0.0,0.0,0.0,0.0,10.602,10.6405,10.6405,10.6213,10.5713,10.4789,10.4789,10.5713,10.4789,10.5097,10.6405,10.6405,10.6405,10.6405,10.6405,10.6405,10.6405,10.6405,10.6405,10.629,10.5597,10.4713,10.3789,10.2904,10.202,10.1404,9.2109,9.2346,9.3172,9.5097,9.5983,0.0,0.0,10.0508,0.0,10.2617,0.0,10.4297,10.3984,10.4883,10.5508,10.5508,0.0,10.5586,10.5508,10.6289,10.6289,10.5508,10.6211,10.6211,10.5508,10.4414,0.0,0.0,0.0,9.6207,9.4304,9.4116,9.4321,9.4975,9.8862,10.0889,10.1719,10.5312,10.7304,10.8008,10.8008,10.8008,10.8008,10.8008,10.8008,10.8008,10.8008,10.8008,10.8008,10.8008,10.8008,10.8008,10.8008,10.8008,10.8008,10.8008,10.8515,10.9101,10.9101,10.9492,11.0,11.0312,10.9883,10.9609,11.0117,10.9212,10.8799,11.0871,10.9882,10.9588,11.2499,11.1797,0.0,0.0,0.0,0.0,0.0,0.0,0.0,0.0,0.0,0.0,0.0,0.0,0.0,0.0,0.0,0.0,0.0,0.0,10.5597,10.6405,10.6405,10.629,10.6213,10.5482,10.5482,10.6213,10.5482,10.5597,10.6405,10.6405,10.6405,10.6405,10.6405,10.6405,10.6405,10.6405,10.6405,10.6213,10.4597,10.3982,10.3905,10.2981,10.2212,10.1712,9.6367,0.0,0.0,0.0,0.0,10.0295,10.1586,10.2304,10.3008,10.3789,10.4687,10.5312,10.5195,10.539,10.5508,10.5508,10.6093,0.0,0.0,0.0,0.0,10.5508,10.5586,10.5586,10.5508,10.4609,10.3594,0.0,0.0,9.7181,9.5495,9.4303,9.3828,9.4097,9.7325,10.1006,10.4804,10.6914,10.789,10.8008,10.8008,10.8008,10.8008,10.8008,10.8008,10.8008,10.8008,10.8008,10.8008,10.8008,10.8008,10.8008,10.8008,10.8008,10.8008,10.8008,10.8086,10.8203,10.8203,10.8281,10.8593,10.9297,10.8906,10.8593,10.9883,10.9518,10.9107,11.0189,11.0073,11.0429,11.1897,11.1718,0.0,0.0,0.0,0.0,0.0,0.0,0.0,0.0,0.0,0.0,0.0,0.0,0.0,0.0,0.0,0.0,0.0,0.0,10.6213,0.0,10.6405,10.6097,10.529,10.5213,10.5213,10.529,10.5213,10.5597,10.6405,10.6405,10.6405,10.6405,10.6405,10.6405,10.6405,10.6405,10.6405,10.6213,10.4597,10.4289,10.4713,10.3212,10.2981,10.3482,0.0,0.0,0.0,0.0,0.0,0.0,0.0,10.3086,10.3906,10.4804,10.5586,10.6093,10.6093,10.6484,10.6797,10.6797,10.7187,10.7187,10.6797,10.7187,10.7187,10.6797,10.6797,0.0,10.5508,10.5898,10.4883,10.2187,0.0,9.8782,9.6391,9.5301,9.4864,9.5211,9.8706,10.241,10.6211,10.6992,10.7617,10.8008,10.8008,10.8008,10.8008,10.8008,10.8008,10.8008,10.8008,10.8008,10.8008,10.8008,10.8008,10.8008,10.8008,10.8008,10.8008,10.8008,10.8008,10.8008,10.8008,10.8008,10.8086,10.8515,10.8281,10.8203,10.8906,10.8593,10.8496,10.949,10.9598,10.993,11.0989,11.0781,0.0,0.0,0.0,0.0,0.0,0.0,0.0,0.0,0.0,0.0,0.0,0.0,0.0,0.0,0.0,0.0,0.0,0.0,10.5213,0.0,0.0,0.0,10.579,10.529,10.529,10.579,10.529,10.5597,10.6405,10.6405,10.6405,10.6405,10.6405,10.6405,10.6405,10.6405,10.6405,10.6213,10.4597,10.4405,10.4982,10.3712,10.3789,10.4482,0.0,10.0293,0.0,0.0,10.1774,0.0,10.2686,10.3594,10.4414,10.5117,10.6093,10.6719,10.6719,10.75,10.8008,10.8008,10.8008,10.8008,10.8008,10.8008,10.789,10.7695,10.7695,10.7109,10.5781,10.6992,10.6015,0.0,0.0,10.0385,9.7285,9.6512,9.6553,9.7439,10.0888,10.3906,10.6484,10.6797,10.7304,10.7695,10.789,10.8008,10.8008,10.8008,10.8008,10.8008,10.8008,10.8008,10.8008,10.8008,10.8008,10.8008,10.8008,10.8008,10.8008,10.8008,10.8008,10.8008,10.8008,10.8008,10.8008,10.8008,10.8008,10.8008,10.8008,10.7812,10.7892,10.8772,10.8995,10.9216,10.9905,10.9883,10.9687,0.0,0.0,0.0,0.0,0.0,0.0,0.0,0.0,0.0,0.0,0.0,0.0,0.0,0.0,0.0,10.579,0.0,0.0,0.0,0.0,10.6097,10.6097,10.5597,10.5597,10.6097,10.5597,10.5713,10.6405,10.6405,10.6405,10.6405,10.6405,10.6405,10.6405,10.6405,10.6405,10.6213,10.4597,10.4482,10.529,10.4289,10.4482,10.5405,0.0,0.0,0.0,0.0,0.0,10.2803,10.3906,10.4101,10.4219,10.4297,10.5703,10.6719,10.6719,10.75,10.8008,10.8008,10.8008,10.8008,10.8008,10.8008,10.7617,10.6914,10.6797,10.6719,10.6601,10.6719,10.6289,0.0,0.0,10.1684,9.8163,9.7855,9.8669,10.0596,10.2398,10.4101,10.5703,10.7187,10.75,10.6914,10.7695,10.8008,10.8008,10.8008,10.8008,10.8008,10.8008,10.8008,10.8008,10.8008,10.8008,10.8008,10.8008,10.8008,10.8008,10.8008,10.8008,10.8008,10.8008,10.8008,10.8008,10.8008,10.8008,10.8008,10.8008,10.8008,10.8007,10.8115,10.8698,10.9092,10.8398,11.0117,11.0898,0.0,0.0,0.0,0.0,0.0,0.0,0.0,0.0,0.0,0.0,0.0,0.0,0.0,10.3098,0.0,0.0,0.0,0.0,10.6521,0.0,10.5213,10.5213,10.5905,10.5905,10.5213,10.5905,10.629,10.6405,10.6405,10.6405,10.6405,10.6405,10.6405,10.6405,10.6405,10.6405,10.6213,10.4597,10.4905,10.6097,10.4482,10.4905,10.629,0.0,0.0,0.0,0.0,0.0,0.0,0.0,10.3398,10.3398,10.3398,10.5312,10.6914,10.7383,10.7812,10.8008,10.8008,10.8008,10.8008,10.8008,10.75,10.7109,10.6719,10.6211,10.5703,10.5195,10.6211,10.6015,0.0,0.0,10.3219,10.0096,10.0289,10.1096,10.2482,10.4193,10.539,10.6289,10.75,10.7812,10.75,10.789,10.8008,10.8008,10.8008,10.8008,10.8008,10.8008,10.8008,10.8008,10.8008,10.8008,10.8008,10.8008,10.8008,10.8008,10.8008,10.8008,10.8008,10.8008,10.8008,10.8008,10.8008,10.8008,10.8008,10.8008,10.8008,10.8008,10.8008,10.8281,10.8593,10.8711,10.9609,11.0195,10.9609,0.0,0.0,0.0,0.0,0.0,0.0,0.0,0.0,0.0,0.0,0.0,0.0,0.0,0.0,0.0,0.0,0.0,10.5597,0.0,10.5405,10.4405,10.4713,10.4982,10.5097,10.4982,10.5405,10.6405,10.6405,10.6405,10.6405,10.6405,10.6405,10.6405,10.6405,10.6405,10.6213,10.4597,10.4905,10.6213,10.4482,10.4982,10.6405,10.4883,0.0,10.4687,0.0,10.4219,10.3711,10.3281,10.3086,10.3008,10.3203,10.4804,10.6289,10.7187,10.75,10.7695,10.8008,10.7812,10.7617,10.7617,10.6797,10.6211,10.6015,10.539,0.0,10.4219,10.5586,10.5898,10.4883,10.5586,10.4705,10.2427,10.2404,10.2786,10.3599,10.4895,10.5703,10.6015,10.7109,10.75,10.7304,10.7812,10.8008,10.8008,10.8008,10.8008,10.8008,10.8008,10.8008,10.8008,10.8008,10.8008,10.8008,10.8008,10.8008,10.8008,10.8008,10.8008,10.8008,10.8008,10.8008,10.8008,10.8008,10.8008,10.8008,10.8008,10.8008,10.8008,10.8008,10.8008,10.8203,10.8789,10.9101,10.9492,11.0117,11.0586,0.0,0.0,11.0586,0.0,0.0,10.8789,10.8307,10.721,0.0,0.0,0.0,0.0,0.0,0.0,0.0,0.0,0.0,0.0,0.0,10.3905,10.4097,10.4405,10.4713,10.4405,10.4982,10.6405,10.6405,10.6405,10.6405,10.6405,10.6405,10.6405,10.6405,10.6405,10.629,10.4789,10.5097,10.6213,10.4789,10.5213,10.6405,10.3984,10.3515,10.3515,10.5195,10.4101,10.3203,10.4101,10.3515,10.3203,10.4101,10.4219,10.4609,10.539,10.6211,10.7109,10.789,10.7187,10.6719,10.6719,10.6015,10.5117,10.4297,10.4219,10.4219,10.4219,10.5117,10.5898,10.6719,10.6719,10.6093,10.4999,10.3608,10.3283,10.3789,10.4415,10.4492,10.4297,10.6015,10.6289,10.5703,10.7304,10.8008,10.8008,10.8008,10.8008,10.8008,10.8008,10.8008,10.8008,10.8008,10.8008,10.8008,10.8008,10.8008,10.8008,10.8008,10.8008,10.8008,10.8008,10.8008,10.8008,10.8008,10.8008,10.8008,10.8008,10.8008,10.8008,10.8008,10.8008,10.8008,10.8008,10.8711,10.9297,10.9297,11.0781,11.1601,0.0,11.0586,0.0,10.8203,10.5781,10.5312,10.7695,0.0,0.0,0.0,0.0,0.0,0.0,0.0,0.0,10.629,10.5597,0.0,10.3905,10.4713,10.4713,10.3905,10.4713,10.5482,10.6405,10.6405,10.6405,10.6405,10.6405,10.6405,10.6405,10.6405,10.6405,10.629,10.5405,10.5597,10.629,10.5405,10.5597,10.6405,10.5,10.4883,10.4687,10.4609,10.4219,10.3711,10.3398,10.3086,10.3008,10.3281,10.3281,10.3906,10.5312,10.6211,10.7109,10.789,10.7187,10.6719,10.6719,10.539,10.4492,10.4219,10.4219,10.4219,10.4219,10.5586,10.6406,10.6719,10.7304,10.7304,10.6797,10.5699,10.5288,10.552,10.5712,10.5512,10.5195,10.6211,10.6601,10.6406,10.75,10.8008,10.8008,10.8008,10.8008,10.8008,10.8008,10.8008,10.8008,10.8008,10.8008,10.8008,10.8008,10.8008,10.8008,10.8008,10.8008,10.8008,10.8008,10.8008,10.8008,10.8008,10.8008,10.8008,10.8008,10.8008,10.8008,10.8008,10.8008,10.8008,10.8008,10.8711,10.9297,10.9297,11.0312,11.0898,11.0586,11.0586,11.0195,10.8984,10.8711,10.8398,10.8008,10.6394,0.0,0.0,0.0,0.0,0.0,0.0,0.0,0.0,10.4597,0.0,10.2097,10.3597,10.4212,10.3905,10.4212,10.4405,10.4713,10.529,10.5482,10.5482,10.6097,10.6405,10.6405,10.6405,10.6405,10.629,10.5405,10.5597,10.629,10.5405,10.5713,10.6405,10.4883,10.4687,10.4492,10.4219,10.3906,10.3515,10.3008,10.289,10.289,10.289,10.289,10.3594,10.5312,10.5898,10.6601,10.7383,10.6719,10.6093,10.5781,10.4492,10.3711,10.3711,10.3711,10.3906,10.4219,10.5508,10.6211,10.6211,10.6797,10.7304,10.7695,10.6406,10.5895,10.602,10.5906,10.5515,10.5117,10.6211,10.6719,10.6797,10.7617,10.7812,10.75,10.789,10.7812,10.7617,10.789,10.8008,10.8008,10.8008,10.8008,10.8008,10.8008,10.8008,10.8008,10.8008,10.8008,10.8008,10.8008,10.8008,10.8008,10.8008,10.8008,10.8008,10.8008,10.8008,10.8008,10.8008,10.8008,10.8008,10.8008,10.8398,10.8906,10.9218,10.9804,11.0117,11.0117,11.0117,10.9687,10.8515,10.8789,10.8711,0.0,10.7187,10.6805,0.0,0.0,0.0,0.0,0.0,0.0,10.3597,10.4289,10.3712,10.1789,10.3212,10.3905,10.3905,10.4212,10.4405,10.4405,10.4905,10.529,10.5597,10.6213,10.6405,10.6405,10.6405,10.6405,10.629,10.579,10.5905,10.629,10.579,10.5905,10.6405,10.3984,10.3515,10.3203,10.3984,10.3398,10.289,10.289,10.289,10.289,10.289,10.289,10.3594,10.5312,10.5508,10.5781,10.6601,10.5898,10.5117,10.4297,10.3398,10.289,10.289,10.3008,10.3398,10.4219,10.5117,10.5586,10.5703,10.5586,10.6289,10.789,10.6015,10.5195,10.5389,10.5113,10.4697,10.4297,10.5898,10.6601,10.6797,10.7617,10.75,10.6797,10.7617,10.7383,10.6719,10.7617,10.789,10.789,10.8008,10.8008,10.8008,10.8008,10.8008,10.8008,10.8008,10.8008,10.8008,10.8008,10.8008,10.8008,10.8008,10.8008,10.8008,10.8008,10.8008,10.8008,10.8008,10.8008,10.8008,10.8008,10.8008,10.8281,10.9101,10.9218,10.9218,10.9218,10.9218,10.8593,10.6992,10.6797,10.6797,10.6797,10.75,10.7781,0.0,0.0,0.0,0.0,0.0,10.3289,10.4982,10.4212,10.3405,10.252,10.3405,10.3905,10.3982,10.4713,10.5097,10.4982,10.5097,10.5482,10.629,10.6405,10.6405,10.6405,10.6405,10.6405,10.6405,10.6405,10.6405,10.6405,10.6405,10.6405,10.6405,10.3203,10.3008,10.3008,10.3203,10.3008,10.289,10.289,10.289,10.289,10.289,10.289,10.3594,10.5312,10.5508,10.5586,10.5781,10.5586,10.5117,10.4297,10.3398,10.289,10.289,10.3515,10.3984,10.4219,10.5703,10.6719,10.7383,10.6093,10.6015,10.6992,10.5898,10.5117,10.4492,10.4404,10.43,10.4297,10.5312,10.6093,10.6797,10.7617,10.75,10.6719,10.6914,10.6484,10.5898,10.6719,10.6992,10.7109,10.7812,10.8008,10.8008,10.8008,10.8008,10.8008,10.8008,10.8008,10.8008,10.8008,10.8008,10.8008,10.8008,10.8008,10.8008,10.8008,10.8008,10.8008,10.8008,10.8008,10.8008,10.8008,10.8008,10.8086,10.8281,10.8281,10.8281,10.8281,10.8281,10.8203,10.7695,10.7695,10.7695,10.7695,10.789,10.7508,10.6313,0.0,10.5905,10.4597,10.3289,10.3097,10.4212,10.3597,10.2712,10.1597,10.3289,10.4366,10.4789,10.4982,10.4789,10.4212,10.4789,10.5213,10.5405,10.6097,10.6405,10.6405,10.6405,10.6405,10.6405,10.6405,10.6405,10.6405,10.6405,10.6405,10.6405,10.289,10.289,10.289,10.289,10.289,10.289,10.289,10.289,10.289,10.289,10.3203,10.3984,10.539,10.5781,10.5898,10.5508,10.5508,10.5,10.3711,10.3203,10.289,10.289,10.3398,10.3789,10.4219,10.5508,10.6601,10.7383,10.5312,10.4883,10.6093,10.4883,10.4492,10.4804,10.4414,10.4609,10.539,10.5781,10.6484,10.7304,10.7383,10.7109,10.6719,10.6289,10.6093,10.6093,10.6093,10.6601,10.7304,10.7383,10.7695,10.8008,10.8008,10.8008,10.8008,10.8008,10.8008,10.8008,10.8008,10.8008,10.8008,10.8008,10.8008,10.8008,10.8008,10.8008,10.8008,10.8008,10.8008,10.8008,10.8008,10.8008,10.8008,10.8008,10.8008,10.8008,10.8008,10.8008,10.8008,10.8008,10.8008,10.8008,10.8008,10.8008,10.7608,10.6685,10.6602,10.5905,10.4674,10.3712,10.3212,10.3289,10.2712,10.2212,10.1904,10.3674,10.4597,10.4597,10.4905,10.4905,10.4482,10.4905,10.529,10.5713,10.6213,10.6405,10.6405,10.6405,10.6405,10.6405,10.6405,10.6405,10.6405,10.6405,10.6405,10.6405,10.289,10.289,10.289,10.289,10.289,10.289,10.289,10.289,10.289,10.289,10.3711,10.4492,10.539,10.6211,10.6406,10.5586,10.5508,10.4804,10.3008,10.289,10.289,10.289,10.289,10.3203,10.3984,10.4883,10.5781,10.6719,10.4414,10.4101,10.5586,10.3984,10.4101,10.5508,10.4609,10.5117,10.6719,10.6601,10.7109,10.789,10.7109,10.6601,10.6406,10.5586,10.5586,10.6093,10.5703,10.6406,10.75,10.7109,10.7383,10.8008,10.8008,10.8008,10.8008,10.8008,10.8008,10.8008,10.8008,10.8008,10.8008,10.8008,10.8008,10.8008,10.8008,10.8008,10.8008,10.8008,10.8008,10.8008,10.8008,10.8008,10.8008,10.7812,10.789,10.8008,10.7812,10.789,10.8008,10.7812,10.7812,10.7812,10.7617,10.7695,10.7695,10.7383,10.7192,10.6526,10.5407,10.4289,10.3289,10.2404,10.1981,10.2212,10.302,10.4289,10.4789,10.4289,10.4905,10.5213,10.529,10.529,10.5713,10.6405,10.6405,10.6405,10.6405,10.6405,10.6405,10.6405,10.6405,10.6405,10.6405,10.6405,10.6405,10.6405,10.289,10.289,10.289,10.289,10.289,10.289,10.289,10.289,10.289,10.289,10.3711,10.4492,10.539,10.6211,10.6406,10.5586,10.5508,10.4804,10.3008,10.289,10.289,10.289,10.289,10.3008,10.3086,10.3984,10.5195,10.6719,10.5586,10.5586,10.6484,10.5508,10.5195,10.5508,10.4609,10.5117,10.6719,10.6015,10.6601,10.789,10.7109,10.6289,10.5586,10.4687,10.3984,10.3711,10.5,10.5703,10.6093,10.7383,10.789,10.8008,10.8008,10.8008,10.8008,10.8008,10.8008,10.8008,10.8008,10.8008,10.8008,10.8008,10.8008,10.8008,10.8008,10.8008,10.8008,10.8008,10.8008,10.8008,10.8008,10.8008,10.7812,10.6992,10.75,10.7695,10.6992,10.75,10.7695,10.6992,10.6914,10.6601,10.6015,10.6484,10.6797,10.6484,10.6286,10.5602,10.4522,10.3405,10.2404,10.152,10.1904,10.2904,10.471,10.4522,10.5099,10.629,10.5482,10.5482,10.6213,10.6213,10.629,10.6405,10.6405,10.6405,10.6405,10.6405,10.6405,10.6405,10.6405,10.6405,10.6405,10.6405,10.6405,10.6405,10.289,10.289,10.289,10.289,10.289,10.289,10.289,10.289,10.3086,10.3515,10.4414,10.5195,10.6093,10.6484,10.6406,10.5586,10.5117,10.4297,10.3008,10.289,10.289,10.289,10.289,10.3086,10.3594,10.3984,10.4804,10.6093,10.5195,10.5195,10.6015,10.5195,10.5312,10.6093,10.4804,10.539,10.7304,10.6015,10.6484,10.789,10.7109,10.6484,10.6015,10.4687,10.4219,10.4297,10.4101,10.4687,10.5586,10.6406,10.6914,10.7383,10.789,10.8008,10.8008,10.8008,10.8008,10.8008,10.8008,10.8008,10.8008,10.8008,10.8008,10.8008,10.8008,10.8008,10.8008,10.8008,10.8008,10.8008,10.8008,10.8008,10.789,10.75,10.7695,10.789,10.75,10.7695,10.7695,10.6797,10.6719,10.6601,10.6211,10.6484,10.6797,10.7187,10.6488,10.5686,10.4792,10.3482,10.2404,10.152,10.2674,10.3604,10.4406,10.4799,10.5319,10.6099,10.5366,10.5597,10.6405,10.6405,10.6405,10.6405,10.6405,10.6405,10.6405,10.6405,10.6405,10.6405,10.6405,10.6405,10.6405,10.6405,10.6405,10.6405,10.3203,10.3008,10.3008,10.3203,10.3008,10.289,10.289,10.289,10.3203,10.4101,10.5,10.5781,10.6601,10.6719,10.6406,10.5586,10.4687,10.3789,10.3008,10.3086,10.3086,10.289,10.289,10.3203,10.3906,10.4101,10.4492,10.5195,10.4687,10.4804,10.5508,10.4804,10.5195,10.6406,10.4883,10.5508,10.7617,10.6093,10.6484,10.789,10.6797,10.6406,10.6211,10.4492,10.4297,10.4687,10.3594,10.4219,10.5508,10.5508,10.6211,10.7109,10.7617,10.7812,10.8008,10.8008,10.789,10.7695,10.789,10.8008,10.8008,10.8008,10.8008,10.8008,10.8008,10.8008,10.8008,10.8008,10.8008,10.8008,10.8008,10.8008,10.789,10.7695,10.789,10.789,10.7695,10.789,10.7617,10.6484,10.6406,10.6289,10.6093,10.6289,10.6797,10.7617,10.6682,10.5789,10.5093,10.3594,10.2404,10.1673,10.3324,10.4075,10.4101,10.4923,10.5496,10.5909,10.5407,10.5597,10.6405,10.6405,10.6405,10.6405,10.6405,10.6405,10.6405,10.6405,10.6405,10.6405,10.6405,10.6405,10.6405,10.6405,10.6405,10.6405,10.3906,10.3515,10.3203,10.3984,10.3398,10.289,10.289,10.289,10.3203,10.4101,10.5,10.5781,10.6601,10.6719,10.6406,10.5586,10.4687,10.3789,10.3008,10.3711,10.3711,10.289,10.289,10.289,10.3008,10.3789,10.4219,10.4297,10.5,10.539,10.5508,10.539,10.5508,10.5508,10.4609,10.5195,10.6719,10.5898,10.6484,10.789,10.6211,10.5586,10.539,10.3711,10.3008,10.3203,10.3906,10.4687,10.5508,10.5508,10.6601,10.7812,10.6992,10.7304,10.8008,10.8008,10.7383,10.6992,10.7812,10.8008,10.8008,10.8008,10.8008,10.8008,10.8008,10.8008,10.8008,10.8008,10.8008,10.8008,10.8008,10.8008,10.7695,10.6914,10.75,10.7695,10.6914,10.75,10.7383,10.5781,10.5586,10.5312,10.4492,10.5117,10.5898,10.6719,10.5816,10.5212,10.5101,10.3004,10.1804,10.1712,10.281,10.401,10.5,10.4804,10.5513,10.7063,10.5715,10.5597,10.6405,10.6405,10.6405,10.6405,10.6405,10.6405,10.6405,10.6405,10.6405,10.6405,10.6405,10.6405,10.6405,10.6405,10.6405,10.6405,10.3398,10.3594,10.3594,10.3398,10.3086,10.289,10.289,10.3398,10.3984,10.4883,10.5703,10.6601,10.7383,10.6601,10.5781,10.5508,10.4219,10.3515,10.3711,10.4492,10.4883,10.4492,10.3515,10.3203,10.3711,10.4609,10.5,10.5,10.5781,10.6484,10.6992,10.6015,10.5781,10.6211,10.4804,10.4883,10.5898,10.5117,10.5703,10.7109,10.6015,10.5508,10.539,10.4219,10.3398,10.289,10.3281,10.3984,10.4687,10.4687,10.5781,10.7109,10.6797,10.7304,10.8008,10.8008,10.7383,10.6797,10.7109,10.7187,10.7187,10.7187,10.7617,10.8008,10.8008,10.8008,10.8008,10.8008,10.8008,10.8008,10.8008,10.8008,10.789,10.7617,10.7812,10.789,10.7617,10.7812,10.7383,10.5703,10.5508,10.539,10.5,10.5312,10.6093,10.7383,10.6601,10.5889,10.5417,10.3225,10.1897,10.1673,10.2272,10.341,10.5117,10.4818,10.5513,10.7177,10.579,10.5597,10.6405,10.6405,10.6405,10.6405,10.6405,10.6405,10.6405,10.6405,10.6405,10.6405,10.6405,10.6405,10.6405,10.6405,10.6405,10.6405,10.3711,10.3789,10.3711,10.3398,10.3086,10.289,10.289,10.3594,10.4492,10.539,10.6211,10.6992,10.789,10.6484,10.5508,10.5508,10.3906,10.3281,10.4101,10.5,10.5508,10.5508,10.4101,10.3515,10.3789,10.4609,10.5117,10.5117,10.5586,10.6406,10.7187,10.5508,10.5117,10.5898,10.4414,10.4297,10.5117,10.4492,10.5195,10.6601,10.5781,10.5508,10.539,10.4492,10.3711,10.289,10.289,10.3594,10.4609,10.4297,10.5312,10.6719,10.6719,10.7304,10.8008,10.8008,10.7187,10.6289,10.6289,10.6289,10.6406,10.6601,10.7383,10.8008,10.8008,10.8008,10.8008,10.8008,10.8008,10.8008,10.8008,10.8008,10.8008,10.8008,10.8008,10.8008,10.8008,10.7812,10.7109,10.5703,10.5312,10.5117,10.5117,10.5312,10.6093,10.75,10.6797,10.5781,10.4609,10.2982,10.2006,10.1673,10.1904,10.2882,10.4997,10.4799,10.5513,10.7175,10.6097,10.579,10.6405,10.6405,10.6405,10.6405,10.6405,10.6405,10.6405,10.6405,10.6405,10.6405,10.6405,10.6405,10.6405,10.6405,10.6405,10.6405,10.5195,10.4101,10.3203,10.3984,10.3515,10.289,10.289,10.3711,10.4492,10.539,10.6211,10.6992,10.789,10.6484,10.5508,10.5508,10.3906,10.3281,10.4219,10.5,10.5508,10.5508,10.4687,10.3789,10.289,10.3789,10.4219,10.4219,10.4219,10.4687,10.5508,10.3711,10.3398,10.4219,10.3281,10.3398,10.4219,10.4219,10.5195,10.6601,10.5781,10.5508,10.539,10.4492,10.3711,10.289,10.289,10.3984,10.539,10.4492,10.5312,10.6719,10.6719,10.7304,10.8008,10.8008,10.6797,10.5508,10.5508,10.5508,10.5703,10.6484,10.7383,10.8008,10.8008,10.8008,10.8008,10.8008,10.8008,10.8008,10.8008,10.8008,10.8008,10.8008,10.8008,10.8008,10.8008,10.7187,10.6406,10.5586,10.4687,10.4219,10.4219,10.5,10.5781,10.6601,10.5898,10.4609,10.2617,10.2308,10.1996,10.1712,10.1712,10.2682,10.4698,10.458,10.5486,10.7175,10.6713,10.6405,10.6405,10.6405,10.6405,10.6405,10.6405,10.6405,10.6405,10.6405,10.6405,10.6405,10.6405,10.6405,10.6405,10.6405,10.6405,10.6405,10.4492,10.4219,10.3711,10.3281,10.3086,10.3086,10.3711,10.4609,10.539,10.6211,10.7109,10.7695,10.8008,10.6484,10.5508,10.5508,10.4492,10.4414,10.5898,10.6797,10.6719,10.5586,10.4687,10.4414,10.4687,10.5,10.5117,10.5117,10.6289,10.6719,10.6289,10.5195,10.4883,10.5,10.3594,10.3008,10.3281,10.3281,10.4297,10.5781,10.4883,10.5,10.539,10.4492,10.3711,10.3008,10.3594,10.4492,10.5508,10.5195,10.5781,10.6719,10.6719,10.7304,10.8008,10.8008,10.6797,10.5586,10.6211,10.5898,10.5586,10.5781,10.6914,10.8008,10.8008,10.8008,10.8008,10.8008,10.8008,10.8008,10.8008,10.8008,10.8008,10.8008,10.75,10.7109,10.7109,10.6406,10.5508,10.4687,10.4414,10.4414,10.5117,10.5312,10.5781,10.6601,10.539,10.4297,10.3711,10.2698,10.2307,10.2905,10.2097,10.2904,10.5498,10.5001,10.5482,10.7175,10.679,10.6597,10.6405,10.6405,10.6405,10.6405,10.6405,10.6405,10.6405,10.6405,10.6405,10.6405,10.6405,10.6405,10.6405,10.6405,10.6405,10.6405,10.4687,10.4414,10.3984,10.3515,10.3398,10.3711,10.4609,10.539,10.6093,10.6601,10.75,10.8008,10.8008,10.6484,10.5586,10.5898,10.5508,10.5586,10.6601,10.75,10.7304,10.5586,10.5,10.4609,10.4492,10.5117,10.5312,10.5,10.6289,10.6914,10.6719,10.5195,10.4804,10.539,10.3711,10.289,10.289,10.289,10.3711,10.4883,10.4414,10.4687,10.539,10.4492,10.3906,10.3515,10.3984,10.4804,10.5508,10.5898,10.6484,10.7109,10.6406,10.6992,10.8008,10.8008,10.6797,10.5586,10.6093,10.5898,10.5508,10.5508,10.6797,10.8008,10.8008,10.8008,10.8008,10.8008,10.8008,10.8008,10.8008,10.8008,10.8008,10.8008,10.7304,10.6719,10.6719,10.5703,10.4804,10.4297,10.3906,10.3984,10.4883,10.5312,10.5703,10.6211,10.5312,10.4414,10.3711,10.2698,10.2501,10.3406,10.2212,10.279,10.5409,10.489,10.5487,10.7189,10.6912,10.6713,10.6405,10.6405,10.6405,10.6405,10.6405,10.6405,10.6405,10.6405,10.6405,10.6405,10.6405,10.6405,10.6405,10.6405,10.6405,10.6405,10.5508,10.4804,10.4219,10.4219,10.4297,10.4609,10.5508,10.6211,10.6719,10.6797,10.75,10.8008,10.8008,10.6601,10.5898,10.6601,10.6719,10.6719,10.6797,10.7617,10.7304,10.5586,10.5508,10.4687,10.3086,10.4609,10.5117,10.4414,10.5312,10.6093,10.6601,10.4297,10.3984,10.539,10.3711,10.289,10.289,10.289,10.3398,10.4219,10.4219,10.4687,10.5312,10.4492,10.4219,10.4101,10.4297,10.4804,10.5586,10.6406,10.7304,10.7695,10.6093,10.6719,10.8008,10.8008,10.6797,10.5508,10.5586,10.5586,10.5508,10.5586,10.6797,10.8008,10.8008,10.8008,10.8008,10.8008,10.8008,10.8008,10.8008,10.8008,10.8008,10.8008,10.7187,10.6601,10.6601,10.5117,10.4101,10.4101,10.3398,10.3281,10.4219,10.5,10.5508,10.5508,10.539,10.4609,10.3008,10.241,10.2589,10.3521,10.2097,10.252,10.4792,10.4713,10.5496,10.7111,10.689,10.6713,10.6405,10.6405,10.6405,10.6405,10.6405,10.6405,10.6405,10.6405,10.6405,10.6405,10.6405,10.6405,10.6405,10.6405,10.6405,10.6405,10.539,10.4804,10.4219,10.4219,10.4804,10.5508,10.6289,10.6601,10.6914,10.7617,10.789,10.8008,10.8008,10.7109,10.6484,10.6719,10.6719,10.6992,10.7695,10.789,10.7304,10.5586,10.5508,10.5,10.3906,10.5,10.5703,10.6211,10.6992,10.7187,10.6719,10.5508,10.5117,10.539,10.3711,10.289,10.289,10.289,10.3398,10.4219,10.4219,10.4297,10.4492,10.4297,10.3789,10.3398,10.4687,10.5312,10.5586,10.6406,10.7304,10.7812,10.6797,10.7187,10.8008,10.8008,10.6797,10.5586,10.6289,10.6015,10.5703,10.6289,10.7187,10.8008,10.8008,10.8008,10.8008,10.8008,10.8008,10.8008,10.8008,10.8008,10.8008,10.8008,10.6719,10.5781,10.5781,10.4297,10.3203,10.3203,10.3008,10.3515,10.5117,10.539,10.5508,10.5508,10.4219,10.3281,10.289,10.2611,10.3006,10.4292,10.2635,10.2904,10.5601,10.5023,10.5296,10.6503,10.6902,10.6982,10.6713,10.6521,10.6405,10.6405,10.6405,10.6405,10.6405,10.6405,10.6405,10.6405,10.6405,10.6405,10.6405,10.6405,10.6405,10.6405,10.5586,10.539,10.5312,10.4883,10.5508,10.6406,10.7187,10.7304,10.75,10.789,10.8008,10.8008,10.8008,10.7187,10.6719,10.6719,10.7109,10.75,10.8008,10.8008,10.7304,10.5586,10.5898,10.5703,10.4804,10.5586,10.6093,10.6093,10.6992,10.7109,10.6719,10.5898,10.5508,10.539,10.4101,10.3281,10.289,10.289,10.3203,10.3594,10.3594,10.3789,10.4219,10.3711,10.3594,10.3711,10.5,10.6015,10.6719,10.6719,10.7304,10.7812,10.6992,10.7304,10.8008,10.8008,10.6797,10.5703,10.6484,10.6093,10.5586,10.6015,10.6797,10.75,10.789,10.8008,10.8008,10.8008,10.8008,10.8008,10.8008,10.8008,10.8008,10.8008,10.6601,10.5508,10.5508,10.3984,10.289,10.289,10.289,10.3594,10.5312,10.5781,10.5898,10.5508,10.4297,10.3281,10.289,10.2617,10.2997,10.4015,10.2902,10.298,10.4522,10.5023,10.5377,10.5703,10.6699,10.7092,10.679,10.6521,10.6405,10.6405,10.6405,10.6405,10.6405,10.6405,10.6405,10.6405,10.6405,10.6405,10.6405,10.6405,10.6097,10.579,10.6015,10.6211,10.6484,10.5781,10.6406,10.7187,10.789,10.8008,10.8008,10.8008,10.8008,10.8008,10.8008,10.7383,10.6914,10.6914,10.7617,10.8008,10.8008,10.8008,10.7304,10.5586,10.6093,10.6211,10.5508,10.6211,10.6289,10.5898,10.6601,10.6797,10.6719,10.6015,10.5586,10.5195,10.4492,10.3711,10.289,10.289,10.289,10.289,10.289,10.3281,10.3906,10.3203,10.3281,10.4101,10.5117,10.6601,10.789,10.7187,10.7383,10.789,10.7187,10.7383,10.8008,10.7812,10.6719,10.5586,10.6093,10.5781,10.5312,10.5312,10.5898,10.6719,10.7383,10.7695,10.7812,10.8008,10.8008,10.8008,10.8008,10.8008,10.8008,10.7812,10.6484,10.539,10.5312,10.3906,10.289,10.289,10.3008,10.3711,10.5117,10.5898,10.6015,10.5312,10.4492,10.3711,10.289,10.2695,10.2816,10.3374,10.2991,10.2903,10.302,10.4615,10.5321,10.5117,10.6416,10.6987,10.6905,10.6521,10.6405,10.6405,10.6405,10.6405,10.6405,10.6405,10.6405,10.6405,10.6405,10.6405,10.6405,10.6405,10.579,10.5097,10.6601,10.6601,10.6719,10.6601,10.7304,10.789,10.8008,10.8008,10.8008,10.8008,10.8008,10.8008,10.8008,10.789,10.7812,10.7812,10.789,10.8008,10.8008,10.8008,10.7304,10.5586,10.5586,10.5586,10.5508,10.5586,10.6289,10.7695,10.7812,10.7383,10.6719,10.6601,10.5781,10.4414,10.4297,10.3711,10.289,10.289,10.289,10.289,10.289,10.3008,10.3086,10.289,10.3008,10.3281,10.4883,10.6601,10.8008,10.789,10.789,10.8008,10.789,10.789,10.789,10.7109,10.6211,10.539,10.4687,10.4492,10.4414,10.4414,10.5,10.5703,10.5781,10.6406,10.7109,10.7812,10.8008,10.8008,10.8008,10.8008,10.7812,10.6992,10.6093,10.5195,10.4492,10.3515,10.289,10.289,10.3594,10.4101,10.4414,10.4492,10.4492,10.4414,10.3594,10.3008,10.289,10.289,10.3011,10.3374,10.2599,10.252,10.3018,10.3483,10.4206,10.5117,10.6013,10.6716,10.7098,10.6597,10.6405,10.6405,10.6405,10.6405,10.6405,10.6405,10.6405,10.6405,10.6405,10.6405,10.6405,10.6405,10.579,10.5213,10.6719,10.6719,10.6719,10.6719,10.7383,10.8008,10.8008,10.8008,10.8008,10.8008,10.8008,10.8008,10.8008,10.8008,10.8008,10.8008,10.8008,10.8008,10.8008,10.8008,10.75,10.6211,10.6211,10.6211,10.6211,10.6211,10.6797,10.8008,10.75,10.7109,10.6719,10.6211,10.539,10.4219,10.4219,10.3711,10.289,10.289,10.3203,10.3594,10.3086,10.3203,10.3594,10.3086,10.3203,10.3789,10.5586,10.6992,10.8008,10.8008,10.8008,10.8008,10.8008,10.8008,10.7812,10.6992,10.6093,10.539,10.5,10.4609,10.4219,10.4219,10.4492,10.4804,10.4804,10.539,10.6289,10.7109,10.7695,10.8008,10.8008,10.8008,10.7695,10.6797,10.6015,10.5195,10.4297,10.3398,10.289,10.289,10.3711,10.4219,10.4219,10.4219,10.4414,10.4883,10.3711,10.3086,10.3594,10.3203,10.2816,10.2713,10.2824,10.2597,10.2096,10.3366,10.4411,10.4879,10.5807,10.6585,10.7175,10.679,10.6521,10.6405,10.6405,10.6405,10.6405,10.6405,10.6405,10.6405,10.6405,10.6405,10.629,10.5905,10.5405,10.5174]},{"header":{"parameterUnit":"m.s-1","parameterCategory":1,"la1":30.6,"la2":28.766,"lo1":-90.7593,"lo2":-88.6598,"dx":0.0162,"dy":0.0183,"nx":116,"ny":114,"refTime":"2022-11-11T18:00:00:Z","depth":0,"parameterNumber":3,"parameterNumberName":"V-component_of_WINDS"},"data":[0.0,0.0,0.0,0.0,0.0,0.0,0.0,0.0,0.0,0.0,0.0,0.0,0.0,0.0,0.0,0.0,0.0,0.0,0.0,0.0,0.0,0.0,0.0,0.0,0.0,0.0,0.0,0.0,0.0,0.0,0.0,0.0,0.0,0.0,0.0,0.0,0.0,0.0,0.0,0.0,0.0,0.0,0.0,0.0,0.0,0.0,0.0,0.0,0.0,0.0,0.0,0.0,0.0,0.0,0.0,0.0,0.0,0.0,0.0,0.0,0.0,0.0,0.0,0.0,0.0,0.0,0.0,0.0,0.0,0.0,0.0,0.0,0.0,0.0,0.0,0.0,0.0,0.0,0.0,0.0,0.0,0.0,0.0,0.0,0.0,0.0,0.0,0.0,0.0,0.0,0.0,0.0,0.0,0.0,0.0,0.0,0.0,0.0,0.0,0.0,0.0,0.0,0.0,0.0,0.0,0.0,0.0,0.0,0.0,0.0,0.0,0.0,0.0,0.0,0.0,0.0,0.0,0.0,0.0,0.0,0.0,0.0,0.0,0.0,0.0,0.0,0.0,0.0,0.0,0.0,0.0,0.0,0.0,0.0,0.0,0.0,0.0,0.0,0.0,0.0,0.0,0.0,0.0,0.0,0.0,0.0,0.0,0.0,0.0,0.0,0.0,0.0,0.0,0.0,0.0,0.0,0.0,0.0,0.0,0.0,0.0,0.0,0.0,0.0,0.0,0.0,0.0,0.0,0.0,0.0,0.0,0.0,0.0,0.0,0.0,0.0,0.0,0.0,0.0,0.0,0.0,0.0,0.0,0.0,0.0,0.0,0.0,0.0,0.0,0.0,0.0,0.0,0.0,0.0,0.0,0.0,0.0,0.0,0.0,0.0,0.0,0.0,0.0,0.0,0.0,0.0,0.0,0.0,0.0,0.0,0.0,0.0,0.0,0.0,0.0,0.0,0.0,0.0,0.0,0.0,0.0,0.0,0.0,0.0,0.0,0.0,0.0,0.0,0.0,0.0,0.0,0.0,0.0,0.0,0.0,0.0,0.0,0.0,0.0,0.0,0.0,0.0,0.0,0.0,0.0,0.0,0.0,0.0,0.0,0.0,0.0,0.0,0.0,0.0,0.0,0.0,0.0,0.0,0.0,0.0,0.0,0.0,0.0,0.0,0.0,0.0,0.0,0.0,0.0,0.0,0.0,0.0,0.0,0.0,0.0,0.0,0.0,0.0,0.0,0.0,0.0,0.0,0.0,0.0,0.0,0.0,0.0,0.0,0.0,0.0,0.0,0.0,0.0,0.0,0.0,0.0,0.0,0.0,0.0,0.0,0.0,0.0,0.0,0.0,0.0,0.0,0.0,0.0,0.0,0.0,0.0,0.0,0.0,0.0,0.0,0.0,0.0,0.0,0.0,0.0,0.0,0.0,0.0,0.0,0.0,0.0,0.0,0.0,0.0,0.0,0.0,0.0,0.0,0.0,0.0,0.0,0.0,0.0,0.0,0.0,0.0,0.0,0.0,0.0,0.0,0.0,0.0,0.0,0.0,0.0,0.0,0.0,0.0,0.0,0.0,0.0,0.0,0.0,0.0,0.0,0.0,0.0,0.0,0.0,0.0,0.0,0.0,0.0,0.0,0.0,0.0,0.0,0.0,0.0,0.0,0.0,0.0,0.0,0.0,0.0,0.0,0.0,0.0,0.0,0.0,0.0,0.0,0.0,0.0,0.0,0.0,0.0,0.0,0.0,0.0,0.0,0.0,0.0,0.0,0.0,0.0,0.0,0.0,0.0,0.0,0.0,0.0,0.0,0.0,0.0,0.0,0.0,0.0,0.0,0.0,0.0,0.0,0.0,0.0,0.0,0.0,0.0,0.0,0.0,0.0,0.0,0.0,0.0,0.0,0.0,0.0,0.0,0.0,0.0,0.0,0.0,0.0,0.0,0.0,0.0,0.0,0.0,0.0,0.0,0.0,0.0,0.0,0.0,0.0,0.0,0.0,0.0,0.0,0.0,0.0,0.0,0.0,0.0,0.0,0.0,0.0,0.0,0.0,0.0,0.0,0.0,0.0,0.0,0.0,0.0,0.0,0.0,0.0,0.0,0.0,0.0,0.0,0.0,0.0,0.0,0.0,0.0,0.0,0.0,0.0,0.0,0.0,0.0,0.0,0.0,0.0,0.0,0.0,0.0,0.0,0.0,0.0,0.0,0.0,0.0,0.0,0.0,0.0,0.0,0.0,0.0,0.0,0.0,0.0,0.0,0.0,0.0,0.0,0.0,0.0,0.0,0.0,0.0,0.0,0.0,0.0,0.0,0.0,0.0,0.0,0.0,0.0,0.0,0.0,0.0,0.0,0.0,0.0,0.0,0.0,0.0,0.0,0.0,0.0,0.0,0.0,0.0,0.0,0.0,0.0,0.0,0.0,0.0,0.0,0.0,0.0,0.0,0.0,0.0,0.0,0.0,0.0,0.0,0.0,0.0,0.0,0.0,0.0,0.0,0.0,0.0,0.0,0.0,0.0,0.0,0.0,0.0,0.0,0.0,0.0,0.0,0.0,0.0,0.0,0.0,0.0,0.0,0.0,0.0,0.0,0.0,0.0,0.0,0.0,0.0,0.0,0.0,0.0,0.0,0.0,0.0,0.0,0.0,0.0,0.0,0.0,0.0,0.0,0.0,0.0,0.0,0.0,0.0,0.0,0.0,0.0,0.0,0.0,0.0,0.0,0.0,0.0,0.0,0.0,0.0,0.0,0.0,0.0,0.0,0.0,0.0,0.0,0.0,0.0,0.0,0.0,0.0,0.0,0.0,0.0,0.0,0.0,0.0,0.0,0.0,0.0,0.0,0.0,0.0,0.0,0.0,0.0,0.0,0.0,0.0,0.0,0.0,0.0,0.0,0.0,0.0,0.0,0.0,0.0,0.0,0.0,0.0,0.0,0.0,0.0,0.0,0.0,0.0,0.0,0.0,0.0,0.0,0.0,0.0,0.0,0.0,0.0,0.0,0.0,0.0,0.0,0.0,0.0,0.0,0.0,0.0,0.0,0.0,0.0,0.0,0.0,0.0,0.0,0.0,0.0,0.0,0.0,0.0,0.0,0.0,0.0,0.0,0.0,0.0,0.0,0.0,0.0,0.0,0.0,0.0,0.0,0.0,0.0,0.0,0.0,0.0,0.0,0.0,0.0,0.0,0.0,0.0,0.0,0.0,0.0,0.0,0.0,0.0,0.0,0.0,0.0,0.0,0.0,0.0,0.0,0.0,0.0,0.0,0.0,0.0,0.0,0.0,0.0,0.0,0.0,0.0,0.0,0.0,0.0,0.0,0.0,0.0,0.0,0.0,0.0,0.0,0.0,0.0,0.0,0.0,0.0,0.0,0.0,0.0,0.0,0.0,0.0,0.0,0.0,0.0,0.0,0.0,0.0,0.0,0.0,0.0,0.0,0.0,0.0,0.0,0.0,0.0,0.0,0.0,0.0,0.0,0.0,0.0,0.0,0.0,0.0,0.0,0.0,0.0,0.0,0.0,0.0,0.0,0.0,0.0,0.0,0.0,0.0,0.0,0.0,0.0,0.0,0.0,0.0,0.0,0.0,0.0,0.0,0.0,0.0,0.0,0.0,0.0,0.0,0.0,0.0,0.0,0.0,0.0,0.0,0.0,0.0,0.0,0.0,0.0,0.0,0.0,0.0,0.0,0.0,0.0,0.0,0.0,0.0,0.0,0.0,0.0,0.0,0.0,0.0,0.0,0.0,0.0,0.0,0.0,0.0,0.0,0.0,0.0,0.0,0.0,0.0,0.0,0.0,0.0,0.0,0.0,0.0,0.0,0.0,0.0,0.0,0.0,0.0,0.0,0.0,0.0,0.0,0.0,0.0,0.0,0.0,0.0,0.0,0.0,0.0,0.0,0.0,0.0,0.0,0.0,0.0,0.0,0.0,0.0,0.0,0.0,0.0,0.0,0.0,0.0,0.0,0.0,0.0,0.0,0.0,0.0,0.0,0.0,0.0,0.0,0.0,0.0,0.0,0.0,0.0,0.0,0.0,0.0,0.0,0.0,0.0,0.0,0.0,0.0,0.0,0.0,0.0,0.0,0.0,0.0,0.0,0.0,0.0,0.0,0.0,0.0,0.0,0.0,0.0,0.0,0.0,0.0,0.0,0.0,0.0,0.0,0.0,0.0,0.0,0.0,0.0,0.0,0.0,0.0,0.0,0.0,0.0,0.0,0.0,0.0,0.0,0.0,0.0,0.0,0.0,0.0,0.0,0.0,0.0,0.0,0.0,0.0,0.0,0.0,0.0,0.0,0.0,0.0,0.0,0.0,0.0,0.0,0.0,0.0,0.0,0.0,0.0,0.0,0.0,0.0,0.0,0.0,0.0,0.0,0.0,0.0,0.0,0.0,0.0,0.0,0.0,0.0,0.0,0.0,0.0,0.0,0.0,0.0,0.0,0.0,0.0,0.0,0.0,0.0,0.0,0.0,0.0,0.0,0.0,0.0,0.0,0.0,0.0,0.0,0.0,0.0,0.0,0.0,0.0,0.0,0.0,0.0,0.0,0.0,0.0,0.0,0.0,0.0,0.0,0.0,0.0,0.0,0.0,0.0,0.0,0.0,0.0,0.0,0.0,0.0,0.0,0.0,0.0,0.0,0.0,0.0,0.0,0.0,0.0,0.0,0.0,0.0,0.0,0.0,0.0,0.0,0.0,0.0,0.0,0.0,0.0,0.0,0.0,0.0,0.0,0.0,0.0,0.0,0.0,0.0,0.0,0.0,0.0,0.0,0.0,0.0,0.0,0.0,0.0,0.0,0.0,0.0,0.0,0.0,0.0,0.0,0.0,0.0,0.0,0.0,0.0,0.0,0.0,0.0,0.0,0.0,0.0,0.0,0.0,0.0,0.0,0.0,0.0,0.0,0.0,0.0,0.0,0.0,0.0,0.0,0.0,0.0,0.0,0.0,0.0,0.0,0.0,0.0,0.0,0.0,0.0,0.0,0.0,0.0,0.0,0.0,0.0,0.0,0.0,0.0,0.0,0.0,0.0,0.0,0.0,0.0,0.0,0.0,0.0,0.0,0.0,0.0,0.0,0.0,0.0,0.0,0.0,0.0,0.0,0.0,0.0,0.0,0.0,0.0,0.0,0.0,0.0,0.0,0.0,0.0,0.0,0.0,0.0,0.0,0.0,0.0,0.0,0.0,0.0,0.0,0.0,0.0,0.0,0.0,0.0,0.0,0.0,0.0,0.0,0.0,0.0,0.0,0.0,0.0,0.0,0.0,0.0,0.0,0.0,0.0,0.0,0.0,0.0,0.0,0.0,0.0,0.0,0.0,0.0,0.0,0.0,0.0,0.0,0.0,0.0,0.0,0.0,0.0,0.0,0.0,0.0,0.0,0.0,0.0,0.0,0.0,0.0,0.0,0.0,0.0,0.0,0.0,0.0,0.0,0.0,0.0,0.0,0.0,0.0,0.0,0.0,0.0,0.0,0.0,0.0,0.0,0.0,0.0,0.0,0.0,0.0,0.0,0.0,0.0,0.0,0.0,0.0,0.0,0.0,0.0,0.0,0.0,0.0,0.0,0.0,0.0,0.0,0.0,0.0,0.0,0.0,0.0,0.0,0.0,0.0,0.0,0.0,0.0,0.0,0.0,0.0,0.0,0.0,0.0,0.0,0.0,0.0,0.0,0.0,0.0,0.0,0.0,0.0,0.0,0.0,0.0,0.0,0.0,0.0,0.0,0.0,0.0,0.0,0.0,0.0,0.0,0.0,0.0,0.0,0.0,0.0,0.0,0.0,0.0,0.0,0.0,0.0,0.0,0.0,0.0,0.0,0.0,0.0,0.0,0.0,0.0,0.0,0.0,0.0,0.0,0.0,0.0,0.0,0.0,0.0,0.0,0.0,0.0,0.0,0.0,0.0,0.0,0.0,0.0,0.0,0.0,0.0,0.0,0.0,0.0,0.0,0.0,0.0,0.0,0.0,0.0,0.0,0.0,0.0,0.0,0.0,0.0,0.0,0.0,0.0,0.0,0.0,0.0,0.0,0.0,0.0,0.0,0.0,0.0,0.0,0.0,0.0,0.0,0.0,0.0,0.0,0.0,0.0,0.0,-1.1938,0.0,0.0,0.0,0.0,0.0,0.0,0.0,0.0,0.0,0.0,0.0,0.0,0.0,0.0,0.0,0.0,0.0,0.0,0.0,0.0,0.0,0.0,0.0,0.0,-0.776,-0.7868,-0.8011,-0.8092,0.0,0.0,0.0,0.0,0.0,0.0,0.0,-0.8241,-0.8241,-0.8425,-0.8798,-0.9089,-0.9808,-1.0894,-1.0649,-1.0032,-0.9123,0.0,0.0,0.0,0.0,0.0,0.0,0.0,0.0,0.0,0.0,0.0,0.0,0.0,0.0,0.0,0.0,0.0,0.0,0.0,0.0,0.0,0.0,0.0,0.0,0.0,0.0,0.0,0.0,0.0,0.0,0.0,0.0,0.0,0.0,0.0,0.0,0.0,0.0,0.0,0.0,0.0,0.0,0.0,0.0,0.0,0.0,0.0,0.0,0.0,0.0,0.0,0.0,0.0,0.0,0.0,0.0,0.0,0.0,0.0,0.0,0.0,0.0,0.0,0.0,0.0,0.0,0.0,0.0,0.0,0.0,0.0,-1.2501,0.0,0.0,0.0,0.0,0.0,0.0,0.0,0.0,0.0,0.0,0.0,0.0,0.0,0.0,0.0,0.0,0.0,0.0,0.0,0.0,0.0,-0.7611,-0.8031,-0.8099,-0.8235,-0.8533,-0.8533,-0.852,-0.852,-0.8499,0.0,0.0,0.0,0.0,-0.8933,-0.8866,-0.9137,-0.9761,-1.0351,-1.1233,-1.2379,-1.2678,-1.2074,-1.0731,-1.0175,0.0,0.0,0.0,0.0,0.0,0.0,0.0,0.0,0.0,0.0,0.0,0.0,0.0,0.0,0.0,0.0,0.0,0.0,0.0,0.0,0.0,0.0,0.0,0.0,0.0,0.0,0.0,0.0,0.0,0.0,0.0,0.0,0.0,0.0,0.0,0.0,0.0,0.0,0.0,0.0,0.0,0.0,0.0,0.0,0.0,0.0,0.0,0.0,0.0,0.0,0.0,0.0,0.0,0.0,0.0,0.0,0.0,0.0,0.0,0.0,0.0,0.0,0.0,-1.4563,-1.4814,-1.5045,-1.4923,-1.4939,-1.5142,-1.4115,-1.4021,-1.4537,-1.3422,0.0,0.0,0.0,0.0,0.0,0.0,0.0,0.0,0.0,0.0,0.0,0.0,0.0,0.0,0.0,0.0,0.0,0.0,0.0,-0.7875,-0.8208,-0.835,-0.8547,-0.8852,-0.8757,-0.8682,-0.8682,-0.8554,0.0,0.0,0.0,-0.892,-0.894,-0.9171,-0.9646,-1.0378,-1.2108,-1.318,-1.3614,-1.3919,-1.3878,-1.3498,-1.2522,-1.1782,-1.1233,0.0,0.0,0.0,0.0,0.0,0.0,0.0,0.0,0.0,0.0,0.0,0.0,0.0,0.0,0.0,0.0,0.0,0.0,0.0,0.0,0.0,0.0,0.0,0.0,0.0,0.0,0.0,0.0,0.0,0.0,0.0,0.0,0.0,0.0,0.0,0.0,0.0,0.0,0.0,0.0,0.0,-1.173,-1.1405,0.0,0.0,0.0,0.0,0.0,0.0,0.0,0.0,0.0,0.0,0.0,0.0,0.0,-1.3416,-1.3813,-1.4441,-1.4785,-1.4851,-1.571,-1.6246,-1.6078,-1.6266,-1.63,-1.6368,-1.6164,0.0,-1.581,-1.5658,0.0,0.0,0.0,0.0,0.0,0.0,0.0,0.0,0.0,0.0,0.0,0.0,0.0,0.0,0.0,0.0,0.0,0.0,0.0,0.0,0.0,-0.9178,-0.9517,-0.9903,-1.0032,-0.991,-0.949,-0.9401,0.0,0.0,-0.915,-0.9306,-0.9557,-0.9937,-1.0744,-1.1999,-1.3614,-1.4509,-1.4733,-1.512,-1.5309,-1.5303,-1.4665,-1.3587,-1.221,-1.1694,0.0,0.0,0.0,0.0,0.0,0.0,0.0,0.0,0.0,0.0,0.0,0.0,0.0,0.0,0.0,0.0,0.0,0.0,0.0,0.0,0.0,0.0,0.0,0.0,0.0,0.0,0.0,0.0,0.0,0.0,0.0,0.0,0.0,0.0,0.0,0.0,0.0,0.0,0.0,-1.2065,-1.3756,-1.3577,-1.3186,-1.2628,0.0,0.0,0.0,0.0,0.0,0.0,0.0,0.0,0.0,-1.256,-1.3381,-1.4414,-1.5341,-1.5669,-1.587,-1.5757,-1.6366,-1.6607,-1.6688,-1.6768,-1.6808,-1.6815,-1.7026,-1.6802,-1.6584,-1.6351,-1.559,-1.4366,0.0,0.0,0.0,0.0,-1.423,-1.4217,0.0,0.0,0.0,0.0,0.0,0.0,0.0,0.0,0.0,0.0,0.0,0.0,-0.9544,-1.0114,-1.0471,-1.0703,-1.1246,-1.1118,-1.0582,-1.0256,-0.9998,-0.9625,-0.9503,-0.9666,-1.0154,-1.0982,-1.2101,-1.3512,-1.4787,-1.5493,-1.5649,-1.6022,-1.6273,-1.6408,-1.6144,-1.5072,-1.3437,-1.2834,-1.1952,-1.09,0.0,0.0,0.0,0.0,0.0,0.0,0.0,0.0,0.0,0.0,0.0,0.0,0.0,0.0,0.0,0.0,0.0,0.0,0.0,0.0,0.0,0.0,0.0,0.0,0.0,0.0,0.0,0.0,0.0,0.0,0.0,0.0,0.0,0.0,0.0,0.0,0.0,-1.3102,-1.5081,-1.5455,-1.4556,-1.3693,0.0,0.0,0.0,0.0,0.0,0.0,-1.3324,-1.5305,-1.5816,-1.4724,-1.4788,-1.5485,-1.6686,-1.6727,-1.6594,-1.6708,-1.6604,-1.671,-1.7029,-1.7143,-1.7197,-1.7197,-1.7203,-1.7197,-1.7116,-1.6919,-1.676,-1.6501,-1.4388,-1.4011,-1.4801,-1.6341,-1.6565,-1.6324,0.0,0.0,0.0,0.0,0.0,0.0,0.0,0.0,0.0,0.0,0.0,-0.9869,-1.0202,-1.1016,-1.1325,-1.1053,-1.1636,-1.1983,-1.1839,-1.0946,-1.0399,-1.0243,-0.9829,-0.9869,-1.046,-1.2305,-1.3654,-1.4441,-1.5513,-1.6117,-1.6266,-1.6429,-1.6578,-1.672,-1.6558,-1.6117,-1.5425,-1.4407,-1.3526,-1.2698,-1.1246,0.0,0.0,0.0,0.0,0.0,0.0,0.0,0.0,0.0,0.0,0.0,0.0,0.0,0.0,0.0,0.0,0.0,0.0,0.0,0.0,0.0,0.0,0.0,0.0,0.0,0.0,0.0,0.0,0.0,0.0,0.0,0.0,0.0,0.0,0.0,0.0,0.0,0.0,-1.5933,-1.4421,0.0,0.0,0.0,0.0,-1.5798,-1.5933,-1.5847,-1.5891,-1.6663,-1.6925,-1.6872,-1.6829,-1.6978,-1.6936,-1.6862,-1.6942,-1.6948,-1.6955,-1.6961,-1.6968,-1.7197,-1.7641,-1.7864,-1.7203,-1.7197,-1.7405,-1.7408,-1.7113,-1.7034,-1.6889,-1.5988,-1.4746,-1.5789,-1.6569,-1.6832,0.0,0.0,0.0,-0.7773,-0.7733,-0.7719,-0.7665,-0.7828,-0.8065,-0.837,-0.9408,-1.027,-1.067,-1.185,-1.2568,-1.2353,-1.315,-1.354,-1.3457,-1.2311,-1.1396,-1.1151,-1.0616,-1.1009,-1.2481,-1.3756,-1.4774,-1.552,-1.6286,-1.67,-1.6567,-1.6909,-1.6948,-1.6877,-1.715,-1.7121,-1.654,-1.5574,-1.4597,-1.3743,-1.282,-1.183,0.0,0.0,0.0,0.0,0.0,0.0,0.0,0.0,0.0,0.0,0.0,0.0,0.0,0.0,0.0,0.0,0.0,0.0,0.0,0.0,0.0,0.0,0.0,0.0,0.0,0.0,0.0,0.0,0.0,0.0,0.0,0.0,0.0,0.0,0.0,0.0,0.0,-1.5953,-1.4858,0.0,-1.5018,-1.5099,-1.566,-1.6582,-1.6773,-1.6602,-1.6611,-1.6891,-1.6927,-1.6949,-1.7016,-1.7116,-1.7487,-1.7541,-1.7616,-1.7478,-1.7579,-1.7579,-1.7478,-1.7585,-1.784,-1.7846,-1.7751,-1.7585,-1.7739,-1.7629,-1.749,-1.6937,-1.7037,-1.6592,-1.5929,-1.6544,-1.6605,-1.6632,0.0,0.0,0.0,-0.7834,-0.7814,-0.7814,-0.7814,-0.7984,-0.8316,-0.8866,-0.9937,-1.0907,-1.1558,-1.282,-1.3593,-1.3578,-1.4117,-1.4551,-1.4477,-1.3366,-1.2409,-1.1789,-1.1531,-1.2216,-1.3966,-1.4889,-1.5662,-1.6307,-1.6856,-1.6962,-1.6836,-1.7133,-1.6255,-1.4178,-1.4448,-1.5912,-1.7602,-1.6619,-1.5703,-1.4841,-1.4136,-1.3261,-1.2277,0.0,0.0,0.0,0.0,0.0,0.0,0.0,0.0,0.0,0.0,0.0,0.0,0.0,0.0,0.0,0.0,0.0,0.0,0.0,0.0,0.0,0.0,0.0,0.0,0.0,0.0,0.0,0.0,0.0,0.0,0.0,0.0,0.0,0.0,0.0,-1.5709,-1.5969,-1.5522,-1.5616,-1.6309,-1.6496,-1.6592,-1.7056,-1.6974,-1.7071,-1.6902,-1.7127,-1.7243,-1.727,-1.7317,-1.7425,-1.7792,-1.8074,-1.8143,-1.8246,-1.8131,-1.8111,-1.8246,-1.79,-1.7927,-1.7927,-1.8057,-1.8124,-1.7821,-1.8177,-1.7745,-1.7398,-1.7203,-1.7063,-1.6976,-1.6976,-1.6889,-1.6795,0.0,0.0,-0.7991,-0.7841,-0.7821,-0.7821,-0.7821,-0.8079,-0.8648,-0.968,-1.0744,-1.1803,-1.2847,-1.3905,-1.4497,-1.4287,-1.4931,-1.5046,-1.4497,-1.4124,-1.3401,-1.2135,-1.2562,-1.3437,-1.476,-1.5655,-1.632,-1.6775,-1.7216,-1.7304,-1.7272,-1.7059,-1.3827,-0.8137,-0.8459,-1.2237,-1.8218,-1.71,-1.6452,-1.5844,-1.5153,-1.4611,-1.415,0.0,0.0,0.0,0.0,0.0,0.0,0.0,0.0,0.0,0.0,0.0,0.0,0.0,0.0,0.0,0.0,0.0,0.0,0.0,0.0,0.0,0.0,0.0,0.0,0.0,0.0,0.0,0.0,0.0,0.0,0.0,0.0,0.0,-1.5146,-1.5789,-1.6166,-1.6035,-1.6682,-1.7052,-1.6971,-1.6939,-1.7044,-1.6985,-1.7121,-1.7049,-1.6981,-1.7655,-1.7954,-1.7895,-1.7812,-1.7948,-1.788,-1.8486,-1.8809,-1.8809,-1.8809,-1.8809,-1.8788,-1.8088,-1.7854,-1.7854,-1.8555,-1.8555,-1.8068,-1.8608,-1.8552,-1.7813,-1.7885,-1.7861,-1.7826,-1.7315,-1.7092,-1.744,-0.8038,-0.8038,-0.8024,-0.7984,-0.7977,-0.7977,-0.7977,-0.8228,-0.8723,-0.9557,-1.086,-1.2026,-1.2868,-1.4278,-1.5181,-1.504,-1.5355,-1.3939,-0.9499,-1.2091,-1.3549,-1.3044,-1.419,-1.5167,-1.5866,-1.6334,-1.6788,-1.7236,-1.7473,-1.7425,-1.7319,-1.3068,-0.7956,-0.2518,-0.6683,-1.2181,-1.7981,-1.3481,-1.2069,-1.2942,-1.5316,-1.5628,-1.4841,0.0,0.0,0.0,0.0,0.0,0.0,0.0,0.0,0.0,0.0,0.0,0.0,0.0,0.0,0.0,0.0,0.0,0.0,0.0,0.0,0.0,0.0,0.0,0.0,0.0,0.0,0.0,0.0,0.0,0.0,0.0,0.0,-1.5862,-1.5842,-1.6278,-1.6743,-1.6673,-1.692,-1.7078,-1.7099,-1.7093,-1.7029,-1.7076,-1.7338,-1.7689,-1.7717,-1.7738,-1.786,-1.7893,-1.841,-1.85,-1.8644,-1.8699,-1.8768,-1.8871,-1.8871,-1.8823,-1.872,-1.8713,-1.8658,-1.8555,-1.8663,-1.8684,-1.8534,-1.8726,-1.8448,-1.7827,-1.7895,-1.7899,-1.7808,-1.717,-1.727,-1.7398,-0.8038,-0.8038,-0.8038,-0.8038,-0.8092,-0.8133,-0.8133,-0.8391,-0.896,-1.0032,-1.1138,-1.2264,-1.3397,-1.4652,-1.5459,-1.5581,-1.4415,-1.2748,-1.0399,-1.2497,-1.4,-1.4407,-1.5262,-1.6029,-1.6666,-1.6971,-1.7256,-1.7514,-1.7684,-1.7619,-1.751,-1.4144,-0.8057,-0.0231,-0.3499,-0.6962,-1.0524,-0.9785,-1.0301,-1.204,-1.5716,-1.6646,-1.5859,-1.5133,-1.4509,-1.3753,-1.2788,-1.1851,-1.0918,-1.156,0.0,0.0,0.0,0.0,0.0,0.0,0.0,0.0,0.0,0.0,0.0,0.0,0.0,0.0,0.0,0.0,0.0,0.0,0.0,0.0,0.0,0.0,0.0,0.0,-1.6373,-1.6529,-1.6488,-1.6731,-1.703,-1.6904,-1.7012,-1.7127,-1.7277,-1.7426,-1.7317,-1.7378,-1.767,-1.7812,-1.7813,-1.8057,-1.839,-1.8175,-1.8644,-1.8754,-1.8728,-1.8728,-1.8796,-1.8697,-1.8884,-1.8816,-1.8728,-1.8891,-1.8823,-1.8733,-1.8637,-1.8423,-1.8477,-1.8479,-1.8199,-1.7994,0.0,0.0,0.0,0.0,-1.7426,-1.7494,-0.8045,-0.8052,-0.8065,-0.8065,-0.8194,-0.8296,-0.8296,-0.856,-0.9286,-1.0758,-1.1511,-1.2515,-1.4122,-1.4997,-1.5594,-1.5934,-1.3223,-1.2284,-1.4571,-1.4524,-1.4808,-1.5832,-1.5974,-1.6408,-1.7222,-1.7507,-1.765,-1.767,-1.7846,-1.7577,-1.684,-1.7491,-1.1554,0.0,0.0,0.0,-0.046,-0.5935,-0.9022,-1.0649,-1.582,-1.7528,-1.6924,-1.611,-1.5395,-1.5006,-1.4202,-1.3178,-1.2205,-1.4084,0.0,0.0,0.0,0.0,0.0,0.0,0.0,0.0,0.0,0.0,0.0,0.0,0.0,0.0,0.0,0.0,0.0,0.0,0.0,0.0,0.0,0.0,0.0,0.0,-1.7257,-1.6927,-1.6971,-1.7133,-1.7154,-1.6969,-1.7029,-1.7317,-1.7906,-1.7854,-1.7998,-1.7901,-1.8036,-1.7947,-1.8101,0.0,0.0,0.0,0.0,-1.8694,-1.8751,-1.8972,-1.8784,-1.8905,-1.8784,-1.8972,-1.8717,-1.883,-1.8749,-1.8742,-1.8265,-1.8007,-1.7993,-1.8093,-1.8007,-1.794,-1.788,-1.7575,-1.6968,-1.7572,-1.7896,-1.7685,-0.8065,-0.814,-0.8228,-0.8228,-0.8343,-0.8438,-0.8438,-0.8798,-0.9523,-1.0785,-1.1782,-1.2868,-1.4156,-1.5181,-1.5764,-1.5757,-1.5459,-1.5209,-1.5234,-1.5798,-1.6042,-1.6035,-1.6734,-1.7256,-1.7555,-1.7616,-1.7704,-1.7826,-1.7894,-1.5512,-1.064,-1.5514,-1.1465,0.0,0.0,0.0,-0.0,-0.1365,-0.2031,-0.3123,-1.3684,-1.7704,-1.7182,-1.689,-1.6286,-1.5844,-1.5152,-1.4706,-1.4676,-1.6011,-1.5701,-1.4819,-1.4632,-1.4444,0.0,0.0,0.0,0.0,0.0,0.0,0.0,0.0,0.0,0.0,0.0,0.0,0.0,0.0,0.0,0.0,0.0,0.0,0.0,-1.6998,-1.7127,-1.7003,-1.6942,-1.7338,-1.7453,-1.7157,-1.7364,-1.7738,-1.7998,-1.7793,-1.8192,-1.8691,-1.8733,-1.8575,-1.8713,-1.8733,-1.8857,-1.8884,-1.8782,-1.8796,-1.8751,-1.9344,-1.9535,-1.9571,0.0,0.0,-1.8796,-1.8782,-1.8694,-1.8823,-1.8586,-1.8518,-1.8644,-1.861,-1.8677,-1.8448,-1.7632,-1.7059,-1.6916,-1.7177,-1.7116,-1.7116,-0.8275,-0.8323,-0.8377,-0.8377,-0.8499,-0.8594,-0.8594,-0.8913,-0.9585,-1.0792,-1.166,-1.2623,-1.3831,-1.4692,-1.5174,-1.5334,-1.5459,-1.5488,-1.5744,-1.6164,-1.6517,-1.6741,-1.7256,-1.7602,-1.7758,-1.7758,-1.7792,-1.786,-1.7935,-1.482,-0.8995,-0.8837,-0.5694,0.0,0.0,0.0,0.0,0.0,0.0,-0.0448,-0.6505,-1.069,-1.3388,-1.627,-1.7073,-1.6554,-1.5956,-1.5641,-1.576,-1.6771,-1.6546,-1.6105,-1.5684,-1.5711,-1.5403,0.0,0.0,0.0,0.0,0.0,0.0,0.0,0.0,0.0,0.0,0.0,0.0,0.0,0.0,-1.4882,0.0,0.0,-1.6919,-1.7009,-1.7012,-1.7136,-1.75,-1.767,-1.7724,-1.7425,-1.7619,-1.8002,-1.8321,-1.8301,-1.8396,-1.8788,-1.8858,-1.8699,-1.8768,-1.8768,-1.8871,-1.8864,-1.9035,-1.9077,-1.8751,-1.9159,-1.9166,-1.9214,-1.9145,-1.9125,-1.8864,-1.8796,-1.8728,-1.8891,-1.8891,-1.8836,-1.8768,-1.8699,-1.8809,-1.8642,-1.7806,-1.7338,-1.7304,-1.7008,-1.6975,-1.6975,-0.8526,-0.8554,-0.856,-0.8533,-0.8655,-0.8757,-0.8757,-0.9035,-0.9618,-1.0683,-1.1409,-1.2244,-1.3336,-1.3987,-1.438,-1.4661,-1.4678,-1.4983,-1.5995,-1.6354,-1.6815,-1.7439,-1.7609,-1.7738,-1.786,-1.786,-1.786,-1.786,-1.7948,-1.482,-0.8734,-0.2708,0.0,0.0,0.0,0.0,0.0,0.0,0.0,0.0,0.0,-0.2917,-0.7611,-1.2563,-1.5705,-1.7504,-1.6697,-1.6459,-1.6465,-1.691,-1.7245,-1.6975,-1.6544,-1.6316,-1.6152,-1.5711,-1.4335,0.0,0.0,0.0,0.0,0.0,0.0,0.0,0.0,0.0,-1.6204,-1.6335,-1.6173,-1.6444,-1.6985,-1.7003,-1.7071,-1.6936,-1.7063,-1.7446,-1.7812,-1.7935,-1.7989,-1.7989,-1.8111,-1.8233,-1.8858,-1.8754,-1.8788,-1.8699,-1.8768,-1.8586,-1.8586,-1.8823,-1.8891,-1.8796,-1.9261,-1.931,-1.8751,-1.8717,-1.8764,-1.8865,-1.8764,-1.8697,-1.8697,-1.8816,-1.8762,-1.8762,-1.8762,-1.8762,-1.8749,-1.8836,-1.8747,-1.8692,-1.8192,-1.7846,-1.7947,-1.7257,-1.7224,-1.7197,-0.8682,-0.8798,-0.8845,-0.871,-0.8811,-0.8913,-0.8913,-0.9279,-0.9754,-1.0283,-1.1212,-1.2088,-1.2759,-1.337,-1.3838,-1.4109,-1.4547,-1.5162,-1.5859,-1.6802,-1.7217,-1.7616,-1.7758,-1.7846,-1.786,-1.786,-1.786,-1.786,-1.7948,-1.4859,-0.881,-0.2699,0.0,0.0,0.0,0.0,0.0,0.0,0.0,0.0,0.0,-0.0449,-0.1121,-0.1785,-0.8604,-1.7906,-1.7669,-1.769,-1.7671,-1.777,-1.7713,-1.7622,-1.7066,-1.687,-1.6905,-1.6889,-1.5616,-1.4395,-1.5979,-1.6518,0.0,-1.645,-1.5512,-1.4532,0.0,0.0,-1.686,-1.6855,-1.6891,-1.6852,-1.7058,-1.6998,-1.6942,-1.6922,-1.7391,-1.7812,-1.786,-1.8424,-1.8699,-1.8699,-1.8713,-1.8781,-1.8694,-1.8728,-1.8782,-1.8898,-1.8317,-1.8026,-1.8026,-1.8503,-1.8816,-1.8717,-1.883,-1.883,-1.8751,-1.885,-1.8796,-1.8816,-1.8796,-1.8782,-1.8782,-1.8762,-1.8762,-1.8762,-1.8762,-1.8762,-1.8749,-1.8836,-1.8464,-1.8081,-1.7927,-1.7982,-1.7792,-1.7889,-1.7765,-1.7864,-0.8845,-0.8893,-0.892,-0.8852,-0.8899,-0.894,-0.894,-0.9171,-0.9503,-0.9951,-1.0622,-1.128,-1.1884,-1.2488,-1.2969,-1.3268,-1.4024,-1.4617,-1.5445,-1.6761,-1.7311,-1.7514,-1.7758,-1.7894,-1.786,-1.786,-1.786,-1.786,-1.7935,-1.4803,-0.875,-0.2689,0.0,0.0,0.0,0.0,0.0,0.0,0.0,0.0,0.0,0.0,0.0,0.0,-0.3096,-0.8326,-1.4122,-1.6557,0.0,-1.7154,-1.7685,-1.7789,-1.7552,-1.7572,-1.7533,-1.7596,-1.6665,-1.5825,-1.5945,0.0,0.0,0.0,-1.6665,-1.5961,-1.6112,-1.6682,-1.6904,-1.692,-1.691,-1.7026,-1.7087,-1.7229,-1.7621,0.0,-1.7772,-1.7955,-1.8445,-1.8733,-1.8871,-1.8788,-1.8694,-1.8796,-1.8762,-1.909,-1.909,-1.8728,-1.8654,-1.8383,-1.8383,-1.862,-1.8694,-1.885,-1.8796,-1.8796,-1.885,-1.8796,-1.8762,-1.8762,-1.8762,-1.8708,-1.8857,-1.8857,-1.8823,-1.8733,-1.8733,-1.8733,-1.8733,-1.8809,-1.8465,-1.7947,-1.7793,-1.7914,-1.786,-1.7792,-1.7964,-1.7909,-0.8927,-0.894,-0.894,-0.894,-0.894,-0.894,-0.894,-0.9062,-0.9266,-0.9591,-1.0066,-1.0602,-1.1206,-1.1728,-1.2162,-1.2313,-1.3128,-1.33,-1.2812,-1.545,-1.6694,-1.5933,-1.7079,-1.7894,-1.786,-1.786,-1.786,-1.786,-1.7914,-1.567,-1.118,-0.3576,0.0,0.0,0.0,0.0,0.0,0.0,0.0,0.0,0.0,0.0,0.0,0.0,-0.1543,-0.5018,-1.2248,-1.5301,-1.6002,-1.623,-1.6934,-1.7873,-1.7819,-1.7939,-1.7804,-1.7305,-1.6912,-1.655,-1.5418,0.0,0.0,-1.7408,-1.7242,-1.6955,-1.7064,-1.6913,-1.7044,-1.7053,-1.6962,-1.7049,-1.7311,-1.7662,-1.7854,-1.788,-1.7989,-1.841,-1.8788,-1.8694,-1.8749,-1.8912,-1.8843,-1.8691,-1.8776,-1.9111,-1.933,-1.8912,-1.8857,-1.8836,-1.8836,-1.8836,-1.8871,-1.8762,-1.8762,-1.8762,-1.8762,-1.8762,-1.8762,-1.8762,-1.8762,-1.8905,-1.8768,-1.8726,-1.8658,-1.8555,-1.8555,-1.8555,-1.8534,-1.8621,-1.8321,-1.7847,-1.7914,-1.786,-1.786,-1.786,-1.786,-1.786,-0.8906,-0.894,-0.894,-0.894,-0.894,-0.894,-0.894,-0.9062,-0.9157,-0.9171,-0.9693,-1.029,-1.0894,-1.1233,-1.1552,-1.1577,-1.2266,-1.0827,-0.6882,-1.2792,-1.5216,-1.2083,-1.5771,-1.786,-1.786,-1.786,-1.786,-1.786,-1.7914,-1.7726,-1.7314,-0.559,0.0,0.0,0.0,0.0,0.0,0.0,0.0,0.0,0.0,0.0,0.0,0.0,-0.5674,-1.3901,-1.4173,-1.4977,-1.5525,-1.4731,-1.6008,-1.8,-1.7886,-1.7924,-1.7633,-1.5844,-1.5596,-1.6038,-1.5348,-1.5978,-1.696,-1.6913,-1.7066,-1.6948,-1.6948,-1.6948,-1.6955,-1.6961,-1.6968,-1.7237,-1.7834,-1.7978,-1.7894,-1.7827,-1.8321,-1.8802,-1.8728,-1.8762,-1.9056,-1.9676,-1.8744,-1.8209,0.0,-1.8762,-1.883,-1.8731,-1.883,-1.8762,-1.8762,-1.8762,-1.8762,-1.8762,-1.8762,-1.8762,-1.8762,-1.8762,-1.8762,-1.8762,-1.8762,-1.8905,-1.8768,-1.8155,-1.7854,-1.7854,-1.7854,-1.7854,-1.7841,-1.7927,-1.786,-1.7847,-1.7914,-1.786,-1.786,-1.786,-1.786,-1.786,-0.8798,-0.8866,-0.894,-0.894,-0.894,-0.894,-0.894,-0.8981,-0.9008,-0.9008,-0.9449,0.0,0.0,0.0,0.0,0.0,-0.9356,-0.8865,-1.0812,-1.4603,-1.6366,-1.5102,-1.685,-1.7792,-1.786,-1.786,-1.786,-1.786,-1.788,-1.7914,-1.7719,-0.9605,-0.3799,0.0,0.0,0.0,0.0,0.0,0.0,0.0,0.0,0.0,0.0,0.0,-0.5731,-1.3693,0.0,-1.4267,-1.4514,-1.4417,-1.4943,-1.5554,-1.5989,-1.6299,-1.6731,-1.6374,-1.6205,-1.6055,-1.5936,-1.6426,-1.6975,-1.7107,-1.7311,-1.7641,-1.7641,-1.7641,-1.7641,-1.7641,-1.7641,-1.7689,-1.7847,-1.7909,-1.8074,-1.841,-1.8644,-1.8823,-1.8749,-1.918,-1.9435,-1.9184,-1.863,0.0,0.0,0.0,0.0,-1.885,-1.8796,-1.8762,-1.8762,-1.8762,-1.8762,-1.8762,-1.8762,-1.8762,-1.8762,-1.8762,-1.8708,-1.8132,-1.8644,-1.852,-1.8233,-1.8091,-1.7793,-1.7793,-1.7793,-1.7793,-1.7793,-1.7968,-1.7935,-1.7935,-1.788,-1.786,-1.786,-1.786,-1.786,-1.786,-0.8798,-0.8872,-0.894,-0.894,-0.894,0.0,0.0,0.0,0.0,0.0,0.0,0.0,0.0,0.0,0.0,0.0,0.0,-0.8659,-1.0752,-1.3897,-1.598,-1.6219,-1.6627,-1.7182,-1.746,-1.7365,-1.7385,-1.7548,-1.7548,-1.7629,-1.7772,-1.3985,-0.7751,0.0,0.0,0.0,0.0,0.0,0.0,0.0,0.0,0.0,0.0,0.0,-0.5913,0.0,-1.3815,-1.3789,-1.3951,-1.4258,-1.4336,-1.4447,-1.5099,-1.5596,-1.6259,-1.6786,-1.6749,-1.6326,-1.6406,-1.6808,-1.7236,-1.7244,-1.7582,-1.7834,-1.7944,-1.7964,-1.7944,-1.7895,-1.7895,-1.7875,-1.765,-1.7738,-1.8122,-1.8663,-1.8879,-1.8836,-1.8816,-1.9159,-1.9132,-1.8877,-1.8749,-1.8749,0.0,0.0,0.0,-1.8762,-1.8762,-1.8762,-1.8762,-1.8762,-1.8762,-1.8762,-1.8762,-1.8762,-1.8762,-1.8762,-1.8456,-1.8059,-1.8465,-1.8321,-1.8091,-1.7935,-1.786,-1.786,-1.786,-1.786,-1.786,-1.786,-1.786,-1.786,-1.786,-1.786,-1.786,-1.786,-1.786,-1.786,-0.8789,-0.8933,-0.894,0.0,0.0,0.0,0.0,0.0,0.0,0.0,0.0,0.0,0.0,0.0,0.0,0.0,0.0,0.0,-0.6794,-1.1031,-1.4229,-1.5394,-1.5643,-1.6117,-1.67,-1.6449,-1.6517,-1.6937,-1.6937,-1.71,-1.7426,-1.7696,-1.1537,-0.0434,-0.0218,0.0,0.0,0.0,0.0,0.0,0.0,0.0,-0.0,-0.0608,-0.7166,-1.5694,-1.4071,-1.3568,-1.3804,-1.374,-1.4028,-1.4482,-1.5059,-1.5643,-1.6187,-1.6897,-1.6998,-1.708,-1.7143,-1.7552,-1.7995,-1.7998,-1.788,-1.7968,-1.8014,-1.7854,-1.8034,-1.788,-1.7847,-1.7753,0.0,0.0,-1.8057,-1.8762,-1.8802,-1.8877,-1.9159,-1.8967,-1.8823,0.0,0.0,0.0,0.0,0.0,0.0,-1.8749,-1.8762,-1.8762,-1.8762,-1.8762,-1.8762,-1.8762,-1.8762,-1.8762,-1.8762,-1.8742,-1.8654,-1.8511,-1.8219,-1.8301,-1.8301,-1.7935,-1.786,-1.786,-1.786,-1.786,-1.786,-1.786,-1.786,-1.786,-1.786,-1.786,-1.786,-1.786,-1.786,-1.786,0.0,0.0,0.0,0.0,0.0,0.0,0.0,0.0,0.0,0.0,0.0,0.0,0.0,0.0,0.0,0.0,0.0,0.0,-1.0679,-1.2024,-1.3474,-1.4651,-1.5398,-1.5872,-1.6246,-1.6293,-1.6313,-1.6313,-1.6313,-1.6354,-1.6442,-1.7151,-1.3615,-0.6362,-0.2044,0.0,0.0,0.0,0.0,0.0,0.0,0.0,-0.0786,-0.7883,-1.2331,-1.4647,-1.3203,-1.2959,-1.315,-1.335,-1.4127,0.0,0.0,-1.6272,-1.6802,-1.6985,0.0,-1.8192,-1.7704,-1.7724,-1.7998,-1.7893,-1.8199,-1.8465,-1.8534,-1.8555,-1.8486,-1.8656,-1.8295,-1.793,0.0,0.0,0.0,-1.8108,-1.85,0.0,-1.8262,-1.8383,0.0,-1.8222,0.0,-1.8141,-1.8375,-1.8409,0.0,0.0,-1.8694,-1.8762,-1.8762,-1.8762,-1.8762,-1.8762,-1.8762,-1.8762,-1.8762,-1.8545,-1.8355,-1.8199,-1.8002,-1.7914,-1.7914,-1.788,-1.786,-1.786,-1.786,-1.786,-1.786,-1.786,-1.786,-1.786,-1.786,-1.786,-1.786,-1.786,-1.786,-1.786,0.0,0.0,0.0,0.0,0.0,0.0,0.0,0.0,0.0,0.0,0.0,0.0,0.0,0.0,0.0,0.0,0.0,0.0,0.0,-1.2251,-1.2926,-1.3899,-1.4394,-1.4862,-1.5289,-1.5255,-1.535,-1.5594,-1.5398,-1.5432,-1.5683,-1.6022,-1.3421,-0.8521,-0.4628,-0.1739,0.0,0.0,0.0,0.0,0.0,-0.5802,-0.6472,-1.1792,-1.3974,-1.3749,-1.2907,-1.2771,-1.3324,-1.4641,-1.543,-1.6022,-1.6388,-1.6775,-1.7134,-1.7538,0.0,-1.8382,-1.7989,-1.8023,-1.8266,-1.8335,-1.8644,-1.8879,-1.8879,-1.8879,-1.8788,-1.8712,-1.8122,-1.7532,-1.7473,-1.7133,-1.7299,0.0,0.0,0.0,-1.8423,-1.8262,-1.8282,0.0,-1.8034,0.0,-1.8321,-1.8375,-1.8443,0.0,-1.862,-1.8694,-1.8762,-1.8762,-1.8762,-1.8762,-1.8762,-1.8728,-1.8891,-1.8423,-1.8247,-1.8321,-1.7935,-1.786,-1.786,-1.786,-1.786,-1.786,-1.786,-1.786,-1.786,-1.786,-1.786,-1.786,-1.786,-1.786,-1.786,-1.786,-1.786,-1.786,0.0,0.0,0.0,0.0,0.0,0.0,0.0,0.0,0.0,-0.9069,-0.901,-0.9118,0.0,0.0,0.0,0.0,0.0,0.0,0.0,0.0,-1.2615,-1.303,-1.322,-1.3587,-1.417,-1.3939,-1.4122,-1.476,-1.4373,-1.4441,-1.4943,-1.4544,-1.2595,-0.9105,-0.6543,-0.3999,-0.164,-0.1632,-0.163,-0.2353,-1.017,-1.3248,-1.3275,0.0,-1.3329,-1.3157,-1.2814,-1.3068,-1.3861,-1.6205,-1.6962,-1.7049,-1.7092,-1.714,-1.7387,-1.8361,-1.8246,-1.7826,-1.7981,-1.8233,-1.8909,-1.8733,-1.8802,-1.8788,-1.8768,-1.8747,-1.8644,-1.8783,-1.7806,-1.721,-1.7224,-1.7059,-1.7314,-1.786,0.0,-1.8275,-1.8713,-1.8623,-1.8321,-1.8747,-1.8186,-1.8145,-1.8514,-1.8409,-1.8477,-1.8477,-1.8477,-1.8552,-1.8742,-1.8762,-1.8762,-1.8762,-1.8749,-1.8891,-1.8733,-1.8355,-1.8219,-1.8287,-1.7935,-1.786,-1.786,-1.786,-1.786,-1.786,-1.786,-1.786,-1.786,-1.786,-1.786,-1.786,-1.786,-1.786,-1.786,-1.786,-1.786,-1.786,0.0,0.0,0.0,0.0,0.0,0.0,0.0,0.0,0.0,0.0,-0.96,-0.9401,0.0,0.0,0.0,0.0,0.0,0.0,0.0,0.0,0.0,-1.2413,-1.2705,-1.3071,-1.3546,-1.3627,-1.3668,-1.3675,-1.3593,-1.3607,-1.3709,-1.3695,-1.3167,-1.2125,-0.4546,-0.4558,-1.0253,-1.0404,-1.0367,-1.0414,-1.1971,-1.263,-1.2682,-1.2657,0.0,0.0,-1.3617,-1.4208,-1.4805,-1.6342,-1.6998,-1.6946,-1.7195,-1.7532,-1.7779,-1.81,-1.7935,-1.7981,-1.7841,-1.8389,-1.8733,-1.8905,-1.8728,-1.8694,-1.8802,-1.8443,0.0,-1.804,-1.7944,-1.7813,-1.7791,-1.7297,-1.7405,-1.8382,-1.8628,-1.8678,-1.8888,-1.8486,-1.8267,0.0,-1.8342,-1.8342,-1.8131,-1.8165,0.0,0.0,-1.8165,-1.8342,-1.8742,-1.8762,-1.8762,-1.8762,-1.8871,-1.8733,-1.8589,-1.8445,-1.828,-1.7901,-1.788,-1.786,-1.786,-1.786,-1.786,-1.786,-1.786,-1.786,-1.786,-1.786,-1.786,-1.786,-1.786,-1.786,-1.786,-1.786,-1.786,-1.786,0.0,0.0,0.0,0.0,0.0,0.0,0.0,-0.9097,-0.9361,-0.9849,-1.0236,-1.0364,-0.9992,-0.9829,-0.9944,0.0,0.0,0.0,0.0,0.0,0.0,-1.1623,-1.2298,-1.2793,-1.2929,-1.3246,-1.337,-1.3117,0.0,-1.3017,-1.3336,-1.3024,-1.2969,-1.2816,-0.85,-0.8678,-1.2501,-1.2509,-1.2311,-1.2026,-1.245,-1.2463,-1.2509,-1.243,0.0,0.0,-1.3547,-1.4449,-1.5188,-1.5938,-1.6504,-1.7141,-1.7387,-1.7635,-1.8003,-1.7944,-1.7968,-1.8213,-1.8301,-1.8658,-1.8802,-1.8728,-1.8762,-1.8708,-1.872,0.0,0.0,-1.7498,-1.7425,-1.7534,-1.7819,-1.7358,-1.7458,-1.8587,-1.8839,-1.8893,-1.8818,-1.8465,-1.8034,-1.8104,-1.8253,-1.8462,0.0,-1.8091,-1.8091,-1.8091,-1.8158,-1.8342,-1.8857,-1.8803,-1.8884,-1.8884,-1.896,-1.8823,-1.8665,-1.8431,-1.8246,-1.786,-1.786,-1.786,-1.786,-1.786,-1.786,-1.786,-1.786,-1.786,-1.786,-1.786,-1.786,-1.786,-1.786,-1.786,-1.786,-1.786,-1.786,-1.786,0.0,0.0,0.0,0.0,0.0,0.0,-0.8853,-0.9051,-0.9422,-1.0328,-1.1036,-1.1177,-1.0527,-0.983,-0.9634,0.0,0.0,0.0,0.0,0.0,0.0,0.0,0.0,0.0,-1.256,0.0,0.0,-1.2862,-1.2671,0.0,0.0,0.0,0.0,0.0,-1.2467,-1.2474,-1.2494,-1.2467,-1.2159,0.0,0.0,-1.2481,-1.2501,0.0,0.0,0.0,0.0,-1.4263,-1.5229,-1.5204,-1.5952,-1.6907,-1.7209,-1.7593,-1.7871,-1.7724,-1.7955,-1.8356,-1.8747,-1.8685,-1.8836,-1.8728,-1.8762,-1.8694,-1.863,-1.8186,-1.7719,-1.7213,-1.6929,-1.7074,-1.769,-1.7425,-1.7282,-1.8417,-1.8608,-1.8623,-1.8818,-1.8233,-1.7802,-1.788,-1.7989,0.0,-1.8762,-1.8321,0.0,-1.7813,-1.8213,-1.8389,-1.8802,-1.885,-1.8993,-1.8986,-1.9083,-1.8912,-1.8733,-1.8465,-1.8023,-1.786,-1.786,-1.786,-1.786,-1.786,-1.786,-1.786,-1.786,-1.786,-1.786,-1.786,-1.786,-1.786,-1.7901,-1.7901,-1.786,-1.7901,-1.7901,-1.786,0.0,0.0,0.0,0.0,0.0,0.0,-0.8852,-0.9651,-1.0625,-1.2065,-1.1332,-1.0902,-1.1434,-1.0511,-0.9729,0.0,0.0,0.0,0.0,0.0,0.0,0.0,0.0,0.0,0.0,0.0,0.0,-1.2562,-1.2522,0.0,0.0,0.0,0.0,0.0,0.0,-1.2471,-1.2471,-1.2471,0.0,0.0,0.0,0.0,0.0,0.0,0.0,0.0,0.0,-1.3804,-1.4468,-1.5147,-1.5716,-1.6266,-1.6985,-1.7216,-1.749,-1.7582,-1.786,-1.8356,-1.8514,-1.8768,-1.8749,-1.8762,-1.8762,-1.8694,-1.8389,-1.8091,-1.7792,-1.7061,-1.6994,-1.717,-1.7882,-1.7351,-1.7197,-1.7846,-1.79,-1.828,-1.8797,-1.8233,-1.7802,-1.788,0.0,0.0,-1.8321,-1.8321,-1.8266,-1.7901,-1.7927,-1.8208,-1.8728,-1.8898,-1.8986,-1.9228,-1.885,-1.8857,-1.8809,-1.8179,-1.8016,-1.786,-1.786,-1.786,-1.786,-1.786,-1.786,-1.786,-1.786,-1.786,-1.786,-1.786,-1.786,-1.788,-1.8023,-1.7989,-1.788,-1.8023,-1.7989,-1.786,0.0,0.0,0.0,0.0,0.0,0.0,-0.8937,-1.013,-1.1579,-1.2856,-1.287,-1.2714,-1.2254,-1.0757,-0.977,-0.978,0.0,0.0,0.0,0.0,0.0,0.0,0.0,0.0,0.0,0.0,-1.2501,-1.2501,-1.2501,0.0,0.0,0.0,0.0,0.0,0.0,-1.2203,-1.245,-1.245,0.0,0.0,0.0,0.0,0.0,0.0,0.0,0.0,0.0,0.0,-1.4333,-1.4536,-1.5147,-1.5879,-1.6266,-1.6632,-1.706,-1.7717,-1.8057,-1.8267,-1.8409,-1.8606,-1.8762,-1.8762,-1.8687,-1.8565,-1.8369,-1.8091,-1.7772,-1.7041,-1.6975,-1.715,-1.7875,-1.7635,-1.718,-1.7272,-1.7686,-1.8091,-1.8684,-1.8287,-1.7841,-1.7994,-1.7914,0.0,0.0,0.0,-1.7968,-1.8002,-1.7821,-1.8112,-1.8884,-1.9047,-1.9358,-1.9602,-1.9456,-1.924,-1.8913,-1.8213,-1.7793,-1.786,-1.786,-1.786,-1.786,-1.786,-1.786,-1.786,-1.786,-1.786,-1.786,-1.786,-1.786,-1.786,-1.7935,-1.7914,-1.786,-1.7935,-1.7914,-1.786,0.0,0.0,0.0,0.0,0.0,-0.8922,-0.884,-1.0591,-1.2248,-1.3219,-1.3931,-1.3796,-1.2678,-1.1402,-1.043,-0.9909,-1.0378,0.0,0.0,0.0,0.0,0.0,0.0,0.0,0.0,0.0,-1.2461,-1.2501,-1.2501,-1.2501,0.0,0.0,-1.2223,-1.1592,0.0,0.0,0.0,0.0,0.0,0.0,0.0,0.0,0.0,0.0,0.0,0.0,0.0,0.0,0.0,0.0,0.0,-1.5615,-1.5845,-1.63,-1.691,-1.7717,-1.8091,-1.8287,-1.8477,-1.864,-1.8762,-1.8762,-1.8633,-1.8262,-1.8355,-1.8091,-1.7779,-1.7264,-1.7197,-1.7163,-1.7725,-1.7538,-1.7426,-1.7213,-1.7565,-1.8177,-1.8677,-1.8548,-1.8369,-1.8088,0.0,0.0,0.0,-1.7894,-1.7948,-1.7914,-1.8155,-1.845,-1.9027,-1.9434,-1.9748,-1.9692,-1.9602,-1.9132,-1.8768,-1.828,-1.7847,-1.7935,-1.788,-1.786,-1.786,-1.786,-1.786,-1.786,-1.786,-1.786,-1.786,-1.7914,-1.7935,-1.7935,-1.7982,-1.7968,-1.7935,-1.7989,-1.7935,-1.786,0.0,0.0,0.0,0.0,0.0,0.0,-0.8854,-1.0934,-1.2692,-1.3375,-1.387,-1.3804,-1.2677,-1.2446,-1.1747,-0.9921,-1.031,0.0,0.0,0.0,0.0,0.0,0.0,0.0,0.0,0.0,-1.2519,-1.2501,-1.2501,-1.2501,-1.2494,-1.2512,-1.2216,-1.1599,0.0,0.0,0.0,0.0,0.0,0.0,0.0,0.0,-0.0782,0.0,0.0,0.0,0.0,0.0,0.0,0.0,0.0,0.0,0.0,-1.6598,-1.7085,-1.748,-1.786,-1.8158,-1.8443,-1.864,-1.8762,-1.8762,-1.864,-1.8498,-1.8355,-1.8321,-1.8225,-1.7933,-1.7419,-1.7197,-1.7864,-1.7732,-1.7344,-1.7338,-1.786,-1.8371,-1.8301,-1.8809,-1.9184,0.0,0.0,-1.7788,-1.788,-1.7948,-1.7982,-1.7841,-1.8443,0.0,-1.9671,-1.9592,-1.9612,-1.9692,-1.9196,-1.8751,-1.8768,-1.8155,-1.7994,-1.786,-1.7935,-1.786,-1.786,-1.786,-1.786,-1.786,-1.786,-1.786,-1.788,-1.7793,-1.786,-1.788,-1.7788,-1.7981,-1.788,-1.8267,-1.8124,-1.788,0.0,0.0,0.0,0.0,0.0,0.0,-0.8854,-1.0575,-1.2145,-1.2764,-1.3312,-1.3363,-1.2525,-1.2445,-1.1818,-0.9918,-1.0337,0.0,0.0,0.0,0.0,0.0,0.0,0.0,0.0,-1.2261,-1.2464,-1.2494,-1.2494,-1.2494,-1.2494,-1.2454,-1.225,-1.1593,-1.1596,-1.161,0.0,0.0,0.0,0.0,0.0,-0.7505,-0.0156,0.0,0.0,0.0,0.0,0.0,0.0,0.0,0.0,0.0,0.0,0.0,0.0,-1.7046,-1.7616,-1.8124,-1.8335,-1.8423,-1.8464,-1.8464,-1.8267,-1.8091,-1.8145,-1.8232,-1.7998,-1.7703,-1.7419,-1.7203,-1.7641,-1.7518,-1.7405,-1.7847,-1.8002,-1.8057,-1.862,-1.8836,0.0,-1.8477,-1.8431,-1.8441,0.0,0.0,-1.7813,-1.7954,-1.8843,-1.9606,-1.9592,-1.975,-1.9715,-1.9692,-1.9196,-1.8697,-1.8858,-1.8575,-1.8199,-1.7935,-1.788,-1.786,-1.786,-1.7968,-1.7793,-1.7793,-1.7893,-1.7947,-1.7947,-1.7994,-1.8014,-1.8247,-1.8074,-1.8054,-1.8014,-1.8068,-1.7967,-1.7793,0.0,0.0,0.0,0.0,0.0,0.0,-0.8916,-1.0096,-1.1247,-1.2051,-1.2554,-1.2543,-1.2251,-1.2002,-1.134,-0.9899,-1.0149,0.0,0.0,0.0,0.0,0.0,0.0,0.0,-1.1312,-1.2004,-1.256,-1.2489,-1.2655,-1.282,-1.2813,-1.2657,-1.2246,-1.1898,-1.175,-1.161,0.0,0.0,0.0,0.0,-1.2494,-0.9361,-0.4385,0.0,0.0,0.0,0.0,0.0,0.0,0.0,0.0,0.0,0.0,0.0,0.0,0.0,-1.7297,-1.7826,-1.8145,-1.8267,-1.8321,-1.8321,-1.8131,-1.7968,-1.8301,-1.8156,-1.7944,-1.7689,-1.7378,-1.7351,-1.7412,-1.7297,-1.7399,-1.8036,-1.7982,-1.807,-1.8654,-1.8565,0.0,-1.8208,0.0,0.0,0.0,-1.7982,-1.7927,-1.7954,-1.9035,-1.9768,-1.975,-1.9798,-1.9715,-1.9692,-1.9196,-1.8731,-1.8733,-1.861,-1.8253,-1.788,-1.8002,-1.7982,-1.7813,-1.7893,-1.7947,-1.8179,-1.828,-1.828,0.0,-1.8355,-1.8375,-1.8555,-1.8375,-1.8409,-1.8175,-1.8175,-1.8267,-1.8321,0.0,0.0,0.0,0.0,0.0,0.0,0.0,-0.9353,-1.0114,-1.1254,-1.1537,-1.1573,-1.1556,-1.1107,-1.0443,-0.9889,-0.9882,0.0,0.0,0.0,0.0,0.0,0.0,0.0,-1.0718,-1.1907,-1.2505,-1.2448,-1.3143,-1.3493,-1.35,-1.2868,-1.2556,-1.2414,-1.1797,-1.1643,0.0,0.0,0.0,0.0,-1.2553,-1.2461,0.0,0.0,0.0,0.0,0.0,0.0,0.0,0.0,0.0,0.0,0.0,0.0,0.0,0.0,0.0,0.0,0.0,-1.8376,-1.8267,-1.8514,-1.841,-1.8287,-1.8301,-1.8088,0.0,-1.7899,-1.7311,-1.7036,-1.7392,-1.7304,-1.7358,-1.7826,-1.7901,-1.8002,-1.8301,-1.8335,0.0,0.0,-1.8179,0.0,-1.8321,-1.8192,-1.7888,-1.7975,-1.9006,-1.9692,-1.9644,-1.9763,-1.9612,-1.9692,-1.9183,-1.8798,-1.8749,-1.8242,-1.7921,-1.7811,-1.8001,-1.7947,-1.7854,-1.7854,-1.8321,-1.8809,-1.8809,-1.8719,-1.8839,-1.8665,-1.8699,-1.8823,-1.8733,-1.8788,-1.8788,-1.8788,-1.8823,-1.8818,0.0,0.0,0.0,0.0,0.0,0.0,0.0,0.0,0.0,0.0,-1.034,-1.0867,-1.0968,-1.0751,-1.0671,0.0,0.0,0.0,0.0,0.0,0.0,0.0,0.0,0.0,-1.0725,-1.1907,-1.2456,-1.2463,-1.3633,-1.4038,-1.3992,-1.303,-1.2546,-1.2407,-1.1939,-1.1927,0.0,0.0,0.0,0.0,-1.2313,-1.2508,0.0,0.0,0.0,0.0,-0.2251,-0.7439,0.0,0.0,0.0,0.0,0.0,0.0,0.0,0.0,-1.6493,-1.708,-1.7331,0.0,-1.8281,-1.8177,-1.786,-1.7772,0.0,-1.7867,-1.7738,-1.7257,-1.717,-1.7157,-1.7412,-1.7392,-1.7555,-1.8124,-1.8213,-1.8321,-1.862,-1.8464,0.0,-1.8457,-1.8145,-1.807,-1.8208,-1.8589,-1.8934,-1.8952,-1.9344,-1.9796,-1.9644,-1.9515,-1.9119,-1.8959,-1.8851,-1.8898,-1.8823,-1.8747,-1.8443,-1.7907,-1.8308,-1.852,-1.8555,-1.8555,-1.861,-1.872,-1.872,-1.8699,-1.8678,-1.8396,-1.8383,-1.8733,-1.8891,-1.8708,-1.8708,-1.8708,-1.8754,-1.8733,0.0,0.0,0.0,0.0,0.0,0.0,0.0,0.0,0.0,0.0,-0.9673,-1.0445,-1.0719,-1.0746,-1.0628,0.0,0.0,0.0,0.0,0.0,0.0,0.0,0.0,-1.109,-1.1162,-1.1762,-1.2196,-1.2442,-1.3418,-1.4237,-1.4714,-1.4124,-1.359,-1.331,-1.2057,-1.196,0.0,0.0,0.0,-1.2017,-1.2427,0.0,0.0,0.0,0.0,0.0,-0.4415,-0.91,0.0,-1.4102,-1.4733,-1.5221,0.0,0.0,0.0,0.0,-1.6625,-1.691,-1.7053,-1.7586,-1.8121,-1.7964,-1.7704,-1.767,-1.7758,-1.793,-1.7841,-1.7453,-1.7143,-1.7136,-1.7277,-1.7528,-1.7684,-1.8145,-1.8267,-1.8389,-1.862,0.0,-1.8586,-1.8443,-1.8287,-1.8233,0.0,-1.8665,-1.908,-1.9303,-1.9468,-1.966,-1.9644,-1.9447,-1.9046,-1.8714,-1.8751,-1.8816,-1.8871,-1.8802,-1.8538,-1.8282,-1.8678,-1.8699,-1.8754,-1.8754,-1.8572,-1.8403,-1.864,-1.8836,-1.8788,-1.8212,-1.8198,-1.8788,-1.8708,-1.8762,-1.8762,-1.8762,-1.8802,-1.8788,0.0,0.0,0.0,0.0,0.0,0.0,0.0,0.0,0.0,0.0,0.0,0.0,0.0,0.0,0.0,0.0,0.0,0.0,0.0,0.0,0.0,0.0,-1.1277,-1.1632,-1.1529,-1.165,-1.196,-1.2437,-1.3204,-1.4069,-1.5038,-1.5174,-1.4732,-1.3931,-1.2353,-1.1914,-1.2536,-1.256,-1.2546,-1.2494,-1.2525,0.0,0.0,0.0,0.0,0.0,0.0,0.0,0.0,-1.4243,-1.4825,-1.5479,-1.6089,0.0,0.0,0.0,0.0,0.0,-1.6985,-1.7324,-1.7841,-1.7875,-1.7895,-1.7909,-1.769,-1.7806,-1.771,-1.7906,-1.7573,-1.713,-1.7404,-1.7465,-1.7772,-1.8077,-1.8253,-1.8389,-1.8477,-1.8728,-1.8742,-1.8375,-1.8409,0.0,-1.8355,-1.8726,-1.9001,-1.9392,-1.9605,-1.9763,-1.9664,-1.9393,-1.9217,-1.8952,-1.8932,-1.8782,-1.8762,-1.8836,-1.8823,-1.8694,-1.8823,-1.8836,-1.8728,-1.8728,-1.8503,-1.8046,-1.847,-1.8871,-1.8768,-1.8179,-1.8396,-1.8788,-1.8905,-1.8749,-1.8762,-1.8749,-1.8788,-1.8788,0.0,0.0,0.0,0.0,0.0,0.0,0.0,0.0,0.0,0.0,0.0,0.0,0.0,0.0,0.0,0.0,0.0,0.0,0.0,0.0,0.0,-1.0692,-1.1248,-1.1664,-1.1669,-1.1554,-1.1967,-1.247,-1.3587,-1.4311,-1.4448,-1.5035,-1.4297,-1.2782,-1.1972,-1.2,-1.2543,-1.2512,-1.2481,-1.2501,-1.2481,0.0,0.0,0.0,0.0,0.0,0.0,0.0,0.0,-1.4819,-1.5505,-1.6039,-1.6645,0.0,0.0,0.0,0.0,0.0,-1.677,-1.6961,-1.7264,-1.7841,-1.7964,-1.7826,-1.7151,-1.7131,-1.7305,-1.7854,-1.782,-1.7629,-1.7112,-1.7599,-1.7935,-1.8459,-1.8409,-1.8464,0.0,0.0,-1.8389,-1.8321,0.0,-1.8247,-1.8477,-1.8762,-1.8959,-1.9027,-1.94,-1.9644,-1.9664,-1.9481,-1.9339,-1.8959,-1.8805,-1.8884,-1.8762,-1.8836,-1.872,-1.8858,-1.872,-1.8788,-1.8802,-1.8802,-1.864,-1.8742,-1.8733,-1.8913,-1.8768,-1.8665,-1.8678,-1.8768,-1.8788,-1.8891,-1.8749,-1.8857,-1.8699,-1.8754,0.0,0.0,0.0,0.0,0.0,0.0,0.0,0.0,0.0,0.0,0.0,0.0,0.0,0.0,0.0,0.0,0.0,0.0,0.0,0.0,-1.0819,-1.1206,-1.1518,-1.1543,-1.1593,-1.2219,-1.2483,-1.2484,-1.2998,-1.3926,-1.5307,-1.4956,-1.4021,-1.2949,-1.1998,-1.1867,-1.2543,-1.2532,-1.2501,-1.2501,0.0,0.0,0.0,0.0,0.0,0.0,0.0,0.0,0.0,0.0,-1.5465,-1.5811,-1.6254,0.0,0.0,0.0,0.0,0.0,-1.6869,-1.7518,-1.7926,-1.793,-1.7812,-1.786,-1.7632,-1.7477,-1.7497,-1.7792,-1.7978,-1.7792,-1.7612,-1.7706,-1.8111,-1.8498,0.0,-1.864,-1.8565,-1.864,-1.8586,0.0,0.0,-1.8443,-1.8423,-1.8762,-1.9027,-1.9094,-1.9447,-1.9664,-1.9664,-1.9522,-1.9359,-1.9203,-1.8986,-1.8762,-1.8531,-1.861,-1.8623,-1.8316,-1.8295,-1.8565,-1.8891,-1.8891,-1.8891,-1.8871,-1.8733,-1.8658,-1.8409,-1.8589,-1.8589,-1.8423,-1.8733,-1.8768,-1.8733,-1.8355,-1.8253,-1.8165,0.0,0.0,0.0,0.0,0.0,0.0,0.0,0.0,0.0,0.0,0.0,0.0,0.0,0.0,0.0,0.0,0.0,0.0,0.0,-1.0498,-1.118,-1.1603,-1.1911,-1.1958,-1.174,-1.2827,-1.3356,-1.3063,-1.3288,-1.4377,-1.6222,-1.5167,-1.4098,-1.3212,-1.2063,-1.1919,-1.2442,-1.2546,-1.2501,-1.2501,0.0,0.0,0.0,0.0,0.0,0.0,0.0,0.0,0.0,0.0,0.0,0.0,0.0,0.0,0.0,-1.6132,-1.6567,-1.7023,-1.7066,-1.7718,-1.8387,-1.8019,-1.7846,-1.7846,-1.8177,-1.8009,-1.8023,-1.8211,-1.7968,-1.7982,-1.7793,-1.7914,0.0,-1.8762,-1.8762,0.0,0.0,0.0,-1.864,-1.8247,-1.8477,-1.8531,-1.8247,-1.8708,-1.9061,-1.9094,-1.9447,-1.9664,-1.9664,-1.9556,-1.9413,-1.9257,-1.904,-1.8782,-1.8477,-1.852,-1.8335,-1.7895,-1.8046,-1.8329,-1.8708,-1.8749,-1.8905,-1.8768,-1.8733,-1.8423,-1.7854,-1.8479,-1.8253,-1.7854,-1.8409,-1.8589,-1.8486,-1.8124,-1.7847,-1.7793,0.0,0.0,0.0,0.0,0.0,0.0,0.0,0.0,0.0,0.0,0.0,0.0,0.0,0.0,0.0,0.0,0.0,0.0,0.0,-1.0906,-1.1553,-1.1606,-1.2627,-1.3047,-1.2446,-1.3005,-1.4013,-1.4999,-1.5575,-1.6245,-1.6831,-1.5768,-1.4231,-1.2503,-1.1924,-1.1914,-1.2443,-1.244,-1.2501,-1.2501,-1.2501,0.0,0.0,0.0,0.0,0.0,0.0,0.0,0.0,0.0,0.0,0.0,0.0,0.0,-1.6842,-1.6197,-1.6432,-1.7092,-1.7001,-1.7514,-1.794,-1.8012,-1.7978,-1.8005,-1.8663,-1.8762,-1.8642,-1.8698,-1.8287,-1.7854,-1.7987,-1.8362,-1.8776,-1.8697,-1.8721,-1.8498,-1.8375,0.0,-1.8091,-1.7914,-1.8165,-1.8233,-1.7935,-1.8674,-1.9081,-1.8816,-1.9325,-1.9664,-1.9664,-1.9644,-1.9576,-1.9413,-1.9393,-1.9237,-1.8938,-1.8654,-1.8375,-1.8145,-1.85,-1.8644,-1.8788,-1.8694,-1.8905,-1.8768,-1.8155,-1.7874,-1.7841,-1.8016,-1.7827,-1.7841,-1.7947,-1.788,-1.788,-1.786,-1.8002,-1.788,0.0,0.0,0.0,0.0,0.0,0.0,0.0,0.0,0.0,0.0,0.0,0.0,0.0,0.0,0.0,0.0,0.0,0.0,0.0,-1.0906,-1.1596,-1.1576,-1.2456,-1.3019,-1.3556,-1.4208,-1.4935,-1.576,-1.6444,-1.6518,-1.6356,-1.5632,-1.4311,-1.2483,-1.2217,-1.232,-1.2457,-1.244,-1.2501,-1.2501,-1.2501,-1.2501,0.0,0.0,0.0,0.0,0.0,0.0,0.0,0.0,-1.5855,-1.6546,-1.646,-1.6731,-1.7037,-1.6788,-1.7155,-1.7569,-1.7009,-1.7237,-1.7391,-1.7806,-1.7968,-1.788,-1.7815,-1.8301,-1.8788,-1.8893,-1.8531,-1.8403,-1.8557,-1.8946,-1.9184,-1.8952,-1.849,-1.8282,-1.8457,-1.8321,-1.8213,-1.8158,-1.8247,-1.8267,-1.8165,-1.8708,-1.9027,-1.9159,-1.9379,-1.9664,-1.9664,-1.9569,-1.9481,-1.9434,-1.9169,-1.8959,-1.885,-1.8464,-1.8247,-1.8233,-1.852,-1.863,-1.8768,-1.8694,-1.8871,-1.8858,-1.8108,-1.7981,-1.7793,-1.7914,-1.7935,-1.7813,-1.7968,-1.8002,-1.7847,-1.7982,-1.7914,-1.786,0.0,0.0,0.0,0.0,0.0,0.0,0.0,0.0,0.0,0.0,0.0,0.0,0.0,0.0,0.0,0.0,0.0,0.0,-0.9799,-1.0726,-1.1403,-1.1583,-1.2054,-1.2704,-1.3753,-1.4263,-1.5181,-1.6004,-1.6574,-1.6467,-1.589,-1.5357,-1.4156,-1.2514,-1.2527,-1.2494,-1.2569,-1.2569,-1.2542,-1.2501,-1.2501,-1.2501,0.0,0.0,0.0,0.0,0.0,0.0,0.0,0.0,-1.5719,-1.6376,-1.6316,-1.6604,-1.67,-1.701,-1.728,-1.758,-1.6969,-1.685,-1.7131,-1.8143,-1.8091,-1.7802,-1.7667,-1.8195,-1.8733,-1.8823,-1.8932,-1.9056,-1.8952,-1.9261,0.0,0.0,-1.8654,-1.8464,-1.8457,-1.8301,-1.8219,-1.8301,-1.8287,-1.8267,-1.8321,-1.8687,-1.8938,-1.9235,-1.9605,-1.961,-1.9664,-1.9522,-1.9434,-1.9434,-1.9081,-1.8884,-1.883,-1.8531,-1.8355,-1.8321,-1.8375,-1.8678,-1.8768,-1.8836,-1.8747,-1.8788,-1.8267,-1.7893,-1.7935,-1.788,-1.786,-1.786,-1.786,-1.7935,-1.8002,-1.7894,-1.786,-1.786,0.0,0.0,0.0,0.0,0.0,0.0,0.0,0.0,0.0,0.0,0.0,0.0,0.0,0.0,0.0,0.0,0.0,0.0,-0.9793,-1.0357,-1.0967,-1.1579,-1.1596,-1.1867,-1.2448,-1.3083,-1.4238,-1.6195,-1.6062,-1.5845,-1.52,-1.5174,-1.4175,-1.2439,-1.2586,-1.2501,-1.2482,-1.2529,-1.2481,-1.2508,-1.2508,-1.2508,-1.2522,0.0,0.0,0.0,0.0,0.0,0.0,0.0,-1.5194,-1.5321,-1.6578,-1.6618,-1.6168,-1.6883,-1.7069,-1.6935,-1.6347,-1.6608,-1.7399,-1.9245,-1.8783,-1.8179,-1.8699,-1.8893,-1.8879,-1.8708,-1.924,-1.9535,-1.8952,-1.9344,0.0,-1.8523,-1.8518,-1.8555,-1.8321,-1.8287,-1.8218,-1.852,-1.8199,-1.8158,-1.8301,-1.8586,-1.883,-1.8979,-1.9502,-1.975,-1.9644,-1.9522,-1.9434,-1.9434,-1.9271,-1.9128,-1.8993,-1.8993,-1.8762,-1.8321,-1.8464,-1.8531,-1.8754,-1.8623,-1.8555,-1.8767,-1.8158,-1.786,-1.7847,-1.7935,-1.786,-1.786,-1.786,-1.786,-1.786,-1.786,-1.786,-1.786,0.0,0.0,0.0,0.0,0.0,0.0,0.0,0.0,0.0,0.0,0.0,0.0,0.0,0.0,0.0,0.0,0.0,0.0,-0.9784,-1.0344,-1.0799,-1.0993,-1.1431,-1.173,-1.1843,-1.4133,-1.5723,-1.6788,-1.6257,-1.5739,-1.5092,-1.4322,-1.3807,-1.37,-1.4189,-1.3995,-1.3178,-1.2602,-1.2536,-1.2496,-1.2496,-1.2437,-1.2507,0.0,0.0,0.0,0.0,0.0,0.0,0.0,0.0,0.0,-1.5698,-1.6259,-1.6815,-1.6907,-1.6688,-1.673,-1.8215,-1.8409,-1.8385,-1.8392,-1.8568,-1.8687,-1.8802,-1.8733,-1.8788,-1.8864,-1.8837,-1.907,-1.8851,-1.885,0.0,-1.8742,-1.8423,-1.8233,-1.8678,-1.8534,-1.8308,-1.8606,-1.8498,-1.8423,-1.8457,-1.8403,-1.8543,-1.907,-1.9447,-1.964,-1.9345,-1.9291,-1.9271,-1.9271,-1.9027,-1.8918,-1.8993,-1.8776,-1.8552,-1.8321,-1.8247,-1.8213,-1.8233,-1.8287,-1.8274,-1.839,-1.8111,-1.8091,-1.8091,-1.8036,-1.7968,-1.786,-1.786,-1.786,-1.786,-1.786,-1.786,-1.786,0.0,0.0,0.0,0.0,0.0,0.0,0.0,0.0,0.0,0.0,-1.0292,-1.0292,0.0,0.0,0.0,0.0,0.0,0.0,-0.979,-1.0148,-1.0611,-1.1023,-1.1435,-1.1658,-1.1985,-1.3978,-1.5242,-1.5643,-1.5153,-1.4979,-1.4787,-1.4401,-1.4464,-1.497,-1.4604,-1.4125,-1.3734,-1.3045,-1.2906,-1.28,-1.28,-1.2842,-1.2827,0.0,0.0,0.0,0.0,0.0,0.0,0.0,0.0,0.0,-1.5566,-1.632,-1.7127,-1.727,-1.6781,-1.6518,-1.8231,-1.8459,-1.8445,-1.8219,-1.8518,-1.8782,-1.8891,-1.8857,-1.8905,-1.8864,-1.883,-1.8816,-1.8751,-1.8816,0.0,-1.8579,-1.8175,-1.8074,-1.843,-1.8375,-1.843,-1.8728,-1.8565,-1.8498,-1.862,-1.8416,-1.849,-1.909,-1.9338,-1.9482,-1.9203,-1.9149,-1.9115,-1.9115,-1.8884,-1.8816,-1.8905,-1.8776,-1.8586,-1.8321,-1.8287,-1.8199,-1.8091,-1.8124,-1.8124,-1.8097,-1.8091,-1.8057,-1.8232,-1.807,-1.8002,-1.786,-1.786,-1.786,-1.786,-1.786,-1.786,-1.786,0.0,0.0,0.0,0.0,0.0,0.0,0.0,0.0,0.0,-0.9738,-0.9751,-0.9744,0.0,0.0,0.0,-0.9815,-0.9815,-0.9754,-0.9764,-0.9806,-1.0293,-1.1551,-1.1633,-1.1985,-1.2625,-1.3072,-1.3385,-1.3244,-1.3368,-1.3638,-1.4316,-1.4977,-1.5702,-1.5953,-1.4427,-1.3878,-1.4303,-1.3707,-1.3546,-1.3464,-1.3451,-1.3432,-1.3346,-1.2807,0.0,0.0,0.0,0.0,0.0,0.0,0.0,0.0,-1.6028,-1.6494,-1.701,-1.7711,-1.7123,-1.6398,-1.6956,-1.7569,-1.8013,-1.8742,-1.8871,-1.8823,-1.8728,-1.8762,-1.8762,-1.8762,0.0,-1.8762,-1.8749,-1.8749,-1.8654,-1.8135,-1.8188,-1.8242,-1.8355,-1.8342,-1.8678,-1.8728,-1.8531,-1.8464,-1.8742,-1.864,-1.8674,-1.8959,-1.8993,-1.9047,-1.9149,-1.9061,-1.8993,-1.8972,-1.8816,-1.8762,-1.8782,-1.8884,-1.8742,-1.8355,-1.8464,-1.8375,-1.8091,-1.7935,-1.7955,-1.8091,-1.8104,-1.8036,-1.8371,-1.807,-1.8036,-1.788,-1.788,-1.788,-1.786,-1.786,-1.786,-1.786,0.0,0.0,0.0,0.0,0.0,0.0,0.0,0.0,-0.9673,-0.9098,-0.9546,-0.9815,-0.9813,-0.9827,0.0,-0.9779,-0.9761,-0.9836,-0.9747,-0.9845,-1.0358,-1.1546,-1.2032,-1.2574,-1.3157,-1.2789,-1.2708,-1.2762,-1.3165,-1.3681,-1.436,-1.581,-1.6452,-1.6104,-1.5458,-1.5018,-1.5047,-1.4653,-1.4277,-1.4091,-1.4145,-1.4091,-1.3988,-1.2834,-1.2745,0.0,0.0,0.0,0.0,0.0,0.0,0.0,-1.5374,-1.5824,-1.6483,-1.6974,-1.7264,-1.7561,-1.8199,-1.8413,-1.8678,-1.8788,-1.8891,-1.8728,-1.8762,-1.8762,-1.8762,-1.8762,-1.8762,-1.8728,-1.8836,-1.8823,-1.8768,-1.8589,-1.8568,-1.8623,-1.8713,-1.8484,-1.8552,-1.8742,-1.8708,-1.8694,-1.8762,-1.8728,-1.8742,-1.8816,-1.8925,-1.8959,-1.8871,-1.8938,-1.8938,-1.8816,-1.8654,-1.8687,-1.8938,-1.862,-1.8531,-1.8654,-1.8464,-1.8267,-1.8091,-1.7935,-1.7948,-1.8091,-1.8213,-1.8247,-1.8233,-1.8369,-1.828,-1.7813,-1.7813,-1.7968,-1.786,-1.786,-1.786,-1.786,0.0,0.0,0.0,0.0,0.0,0.0,0.0,0.0,-0.9632,-0.8966,-0.9456,-0.9687,-0.9365,-0.9321,0.0,0.0,-0.9741,-0.9822,-0.9822,-0.9858,-1.0528,-1.1903,-1.231,-1.2594,-1.2896,-1.2896,-1.2773,-1.2523,-1.3365,-1.416,-1.4752,-1.6368,-1.6788,-1.6202,-1.5835,-1.5438,-1.5121,-1.5083,-1.4723,-1.4558,-1.4407,-1.4208,-1.3831,-1.3126,-1.3307,-1.3945,-1.491,0.0,0.0,0.0,0.0,0.0,0.0,0.0,-1.6252,-1.6544,-1.7005,-1.7689,-1.8587,-1.8712,-1.8823,-1.8733,-1.8891,-1.8762,-1.8762,-1.8762,-1.8762,-1.8762,-1.8762,-1.8749,-1.8891,-1.8633,-1.8349,-1.8678,-1.8713,-1.8538,-1.8768,-1.8606,-1.8674,-1.8742,-1.8762,-1.8762,-1.8762,-1.8762,-1.8762,-1.8762,-1.8837,-1.885,-1.8762,-1.883,-1.8884,-1.8871,-1.8654,-1.8674,-1.8993,-1.8552,-1.8423,-1.8654,-1.8355,-1.8165,-1.8091,-1.7935,-1.7989,-1.8199,-1.8213,-1.8213,-1.8213,-1.8369,-1.8247,-1.7982,-1.805,-1.8002,-1.786,-1.786,-1.786,-1.786,0.0,0.0,0.0,0.0,0.0,0.0,0.0,0.0,0.0,-0.9023,-0.9354,-0.9446,-0.9007,-0.8889,-0.9084,0.0,0.0,0.0,-0.9822,-0.9986,-1.0665,-1.2065,-1.2421,-1.2436,-1.2427,-1.3028,-1.3056,-1.2501,-1.3725,-1.4638,-1.5213,-1.6346,-1.6692,-1.6292,-1.5934,-1.542,-1.5234,-1.5133,-1.5121,-1.4801,-1.4618,-1.411,-1.3642,-1.3616,-1.4057,-1.457,-1.4943,-1.5245,-1.516,-1.5255,0.0,0.0,0.0,0.0,-1.6192,-1.6101,-1.6558,-1.7217,-1.8316,-1.8628,-1.863,-1.8768,-1.8905,-1.8762,-1.8762,-1.8762,-1.8762,-1.8762,-1.8762,-1.8762,-1.8728,-1.8503,-1.8231,-1.8781,-1.8891,-1.8708,-1.8586,-1.8674,-1.8762,-1.8762,-1.8762,-1.8762,-1.8762,-1.8762,-1.8762,-1.8762,-1.8762,-1.8762,-1.8762,-1.8782,-1.8871,-1.8993,-1.8728,-1.8708,-1.8993,-1.8511,-1.8375,-1.8565,-1.8301,-1.8179,-1.8199,-1.8023,-1.8091,-1.8355,-1.8199,-1.8145,-1.8179,-1.8301,-1.8179,-1.7914,-1.8077,-1.8023,-1.786,-1.786,-1.786,-1.786,0.0,0.0,0.0,0.0,0.0,0.0,0.0,0.0,0.0,0.0,-0.8942,-0.8977,-0.8884,-0.8916,-0.9169,-0.9771,-0.9794,-0.9813,-0.9815,0.0,0.0,-1.1018,-1.1894,-1.2571,-1.2428,-1.2606,-1.2581,-1.2501,-1.367,-1.4659,-1.5565,-1.5825,-1.5959,-1.5825,-1.5866,-1.5778,-1.5588,-1.5282,-1.514,-1.5099,-1.5011,-1.4699,-1.4289,-1.4723,-1.4951,-1.5125,-1.521,-1.516,-1.5228,-1.5147,-1.5281,0.0,0.0,0.0,-1.609,-1.6098,-1.6473,-1.7107,-1.7871,-1.8002,-1.8059,-1.8687,-1.8749,-1.8762,-1.8762,-1.8762,-1.8762,-1.8762,-1.8762,-1.8728,-1.8823,-1.8674,-1.8708,-1.8788,-1.8891,-1.8762,-1.8728,-1.8742,-1.8762,-1.8762,-1.8762,-1.8762,-1.8762,-1.8762,-1.8762,-1.8762,-1.8762,-1.8762,-1.8762,-1.8884,-1.8972,-1.8993,-1.8816,-1.8816,-1.8993,-1.8409,-1.8321,-1.8728,-1.8552,-1.8552,-1.8654,-1.8389,-1.8355,-1.8498,-1.8355,-1.8355,-1.8477,-1.8498,-1.8321,-1.8077,-1.8233,-1.8111,-1.786,-1.786,-1.786,-1.786,0.0,0.0,0.0,0.0,0.0,0.0,0.0,0.0,0.0,0.0,0.0,-0.9446,-0.9367,-0.9142,-0.9052,-0.9261,-0.9571,-0.9747,-0.9804,-1.0663,-1.0932,-1.067,-1.118,-1.1694,-1.1932,-1.2013,-1.2361,-1.2979,-1.3547,-1.4405,-1.5355,-1.5487,-1.5808,-1.5981,-1.5981,-1.59,-1.5737,-1.5438,-1.5357,-1.5214,-1.5501,-1.5382,-1.4858,-1.5045,-1.514,-1.5288,-1.5254,-1.5438,-1.5636,-1.5227,-1.5122,-1.5241,-1.5642,0.0,0.0,0.0,-1.6292,-1.6634,-1.7621,-1.8043,-1.8545,-1.8626,-1.8694,-1.8762,-1.8762,-1.8762,-1.8762,-1.8762,-1.8762,-1.8749,-1.8905,-1.8708,-1.8749,-1.8905,-1.8708,-1.8762,-1.8762,-1.8762,-1.8762,-1.8762,-1.8762,-1.8762,-1.8762,-1.8762,-1.8762,-1.8762,-1.8762,-1.8762,-1.8762,-1.883,-1.8905,-1.8993,-1.8674,-1.862,-1.8871,-1.8267,-1.8111,-1.8389,-1.8477,-1.8565,-1.862,-1.8498,-1.8477,-1.8531,-1.8375,-1.8301,-1.8301,-1.8464,-1.8301,-1.7989,-1.8233,-1.8124,-1.786,-1.786,-1.786,-1.786,0.0,0.0,0.0,0.0,0.0,0.0,0.0,0.0,0.0,0.0,0.0,-0.9745,-0.9785,0.0,0.0,0.0,-0.942,-0.9842,-0.9996,-1.0317,-1.0565,-1.075,-1.0696,-1.1038,-1.1653,-1.155,-1.2265,-1.3406,-1.3394,-1.4154,-1.539,-1.5403,-1.575,-1.6246,-1.613,-1.6042,-1.5947,-1.5615,-1.5401,-1.538,-1.5719,-1.5703,-1.5273,-1.5683,-1.5798,-1.5338,-1.5493,-1.5784,-1.6126,-1.5574,-1.5401,-1.5294,-1.5897,-1.6196,0.0,0.0,0.0,-1.6293,-1.758,-1.8392,-1.8844,-1.8699,-1.8823,-1.8708,-1.8749,-1.8762,-1.8762,-1.8762,-1.8762,-1.8762,-1.8762,-1.8762,-1.8762,-1.8762,-1.8762,-1.8762,-1.8762,-1.8762,-1.8762,-1.8762,-1.8762,-1.8762,-1.8762,-1.8762,-1.8762,-1.8762,-1.8728,-1.8728,-1.8762,-1.8762,-1.883,-1.8993,-1.8674,-1.8565,-1.8708,-1.8213,-1.8036,-1.8158,-1.8443,-1.8586,-1.8586,-1.8586,-1.8565,-1.8531,-1.8375,-1.8247,-1.8165,-1.8389,-1.8233,-1.7901,-1.8199,-1.8124,-1.786,-1.786,-1.786,-1.786,0.0,0.0,0.0,0.0,0.0,0.0,0.0,0.0,0.0,0.0,0.0,-0.9785,-0.9829,-0.972,-0.9552,-0.8933,-0.9438,-1.0074,-1.0651,-1.0149,-1.0041,-1.0738,-1.0731,0.0,-1.1628,-1.1633,-1.2164,-1.3406,-1.3727,-1.452,-1.5725,-1.5616,-1.6015,-1.67,-1.6273,-1.6157,-1.6259,-1.5811,-1.5676,-1.5636,-1.5685,-1.5525,-1.548,-1.7045,-1.7101,-1.6062,-1.6118,-1.5978,-1.6035,-1.6083,-1.5636,-1.5237,-1.5845,-1.6144,-1.6076,0.0,0.0,0.0,-1.7565,-1.8444,-1.8886,-1.8719,-1.8913,-1.8823,-1.8728,-1.8762,-1.8762,-1.8762,-1.8762,-1.8762,-1.8762,-1.8762,-1.8762,-1.8762,-1.8762,-1.8762,-1.8762,-1.8762,-1.8762,-1.8762,-1.8762,-1.8762,-1.8762,-1.8762,-1.8762,-1.8762,-1.862,-1.8599,-1.8762,-1.8762,-1.883,-1.8993,-1.8972,-1.883,-1.8552,-1.8375,-1.8301,-1.8321,-1.8606,-1.8742,-1.8742,-1.8742,-1.8674,-1.8531,-1.8375,-1.8321,-1.8301,-1.8321,-1.8145,-1.7901,-1.8199,-1.8124,-1.786,-1.786,-1.786,-1.786,0.0,0.0,0.0,0.0,0.0,0.0,0.0,0.0,0.0,0.0,0.0,0.0,0.0,-0.9795,-0.9863,-1.0088,-0.9883,-1.0002,-1.0672,-1.0511,-1.0685,-1.1269,-1.0869,-1.0933,-1.1601,-1.166,-1.1784,-1.2251,-1.3089,-1.3961,-1.4538,-1.5169,-1.6123,-1.6948,-1.6388,-1.6307,-1.6415,-1.5967,-1.5783,-1.5883,-1.5937,-1.6347,-1.6941,-1.7639,-1.7618,-1.7284,0.0,0.0,0.0,-1.6191,-1.5877,-1.5797,-1.6001,-1.6103,-1.6024,-1.6024,-1.6121,-1.6276,-1.7032,-1.7521,-1.782,-1.8034,-1.8498,-1.8694,-1.8749,-1.8762,-1.8762,-1.8762,-1.8762,-1.8762,-1.8762,-1.8762,-1.8762,-1.8762,-1.8762,-1.8762,-1.8762,-1.8762,-1.8762,-1.8762,-1.8762,-1.8762,-1.8762,-1.8762,-1.8728,-1.862,-1.8654,-1.8654,-1.862,-1.8708,-1.8782,-1.885,-1.8742,-1.8552,-1.8247,-1.8301,-1.8321,-1.8321,-1.862,-1.8762,-1.8762,-1.8762,-1.8728,-1.8674,-1.8511,-1.8409,-1.8321,-1.8321,-1.8199,-1.8023,-1.8124,-1.8036,-1.786,-1.786,-1.786,-1.786,0.0,0.0,0.0,0.0,0.0,0.0,0.0,0.0,-0.9687,-0.9199,0.0,0.0,0.0,0.0,-1.0089,-1.0665,-1.028,-1.0247,-1.0651,-1.0739,-1.0913,-1.1511,-1.128,-1.1153,-1.1537,-1.164,-1.1603,-1.1529,-1.3068,-1.3715,-1.4082,-1.5043,-1.5974,-1.7016,-1.6759,-1.6632,-1.63,-1.632,-1.63,-1.653,-1.6266,-1.6872,-1.7629,-1.7839,-1.7819,-1.7843,0.0,0.0,0.0,0.0,-1.6115,-1.6029,-1.6185,-1.6179,-1.6381,-1.6381,-1.6207,-1.6243,-1.6842,-1.6895,-1.721,-1.8057,-1.8396,-1.8694,-1.8749,-1.8796,-1.883,-1.8782,-1.8762,-1.8762,-1.8762,-1.8762,-1.8762,-1.8762,-1.8762,-1.8762,-1.8762,-1.8762,-1.8762,-1.8762,-1.8762,-1.8742,-1.8694,-1.8694,-1.862,-1.8477,-1.8511,-1.8531,-1.8531,-1.8586,-1.8654,-1.8762,-1.8565,-1.8375,-1.8165,-1.8267,-1.8321,-1.8321,-1.862,-1.8762,-1.8762,-1.8762,-1.8762,-1.8762,-1.8654,-1.8531,-1.8389,-1.8389,-1.8267,-1.8091,-1.8145,-1.8036,-1.786,-1.786,-1.786,-1.786,0.0,0.0,0.0,0.0,0.0,0.0,-0.9767,-0.9777,-0.987,-0.9888,0.0,0.0,0.0,0.0,0.0,-1.0618,-1.0723,-1.0692,-1.0697,-1.0676,-1.0972,-1.1557,-1.1552,-1.1565,-1.155,-1.155,-1.1616,-1.1547,-1.3326,-1.4297,-1.4368,-1.4865,-1.5794,-1.6933,-1.7192,-1.6918,-1.6067,-1.6432,-1.7037,-1.7426,0.0,-1.6882,-1.7053,-1.7636,-1.7909,0.0,-1.7892,-1.7794,0.0,-1.655,0.0,-1.6073,-1.615,-1.656,-1.696,-1.6953,-1.6639,-1.63,0.0,0.0,0.0,-1.8515,-1.8783,-1.8802,-1.8728,-1.8864,-1.8697,-1.8796,-1.8762,-1.8762,-1.8762,-1.8762,-1.8762,-1.8762,-1.8762,-1.8762,-1.8762,-1.8762,-1.8762,-1.8762,-1.8762,-1.8694,-1.8552,-1.8531,-1.8464,-1.8321,-1.8179,-1.8213,-1.8498,-1.8389,-1.8464,-1.8742,-1.8477,-1.8321,-1.8321,-1.8321,-1.8321,-1.8321,-1.862,-1.8762,-1.8762,-1.8762,-1.8762,-1.8762,-1.8762,-1.8674,-1.8531,-1.8531,-1.8355,-1.8111,-1.8247,-1.8124,-1.786,-1.786,-1.786,-1.786,0.0,0.0,0.0,0.0,0.0,-1.0464,-1.0464,-1.0431,-1.0457,0.0,0.0,0.0,-1.1094,-1.1131,-1.1131,-1.1344,-1.0946,-1.0889,-1.1295,-1.1714,-1.1877,-1.1577,-1.161,-1.1563,-1.1563,-1.1563,-1.136,-1.0916,-1.2761,-1.3844,-1.4375,-1.4884,-1.5407,-1.5727,-1.6212,-1.6353,-1.6099,-1.6408,0.0,-1.6978,-1.6472,-1.6387,0.0,0.0,0.0,0.0,0.0,-1.7444,0.0,0.0,-1.7614,-1.7882,-1.7078,-1.6836,-1.7044,-1.6934,-1.6802,-1.6883,-1.6941,0.0,0.0,0.0,0.0,0.0,-1.9282,-1.9094,-1.8905,-1.8749,-1.8762,-1.8762,-1.8762,-1.8762,-1.8762,-1.8762,-1.8762,-1.8762,-1.8762,-1.8762,-1.8762,-1.8762,-1.8654,-1.8586,-1.8531,-1.8443,-1.8321,-1.8165,-1.8213,-1.8247,-1.8213,-1.8375,-1.8565,-1.8762,-1.8477,-1.8321,-1.8321,-1.8321,-1.8321,-1.8321,-1.862,-1.8762,-1.8762,-1.8762,-1.8762,-1.8762,-1.8762,-1.8742,-1.8694,-1.8586,-1.8423,-1.8247,-1.8179,-1.8036,-1.786,-1.786,-1.786,-1.786,0.0,0.0,-1.0759,-1.0732,-1.0853,-1.1118,-1.1034,-1.104,-1.1074,0.0,0.0,0.0,-1.155,-1.1859,-1.2024,-1.1928,-1.1449,-1.1399,-1.1925,-1.2498,-1.2747,-1.2338,-1.2126,-1.1868,-1.1567,-1.1656,-1.1502,-1.1392,-1.3295,-1.4529,-1.5125,-1.5362,-1.5502,-1.5331,-1.3558,-1.2626,-1.2909,-1.537,0.0,0.0,-1.665,0.0,0.0,-1.7229,-1.7786,0.0,0.0,0.0,-1.835,-1.8335,-1.826,0.0,0.0,-1.6929,-1.7039,-1.7106,-1.7216,-1.7332,-1.7119,-1.6796,-1.675,-1.765,0.0,0.0,-1.8823,-1.8912,-1.8749,-1.883,-1.885,-1.883,-1.8782,-1.8762,-1.8762,-1.8762,-1.8762,-1.8762,-1.8762,-1.8762,-1.8762,-1.8762,-1.8694,-1.8599,-1.8531,-1.8409,-1.8247,-1.8111,-1.8111,-1.8124,-1.8091,-1.8375,-1.8565,-1.8654,-1.8443,-1.8355,-1.8409,-1.8355,-1.8355,-1.8409,-1.8654,-1.8762,-1.8762,-1.8762,-1.8762,-1.8762,-1.8762,-1.8762,-1.8762,-1.8674,-1.8511,-1.8301,-1.8213,-1.8057,-1.786,-1.786,-1.786,-1.786,0.0,0.0,-1.0855,-1.0857,-1.1299,-1.1748,-1.1757,-1.1797,-1.1811,0.0,-1.2148,-1.238,-1.2085,-1.2226,-1.2523,-1.2608,-1.2205,-1.2174,-1.2628,-1.3176,-1.3333,-1.3454,-1.2834,-1.236,-1.1867,-1.1756,-1.196,-1.2501,-1.4348,-1.5532,-1.5933,-1.6059,-1.5827,-1.5433,-1.0843,-0.8948,-0.9291,-1.4137,0.0,-1.6584,-1.7197,-1.7391,0.0,0.0,-1.8356,0.0,-1.8909,-1.8853,-1.8691,-1.725,-1.6922,0.0,0.0,0.0,-1.7029,-1.708,-1.7449,-1.7836,-1.7326,-1.7123,-1.7219,-1.7875,-1.7982,0.0,-1.7941,-1.8351,-1.8952,-1.8986,-1.8751,-1.8717,-1.8816,-1.8796,-1.8796,-1.8762,-1.8782,-1.8782,-1.8762,-1.8762,-1.8762,-1.8762,-1.8742,-1.8694,-1.8552,-1.8409,-1.8247,-1.8111,-1.7948,-1.7935,-1.8091,-1.8335,-1.8498,-1.8531,-1.8375,-1.8375,-1.8531,-1.8389,-1.8389,-1.8531,-1.8694,-1.8762,-1.8762,-1.8762,-1.8762,-1.8762,-1.8762,-1.8762,-1.8762,-1.8762,-1.8599,-1.8335,-1.8321,-1.8145,-1.788,-1.786,-1.786,-1.786,-1.1531,-1.1476,-1.1451,-1.1449,-1.1904,-1.256,-1.2993,-1.2984,-1.2944,-1.2403,-1.2359,-1.303,-1.4325,-1.3217,-1.2768,-1.3193,-1.3547,-1.3575,-1.3268,-1.3356,-1.337,-1.3439,-1.3241,-1.3205,-1.2977,-1.2574,-1.237,-1.2501,-1.4297,-1.5226,-1.5403,-1.5547,-1.5691,-1.5932,-1.4668,-1.4354,-1.4638,-1.6108,0.0,-1.7026,-1.7523,0.0,-1.8522,-1.8517,-1.8783,-1.8769,-1.8719,-1.8823,-1.7238,0.0,-1.0273,-1.8287,0.0,0.0,0.0,-1.7655,-1.7717,-1.7841,-1.7836,-1.7799,-1.8019,-1.7909,0.0,0.0,0.0,-1.8747,-1.9409,-1.9421,-1.9228,-1.8731,-1.8717,-1.8798,-1.8798,-1.8796,-1.8864,-1.8898,-1.8782,-1.8762,-1.8762,-1.8762,-1.8654,-1.8565,-1.8531,-1.8409,-1.8247,-1.8111,-1.7948,-1.7935,-1.8091,-1.8145,-1.8287,-1.8531,-1.8267,-1.8267,-1.8531,-1.8389,-1.8389,-1.8531,-1.8694,-1.8762,-1.8762,-1.8762,-1.8762,-1.8762,-1.8762,-1.8762,-1.8762,-1.8762,-1.8654,-1.8477,-1.8369,-1.8213,-1.8036,-1.7914,-1.786,-1.786,-1.1976,-1.2052,-1.204,-1.2026,-1.2583,-1.3207,-1.3837,-1.3811,-1.3768,-1.3462,-1.368,-1.4129,-1.5046,-1.4451,-1.3914,-1.3865,-1.4201,-1.4228,-1.3946,-1.3787,-1.3926,-1.3851,-1.3495,-1.3499,-1.3802,-1.3191,-1.2953,-1.2896,-1.4242,-1.4921,-1.5463,-1.5478,-1.5839,-1.6011,-1.5897,-1.4367,-1.2119,-1.2385,-1.4261,-1.6956,-1.7655,0.0,-1.8342,-1.8342,-1.8423,-1.8443,-1.8282,-1.862,-1.6792,-0.4362,-0.411,0.0,0.0,-1.2801,-1.7491,0.0,-1.8033,-1.8002,-1.7944,-1.8088,-1.8077,-1.8232,0.0,0.0,0.0,0.0,-1.9136,-1.918,-1.9248,-1.9269,-1.9235,-1.8993,-1.8952,-1.8884,-1.8938,-1.8952,-1.8884,-1.8816,-1.8762,-1.8762,-1.8694,-1.864,-1.864,-1.8511,-1.8335,-1.8111,-1.7948,-1.7901,-1.7968,-1.8124,-1.8267,-1.8423,-1.8355,-1.8423,-1.864,-1.8498,-1.8498,-1.8654,-1.8728,-1.8762,-1.8762,-1.8762,-1.8762,-1.8762,-1.8762,-1.8762,-1.8762,-1.8762,-1.8708,-1.862,-1.8409,-1.8233,-1.8077,-1.7914,-1.786,-1.786,-1.2435,-1.2484,-1.2464,-1.2507,-1.3164,-1.3735,-1.4435,-1.4618,-1.4639,-1.4597,-1.5101,-1.5306,-1.5391,-1.5229,-1.4991,-1.4443,-1.439,-1.441,-1.449,-1.4397,-1.4509,-1.4509,-1.3931,-1.3985,-1.4465,-1.3867,-1.3574,-1.3586,-1.4142,-1.4713,-1.532,-1.556,-1.5904,-1.5936,-1.6158,-1.3598,-0.9465,0.0,0.0,-1.6961,0.0,-1.7927,-1.7802,-1.8073,-1.8179,-1.7961,-1.8013,-1.8317,-1.6933,-0.4165,0.0,0.0,0.0,-0.6577,0.0,0.0,0.0,0.0,0.0,0.0,0.0,0.0,0.0,-1.8074,0.0,0.0,0.0,0.0,-1.7556,-1.9532,-1.9754,-1.92,-1.8905,-1.918,-1.8986,-1.9006,-1.9159,-1.9056,-1.9015,-1.883,-1.8796,-1.8782,-1.8796,-1.864,-1.843,-1.8199,-1.8002,-1.7914,-1.7914,-1.8111,-1.8267,-1.8321,-1.8375,-1.8498,-1.8708,-1.8565,-1.8565,-1.8728,-1.8742,-1.8762,-1.8762,-1.8762,-1.8762,-1.8762,-1.8762,-1.8762,-1.8762,-1.8762,-1.8762,-1.8728,-1.8443,-1.8247,-1.8111,-1.7935,-1.786,-1.786,-1.2454,-1.2562,-1.2507,-1.2561,-1.3422,-1.447,-1.5049,-1.557,-1.5926,-1.5825,-1.5962,-1.5987,-1.6043,-1.5509,-1.5133,-1.5081,-1.5162,0.0,-1.512,-1.51,-1.5087,-1.5087,-1.4959,-1.5065,-1.5031,-1.4584,-1.4137,-1.4224,-1.4874,-1.4869,-1.4408,-1.5314,-1.5683,-1.5572,-1.5923,-1.5704,-1.4825,0.0,-1.1569,0.0,-1.7616,-1.7893,0.0,-1.8397,-1.8712,-1.8788,-1.8586,-1.8728,-1.6866,0.0,0.0,0.0,0.0,-0.0916,-0.4148,-1.4859,0.0,0.0,0.0,0.0,0.0,0.0,-1.8498,0.0,0.0,0.0,-1.5521,-0.4413,0.0,0.0,0.0,0.0,0.0,-1.885,-1.8764,-1.904,-1.959,-1.9647,-1.9585,-1.9115,-1.8918,-1.8816,-1.8959,-1.8946,-1.8747,-1.8477,-1.8213,-1.8077,-1.8077,-1.7968,-1.8036,-1.8321,-1.8077,-1.8145,-1.8552,-1.8409,-1.8409,-1.8565,-1.8694,-1.8762,-1.8762,-1.8762,-1.8762,-1.8762,-1.8762,-1.8762,-1.8762,-1.8762,-1.8762,-1.8728,-1.8443,-1.8301,-1.8267,-1.7968,-1.786,-1.786,-1.3033,-1.2773,-1.2536,-1.2556,-1.2996,-1.36,-1.4548,-1.5265,-1.5683,-1.6098,-1.6042,-1.6239,-1.6543,-1.6344,-1.6151,-1.6151,0.0,-1.6234,0.0,0.0,-1.5784,-1.5676,-1.6323,-1.6436,-1.565,-1.5437,-1.5259,-1.4758,-1.5033,-1.5174,-1.5391,-1.5703,-1.5884,-1.5884,-1.6047,-1.2701,-0.6705,0.0,-0.8624,0.0,0.0,0.0,0.0,-1.8484,-1.4354,-0.7854,-0.7906,-0.7938,-0.7021,0.0,0.0,0.0,0.0,0.0,0.0,-0.5939,0.0,0.0,0.0,0.0,0.0,0.0,0.0,0.0,-1.8145,0.0,-1.6835,0.0,0.0,0.0,0.0,0.0,0.0,0.0,-1.8628,-1.8385,0.0,0.0,-1.9145,-1.8938,-1.907,-1.9015,-1.885,-1.8749,-1.8857,-1.8768,-1.8342,-1.8179,-1.8091,-1.8036,-1.8091,-1.8321,-1.8267,-1.8389,-1.8654,-1.8606,-1.8606,-1.8674,-1.8728,-1.8762,-1.8762,-1.8762,-1.8762,-1.8762,-1.8762,-1.8762,-1.8762,-1.8762,-1.8762,-1.8742,-1.8531,-1.8389,-1.8301,-1.8077,-1.7935,-1.786,-1.3639,-1.2976,-1.2494,-1.2562,-1.2462,-1.2959,-1.4597,-1.5182,-1.5771,-1.6501,-1.6469,-1.646,-1.6877,-1.6995,0.0,0.0,-1.2441,-1.2431,0.0,0.0,-1.6118,-1.6091,-1.7019,0.0,0.0,-1.6133,-1.5966,-1.5533,-1.5408,-1.571,-1.6055,-1.6055,-1.5964,-1.5886,-1.6171,-1.0257,0.0,0.0,-0.6724,-1.7336,-1.4602,-1.328,-1.3135,-1.3547,-0.7967,0.0,0.0,0.0,0.0,0.0,0.0,0.0,0.0,0.0,0.0,0.0,0.0,0.0,-1.7217,0.0,0.0,0.0,0.0,0.0,0.0,0.0,0.0,0.0,0.0,0.0,0.0,0.0,-1.9732,-1.9588,0.0,-1.83,0.0,-1.8816,0.0,0.0,0.0,0.0,-1.8762,-1.8728,-1.8912,-1.8843,-1.8658,-1.8267,-1.8158,-1.8111,-1.8158,-1.8321,-1.8375,-1.8498,-1.8694,-1.8654,-1.8654,-1.8694,-1.8694,-1.8728,-1.8762,-1.8762,-1.8762,-1.8762,-1.8762,-1.8762,-1.8762,-1.8762,-1.8762,-1.8742,-1.864,-1.8511,-1.8355,-1.8158,-1.8023,-1.7914,-1.4138,-1.3377,-1.254,-1.2481,-1.2575,-1.3358,-1.5701,-1.6112,-1.6594,-1.7665,0.0,0.0,0.0,0.0,0.0,0.0,0.0,-0.0646,-0.0635,0.0,-1.6124,0.0,0.0,0.0,0.0,-1.6152,-1.6186,-1.6041,-1.6105,-1.6112,-1.6055,-1.6055,-1.5743,-1.5318,-1.6518,-1.0545,0.0,0.0,-0.7335,-1.7755,-0.5534,-0.0696,-0.047,0.0,-0.0468,0.0,0.0,0.0,0.0,0.0,0.0,0.0,0.0,0.0,0.0,0.0,-0.0236,-0.3354,-1.5475,-1.8767,-1.9166,-2.0275,0.0,0.0,0.0,0.0,-1.8823,0.0,0.0,0.0,0.0,-1.9269,-1.9683,-1.9592,-1.9275,0.0,0.0,0.0,0.0,0.0,0.0,0.0,0.0,-1.8857,-1.8843,-1.9219,-1.8948,-1.8555,-1.8321,-1.8179,-1.8158,-1.8321,-1.8179,-1.8247,-1.8531,-1.8409,-1.8409,-1.8531,-1.8531,-1.862,-1.8762,-1.8762,-1.8762,-1.8762,-1.8762,-1.8762,-1.8762,-1.8762,-1.8762,-1.8762,-1.8762,-1.8654,-1.8498,-1.8199,-1.8091,-1.8057,-1.2955,-1.3619,-1.2939,-1.2592,-1.2507,-1.3193,-1.5278,-1.5859,0.0,0.0,0.0,0.0,0.0,0.0,-1.2355,0.0,0.0,0.0,0.0,-0.344,0.0,0.0,0.0,-1.7259,0.0,0.0,-1.6091,-1.6151,-1.6008,-1.5954,-1.5592,-1.59,-1.5988,-1.5843,-1.6256,-1.0347,0.0,0.0,0.0,0.0,0.0,0.0,0.0,0.0,0.0,0.0,0.0,0.0,0.0,0.0,0.0,0.0,0.0,0.0,0.0,0.0,0.0,-0.0949,-0.5221,-1.2785,-1.9381,-1.9768,-1.9312,0.0,0.0,0.0,0.0,0.0,0.0,0.0,0.0,-1.2101,-0.9448,-1.7861,-1.8905,-1.8721,0.0,0.0,0.0,0.0,0.0,0.0,0.0,0.0,0.0,-1.8417,-1.8721,-1.8857,-1.862,-1.8375,-1.8301,-1.8464,-1.8409,-1.8477,-1.8674,-1.8531,-1.8531,-1.8694,-1.8586,-1.862,-1.8762,-1.8762,-1.8762,-1.8762,-1.8762,-1.8762,-1.8762,-1.8762,-1.8762,-1.8762,-1.8762,-1.8728,-1.8654,-1.8355,-1.8179,-1.8077,-1.2802,-1.3839,-1.35,-1.2984,-1.2985,-1.3696,0.0,0.0,0.0,0.0,-1.6994,0.0,-1.1877,0.0,-0.8089,0.0,0.0,0.0,0.0,0.0,0.0,-1.6212,-1.7538,0.0,0.0,0.0,-1.6214,-1.6075,-1.6011,-1.5877,-1.5466,-1.5981,-1.6069,-1.6125,-1.6066,-1.0164,0.0,0.0,0.0,0.0,0.0,0.0,0.0,0.0,0.0,0.0,0.0,0.0,0.0,0.0,0.0,0.0,0.0,0.0,0.0,0.0,0.0,0.0,0.0,-0.6303,-1.3739,-1.8478,-1.9481,-1.9005,-1.9237,0.0,-1.9257,0.0,0.0,0.0,0.0,-0.9034,-0.9245,-1.7457,-1.8677,-1.8416,0.0,-1.7973,0.0,0.0,0.0,0.0,0.0,0.0,0.0,0.0,0.0,0.0,0.0,-1.8498,-1.8443,-1.8531,-1.8531,-1.8599,-1.8762,-1.8565,-1.8565,-1.8762,-1.8552,-1.8565,-1.8762,-1.8762,-1.8762,-1.8762,-1.8762,-1.8762,-1.8762,-1.8762,-1.8762,-1.8762,-1.8762,-1.8728,-1.8654,-1.8409,-1.8199,-1.8002,-1.2897,-1.3541,-1.4115,-1.3555,-1.4031,-1.448,0.0,0.0,-0.4169,0.0,-1.7467,-1.3336,-0.13,0.0,0.0,0.0,0.0,0.0,0.0,0.0,0.0,0.0,-1.7073,-1.6975,-1.7105,0.0,0.0,0.0,-1.6132,-1.6096,-1.6103,-1.609,-1.6164,-1.6132,-1.615,-1.0208,0.0,0.0,0.0,0.0,0.0,0.0,0.0,0.0,0.0,0.0,0.0,0.0,0.0,0.0,0.0,0.0,0.0,0.0,0.0,0.0,0.0,0.0,0.0,0.0,-0.3177,-1.6386,-1.9253,-1.8933,-1.9488,-1.9257,-1.9108,0.0,0.0,0.0,0.0,0.0,-1.8885,-1.8885,-1.8364,-1.7973,-1.7948,0.0,0.0,0.0,0.0,0.0,0.0,0.0,0.0,0.0,0.0,0.0,0.0,-1.8545,-1.8545,-1.8545,-1.8545,-1.8599,-1.8742,-1.8464,-1.8464,-1.8742,-1.8464,-1.8477,-1.8762,-1.8762,-1.8762,-1.8762,-1.8762,-1.8762,-1.8762,-1.8762,-1.8762,-1.8762,-1.8762,-1.8654,-1.8498,-1.8355,-1.8124,-1.786,-0.3395,-0.9307,-1.4393,-1.4728,-1.4813,-1.2498,0.0,0.0,0.0,0.0,-1.2425,-1.3364,-0.132,0.0,0.0,0.0,0.0,0.0,0.0,0.0,0.0,-0.4474,-0.4668,-0.4644,-0.4621,-0.4533,0.0,-1.6763,-1.6379,-1.6138,-1.6035,-1.6198,-1.6371,-1.6752,-1.6694,-1.0586,0.0,0.0,0.0,0.0,0.0,0.0,0.0,0.0,0.0,0.0,0.0,0.0,0.0,0.0,0.0,0.0,0.0,0.0,0.0,0.0,0.0,0.0,0.0,0.0,-0.3144,-1.6386,-1.2357,-0.7692,-1.7501,-1.9674,-1.9359,-1.9099,-1.1539,0.0,0.0,0.0,0.0,-1.8747,-1.8397,-1.8007,0.0,0.0,0.0,0.0,0.0,0.0,0.0,0.0,0.0,0.0,0.0,0.0,0.0,0.0,-1.8708,-1.8708,-1.8708,-1.8674,-1.8586,-1.8409,-1.8409,-1.8586,-1.8409,-1.8477,-1.8762,-1.8762,-1.8762,-1.8762,-1.8762,-1.8762,-1.8762,-1.8762,-1.8762,-1.8762,-1.8762,-1.8606,-1.8355,-1.8199,-1.8023,-1.786,0.0,-0.8061,-1.5196,-1.5797,-1.6225,0.0,-0.1671,0.0,0.0,0.0,-0.5826,0.0,-0.067,0.0,0.0,0.0,0.0,0.0,0.0,0.0,0.0,0.0,0.0,0.0,0.0,0.0,0.0,-0.9536,0.0,-1.1391,-1.6161,-1.6185,-1.6374,-1.653,-1.6915,-1.0678,0.0,0.0,0.0,0.0,0.0,0.0,0.0,0.0,0.0,0.0,0.0,0.0,0.0,0.0,0.0,0.0,0.0,0.0,0.0,0.0,0.0,0.0,0.0,0.0,-0.1685,-0.9222,-0.5545,-0.1916,-0.9408,-1.5445,-1.9339,-1.9186,-0.8907,0.0,0.0,0.0,0.0,0.0,0.0,0.0,0.0,0.0,0.0,0.0,0.0,0.0,0.0,0.0,0.0,0.0,0.0,0.0,0.0,0.0,-1.8694,-1.8762,-1.8762,-1.8728,-1.864,-1.8477,-1.8477,-1.864,-1.8477,-1.8531,-1.8762,-1.8762,-1.8762,-1.8762,-1.8762,-1.8762,-1.8762,-1.8762,-1.8762,-1.8742,-1.862,-1.8464,-1.8301,-1.8145,-1.7989,-1.788,0.0,-0.8892,-1.6429,-1.6982,-1.7573,0.0,0.0,0.0,0.0,0.0,0.0,0.0,0.0,0.0,0.0,0.0,0.0,0.0,0.0,0.0,0.0,0.0,0.0,0.0,0.0,0.0,0.0,0.0,0.0,-0.4832,-1.4094,-1.5539,-1.6207,-1.632,-1.6766,-1.0604,0.0,0.0,0.0,0.0,0.0,0.0,0.0,0.0,0.0,0.0,0.0,0.0,0.0,0.0,0.0,0.0,0.0,0.0,0.0,0.0,0.0,0.0,0.0,0.0,0.0,0.0,0.0,0.0,0.0,-0.8355,-1.6989,-1.93,-1.058,-0.2152,-0.0245,0.0,0.0,0.0,0.0,0.0,0.0,0.0,0.0,0.0,0.0,0.0,0.0,0.0,0.0,0.0,0.0,0.0,0.0,0.0,-1.862,-1.8762,-1.8762,-1.8742,-1.8728,-1.8599,-1.8599,-1.8728,-1.8599,-1.862,-1.8762,-1.8762,-1.8762,-1.8762,-1.8762,-1.8762,-1.8762,-1.8762,-1.8762,-1.8728,-1.8443,-1.8335,-1.8321,-1.8158,-1.8023,-1.7935,0.0,0.0,0.0,0.0,0.0,-1.3872,-0.1773,0.0,0.0,0.0,0.0,0.0,0.0,0.0,0.0,0.0,0.0,0.0,0.0,0.0,0.0,0.0,0.0,0.0,0.0,0.0,0.0,0.0,0.0,-0.106,-0.3126,-1.2415,-1.6756,-1.6804,-1.6942,-1.0616,0.0,0.0,0.0,0.0,0.0,0.0,0.0,0.0,0.0,0.0,0.0,0.0,0.0,0.0,0.0,0.0,0.0,0.0,0.0,0.0,0.0,0.0,0.0,0.0,0.0,0.0,0.0,0.0,0.0,-0.1673,-0.6434,-1.7452,-1.7927,-1.2826,-0.1953,0.0,0.0,0.0,0.0,0.0,0.0,0.0,0.0,0.0,0.0,0.0,0.0,0.0,0.0,0.0,0.0,0.0,0.0,0.0,-1.8728,0.0,-1.8762,-1.8708,-1.8565,-1.8552,-1.8552,-1.8565,-1.8552,-1.862,-1.8762,-1.8762,-1.8762,-1.8762,-1.8762,-1.8762,-1.8762,-1.8762,-1.8762,-1.8728,-1.8443,-1.8389,-1.8464,-1.8199,-1.8158,-1.8247,0.0,0.0,0.0,0.0,0.0,0.0,0.0,0.0,0.0,0.0,0.0,0.0,0.0,0.0,0.0,0.0,0.0,0.0,0.0,0.0,0.0,0.0,0.0,0.0,0.0,0.0,0.0,0.0,0.0,-0.3018,-0.8857,-1.403,-1.6727,-1.6788,-1.081,-0.5143,0.0,0.0,0.0,0.0,0.0,0.0,0.0,0.0,0.0,0.0,0.0,0.0,0.0,0.0,0.0,0.0,0.0,0.0,0.0,0.0,0.0,0.0,0.0,0.0,0.0,0.0,0.0,0.0,0.0,0.0,-0.3552,-1.6608,-1.9325,-1.5205,-0.2422,0.0,0.0,0.0,0.0,0.0,0.0,0.0,0.0,0.0,0.0,0.0,0.0,0.0,0.0,0.0,0.0,0.0,0.0,0.0,-1.8552,0.0,0.0,0.0,-1.8654,-1.8565,-1.8565,-1.8654,-1.8565,-1.862,-1.8762,-1.8762,-1.8762,-1.8762,-1.8762,-1.8762,-1.8762,-1.8762,-1.8762,-1.8728,-1.8443,-1.8409,-1.8511,-1.8287,-1.8301,-1.8423,0.0,-0.7673,0.0,0.0,-1.5892,0.0,-0.1344,0.0,0.0,0.0,0.0,0.0,0.0,0.0,0.0,0.0,0.0,0.0,0.0,0.0,0.0,0.0,0.0,0.0,0.0,0.0,0.0,0.0,0.0,-0.57,-1.6717,-1.6367,-1.6591,-1.6743,-0.5067,0.0,0.0,0.0,0.0,0.0,0.0,0.0,0.0,0.0,0.0,0.0,0.0,0.0,0.0,0.0,0.0,0.0,0.0,0.0,0.0,0.0,0.0,0.0,0.0,0.0,0.0,0.0,0.0,0.0,0.0,0.0,-0.2825,-1.2874,-1.4834,-1.172,-0.1918,0.0,0.0,0.0,0.0,0.0,0.0,0.0,0.0,0.0,0.0,0.0,0.0,0.0,0.0,0.0,0.0,0.0,-1.8654,0.0,0.0,0.0,0.0,-1.8708,-1.8708,-1.862,-1.862,-1.8708,-1.862,-1.864,-1.8762,-1.8762,-1.8762,-1.8762,-1.8762,-1.8762,-1.8762,-1.8762,-1.8762,-1.8728,-1.8443,-1.8423,-1.8565,-1.8389,-1.8423,-1.8586,0.0,0.0,0.0,0.0,0.0,-0.1346,-0.0227,0.0,0.0,0.0,0.0,0.0,0.0,0.0,0.0,0.0,0.0,0.0,0.0,0.0,0.0,0.0,0.0,0.0,0.0,0.0,0.0,0.0,0.0,-0.5552,-1.6207,-1.6156,-1.6733,-1.7286,-0.5366,0.0,0.0,0.0,0.0,0.0,0.0,0.0,0.0,0.0,0.0,0.0,0.0,0.0,0.0,0.0,0.0,0.0,0.0,0.0,0.0,0.0,0.0,0.0,0.0,0.0,0.0,0.0,0.0,0.0,0.0,0.0,-0.0236,-0.1415,-0.166,-0.1428,-0.0236,0.0,0.0,0.0,0.0,0.0,0.0,0.0,0.0,0.0,0.0,0.0,0.0,0.0,0.0,0.0,-1.7947,0.0,0.0,0.0,0.0,-1.8782,0.0,-1.8552,-1.8552,-1.8674,-1.8674,-1.8552,-1.8674,-1.8742,-1.8762,-1.8762,-1.8762,-1.8762,-1.8762,-1.8762,-1.8762,-1.8762,-1.8762,-1.8728,-1.8443,-1.8498,-1.8708,-1.8423,-1.8498,-1.8742,0.0,0.0,0.0,0.0,0.0,0.0,0.0,0.0,0.0,0.0,0.0,0.0,0.0,0.0,0.0,0.0,0.0,0.0,0.0,0.0,0.0,0.0,0.0,0.0,0.0,0.0,0.0,0.0,0.0,-0.6087,-1.765,-1.7684,-1.7826,-1.738,-0.5461,0.0,0.0,0.0,0.0,0.0,0.0,0.0,0.0,0.0,0.0,0.0,0.0,0.0,0.0,0.0,0.0,0.0,0.0,0.0,0.0,0.0,0.0,0.0,0.0,0.0,0.0,0.0,0.0,0.0,0.0,0.0,0.0,0.0,0.0,0.0,0.0,0.0,0.0,0.0,0.0,0.0,0.0,0.0,0.0,0.0,0.0,0.0,0.0,0.0,0.0,0.0,0.0,0.0,0.0,0.0,0.0,-1.862,0.0,-1.8586,-1.8409,-1.8464,-1.8511,-1.8531,-1.8511,-1.8586,-1.8762,-1.8762,-1.8762,-1.8762,-1.8762,-1.8762,-1.8762,-1.8762,-1.8762,-1.8728,-1.8443,-1.8498,-1.8728,-1.8423,-1.8511,-1.8762,0.0,0.0,0.0,0.0,0.0,0.0,0.0,0.0,0.0,0.0,0.0,0.0,0.0,0.0,0.0,0.0,0.0,0.0,0.0,0.0,0.0,0.0,0.0,0.0,0.0,0.0,0.0,0.0,0.0,-0.4572,-1.3257,-1.7137,-1.8587,-1.7569,-0.5497,0.0,0.0,0.0,0.0,0.0,0.0,0.0,0.0,0.0,0.0,0.0,0.0,0.0,0.0,0.0,0.0,0.0,0.0,0.0,0.0,0.0,0.0,0.0,0.0,0.0,0.0,0.0,0.0,0.0,0.0,0.0,0.0,0.0,0.0,0.0,0.0,0.0,0.0,0.0,0.0,0.0,0.0,0.0,0.0,0.0,0.0,-0.1654,-0.6088,0.0,0.0,0.0,0.0,0.0,0.0,0.0,0.0,0.0,0.0,0.0,-1.8321,-1.8355,-1.8409,-1.8464,-1.8409,-1.8511,-1.8762,-1.8762,-1.8762,-1.8762,-1.8762,-1.8762,-1.8762,-1.8762,-1.8762,-1.8742,-1.8477,-1.8531,-1.8728,-1.8477,-1.8552,-1.8762,0.0,0.0,0.0,0.0,0.0,0.0,0.0,0.0,0.0,0.0,0.0,0.0,0.0,0.0,0.0,0.0,0.0,0.0,0.0,0.0,0.0,0.0,0.0,0.0,0.0,0.0,0.0,0.0,0.0,-0.0,-0.0458,-1.2951,-1.8909,-1.8301,-0.5701,0.0,0.0,0.0,0.0,0.0,0.0,0.0,0.0,0.0,0.0,0.0,0.0,0.0,0.0,0.0,0.0,0.0,0.0,0.0,0.0,0.0,0.0,0.0,0.0,0.0,0.0,0.0,0.0,0.0,0.0,0.0,0.0,0.0,0.0,0.0,0.0,0.0,0.0,0.0,0.0,0.0,0.0,0.0,0.0,0.0,0.0,-0.0,-0.0,0.0,0.0,0.0,0.0,0.0,0.0,0.0,0.0,-1.8742,-1.862,0.0,-1.8321,-1.8464,-1.8464,-1.8321,-1.8464,-1.8599,-1.8762,-1.8762,-1.8762,-1.8762,-1.8762,-1.8762,-1.8762,-1.8762,-1.8762,-1.8742,-1.8586,-1.862,-1.8742,-1.8586,-1.862,-1.8762,0.0,0.0,0.0,0.0,0.0,0.0,0.0,0.0,0.0,0.0,0.0,0.0,0.0,0.0,0.0,0.0,0.0,0.0,0.0,0.0,0.0,0.0,0.0,0.0,0.0,0.0,0.0,0.0,0.0,0.0,-0.0,-0.4153,-1.0602,-1.8606,-1.4622,-0.8072,0.0,0.0,0.0,0.0,0.0,0.0,0.0,0.0,0.0,0.0,0.0,0.0,0.0,0.0,0.0,0.0,0.0,0.0,0.0,0.0,0.0,0.0,0.0,0.0,0.0,0.0,0.0,0.0,0.0,0.0,0.0,0.0,0.0,0.0,0.0,0.0,0.0,0.0,0.0,0.0,0.0,0.0,0.0,0.0,0.0,0.0,0.0,-0.1625,0.0,0.0,0.0,0.0,0.0,0.0,0.0,0.0,-1.8443,0.0,-1.8002,-1.8267,-1.8375,-1.8321,-1.8375,-1.8409,-1.8464,-1.8565,-1.8599,-1.8599,-1.8708,-1.8762,-1.8762,-1.8762,-1.8762,-1.8742,-1.8586,-1.862,-1.8742,-1.8586,-1.864,-1.8762,0.0,0.0,0.0,0.0,0.0,0.0,0.0,0.0,0.0,0.0,0.0,0.0,0.0,0.0,0.0,0.0,0.0,0.0,0.0,0.0,0.0,0.0,0.0,0.0,0.0,0.0,0.0,0.0,0.0,0.0,0.0,0.0,-0.4161,-1.1845,-1.6774,-1.1789,0.0,0.0,0.0,0.0,0.0,0.0,0.0,0.0,0.0,0.0,0.0,0.0,0.0,0.0,0.0,0.0,0.0,0.0,0.0,0.0,0.0,0.0,0.0,0.0,0.0,0.0,0.0,0.0,0.0,0.0,0.0,0.0,0.0,0.0,0.0,0.0,0.0,0.0,0.0,0.0,0.0,0.0,0.0,0.0,0.0,0.0,0.0,0.0,-0.2564,0.0,0.0,0.0,0.0,0.0,0.0,-1.8267,-1.8389,-1.8287,-1.7948,-1.8199,-1.8321,-1.8321,-1.8375,-1.8409,-1.8409,-1.8498,-1.8565,-1.862,-1.8728,-1.8762,-1.8762,-1.8762,-1.8762,-1.8742,-1.8654,-1.8674,-1.8742,-1.8654,-1.8674,-1.8762,0.0,0.0,0.0,0.0,0.0,0.0,0.0,0.0,0.0,0.0,0.0,0.0,0.0,0.0,0.0,0.0,0.0,0.0,0.0,0.0,0.0,0.0,0.0,0.0,0.0,0.0,0.0,0.0,0.0,0.0,0.0,0.0,0.0,-0.046,-1.2209,-1.1004,0.0,0.0,0.0,0.0,0.0,0.0,0.0,0.0,0.0,0.0,0.0,0.0,0.0,0.0,0.0,0.0,0.0,0.0,0.0,0.0,0.0,0.0,0.0,0.0,0.0,0.0,0.0,0.0,0.0,0.0,0.0,0.0,0.0,0.0,0.0,0.0,0.0,0.0,0.0,0.0,0.0,0.0,0.0,0.0,0.0,0.0,0.0,0.0,-0.2587,0.0,0.0,0.0,0.0,0.0,-1.8213,-1.8511,-1.8375,-1.8233,-1.8077,-1.8233,-1.8321,-1.8335,-1.8464,-1.8531,-1.8511,-1.8531,-1.8599,-1.8742,-1.8762,-1.8762,-1.8762,-1.8762,-1.8762,-1.8762,-1.8762,-1.8762,-1.8762,-1.8762,-1.8762,-1.8762,0.0,0.0,0.0,0.0,0.0,0.0,0.0,0.0,0.0,0.0,0.0,0.0,0.0,0.0,0.0,0.0,0.0,0.0,0.0,0.0,0.0,0.0,0.0,0.0,0.0,0.0,0.0,0.0,0.0,0.0,0.0,0.0,0.0,-0.0228,-0.319,-0.2731,0.0,0.0,0.0,0.0,0.0,0.0,0.0,0.0,0.0,0.0,0.0,0.0,0.0,0.0,0.0,0.0,0.0,0.0,0.0,0.0,0.0,0.0,0.0,0.0,0.0,0.0,0.0,0.0,0.0,0.0,0.0,0.0,0.0,0.0,0.0,0.0,0.0,0.0,0.0,0.0,0.0,0.0,0.0,0.0,0.0,0.0,0.0,0.0,-0.258,-0.8834,0.0,-1.8674,-1.8443,-1.8213,-1.8179,-1.8375,-1.8267,-1.8111,-1.7914,-1.8213,-1.8403,-1.8477,-1.8511,-1.8477,-1.8375,-1.8477,-1.8552,-1.8586,-1.8708,-1.8762,-1.8762,-1.8762,-1.8762,-1.8762,-1.8762,-1.8762,-1.8762,-1.8762,-1.8762,-1.8762,0.0,0.0,0.0,0.0,0.0,0.0,0.0,0.0,0.0,0.0,0.0,0.0,0.0,0.0,0.0,0.0,0.0,0.0,0.0,0.0,0.0,0.0,0.0,0.0,0.0,0.0,0.0,0.0,0.0,0.0,0.0,0.0,0.0,0.0,0.0,0.0,0.0,0.0,0.0,0.0,0.0,0.0,0.0,0.0,0.0,0.0,0.0,0.0,0.0,0.0,0.0,0.0,0.0,0.0,0.0,0.0,0.0,0.0,0.0,0.0,0.0,0.0,0.0,0.0,0.0,0.0,0.0,0.0,0.0,0.0,0.0,0.0,0.0,0.0,0.0,0.0,0.0,0.0,0.0,0.0,0.0,0.0,0.0,0.0,-0.1409,-0.4891,-1.3561,-1.8674,-1.8457,-1.8287,-1.8199,-1.8213,-1.8111,-1.8023,-1.7968,-1.828,-1.8443,-1.8443,-1.8498,-1.8498,-1.8423,-1.8498,-1.8565,-1.864,-1.8728,-1.8762,-1.8762,-1.8762,-1.8762,-1.8762,-1.8762,-1.8762,-1.8762,-1.8762,-1.8762,-1.8762,0.0,0.0,0.0,0.0,0.0,0.0,0.0,0.0,0.0,0.0,0.0,0.0,0.0,0.0,0.0,0.0,0.0,0.0,0.0,0.0,0.0,0.0,0.0,0.0,0.0,0.0,0.0,0.0,0.0,0.0,0.0,0.0,0.0,0.0,0.0,0.0,0.0,0.0,0.0,0.0,0.0,0.0,0.0,0.0,0.0,0.0,0.0,0.0,0.0,0.0,0.0,0.0,0.0,0.0,0.0,0.0,0.0,0.0,0.0,0.0,0.0,0.0,0.0,0.0,0.0,0.0,0.0,0.0,0.0,0.0,0.0,0.0,0.0,0.0,0.0,0.0,0.0,0.0,0.0,0.0,0.0,0.0,0.0,0.0,0.0,0.0,-1.0794,-1.7588,-1.8349,-1.8389,-1.8213,-1.8057,-1.7982,-1.8023,-1.8165,-1.8389,-1.8477,-1.8389,-1.8498,-1.8552,-1.8565,-1.8565,-1.864,-1.8762,-1.8762,-1.8762,-1.8762,-1.8762,-1.8762,-1.8762,-1.8762,-1.8762,-1.8762,-1.8762,-1.8762,-1.8762,0.0,0.0,0.0,0.0,0.0,0.0,0.0,0.0,0.0,0.0,0.0,0.0,0.0,0.0,0.0,0.0,0.0,0.0,0.0,0.0,0.0,0.0,0.0,0.0,0.0,0.0,0.0,0.0,0.0,0.0,0.0,0.0,0.0,0.0,0.0,0.0,0.0,0.0,0.0,0.0,0.0,0.0,0.0,0.0,0.0,0.0,0.0,0.0,0.0,0.0,0.0,0.0,0.0,0.0,0.0,0.0,0.0,0.0,0.0,0.0,0.0,0.0,0.0,0.0,0.0,0.0,0.0,0.0,0.0,0.0,0.0,0.0,0.0,0.0,0.0,0.0,0.0,0.0,0.0,0.0,0.0,0.0,0.0,0.0,0.0,0.0,-0.6501,-1.2733,-1.8195,-1.8233,-1.8057,-1.7901,-1.7968,-1.8145,-1.8699,-1.8195,-1.8295,-1.8742,-1.8599,-1.8599,-1.8728,-1.8728,-1.8742,-1.8762,-1.8762,-1.8762,-1.8762,-1.8762,-1.8762,-1.8762,-1.8762,-1.8762,-1.8762,-1.8762,-1.8762,-1.8762,0.0,0.0,0.0,0.0,0.0,0.0,0.0,0.0,0.0,0.0,0.0,0.0,0.0,0.0,0.0,0.0,0.0,0.0,0.0,0.0,0.0,0.0,0.0,0.0,0.0,0.0,0.0,0.0,0.0,0.0,0.0,0.0,0.0,0.0,0.0,0.0,0.0,0.0,0.0,0.0,0.0,0.0,0.0,0.0,0.0,0.0,0.0,0.0,0.0,0.0,0.0,0.0,0.0,0.0,0.0,0.0,0.0,0.0,0.0,0.0,0.0,0.0,0.0,0.0,0.0,0.0,0.0,0.0,0.0,0.0,0.0,0.0,0.0,0.0,0.0,0.0,0.0,0.0,0.0,0.0,0.0,0.0,0.0,0.0,0.0,0.0,-0.8615,-1.5088,-1.8007,-1.8247,-1.8057,-1.7901,-1.8104,-1.5022,-0.8675,-1.2868,-1.5975,-1.847,-1.8579,-1.862,-1.8762,-1.8762,-1.8762,-1.8762,-1.8762,-1.8762,-1.8762,-1.8762,-1.8762,-1.8762,-1.8762,-1.8762,-1.8762,-1.8762,-1.8762,-1.8762,0.0,0.0,0.0,0.0,0.0,0.0,0.0,0.0,0.0,0.0,0.0,0.0,0.0,0.0,0.0,0.0,0.0,0.0,0.0,0.0,0.0,0.0,0.0,0.0,0.0,0.0,0.0,0.0,0.0,0.0,0.0,0.0,0.0,0.0,0.0,0.0,0.0,0.0,0.0,0.0,0.0,0.0,0.0,0.0,0.0,0.0,0.0,0.0,0.0,0.0,0.0,0.0,0.0,0.0,0.0,0.0,0.0,0.0,0.0,0.0,0.0,0.0,0.0,0.0,0.0,0.0,0.0,0.0,0.0,0.0,0.0,0.0,0.0,0.0,0.0,0.0,0.0,0.0,0.0,0.0,0.0,0.0,0.0,0.0,0.0,0.0,-0.863,-1.4632,-1.641,-1.6639,-1.7137,-1.7928,-1.6596,-1.0939,-0.0,-0.7567,-1.3889,-1.8198,-1.8349,-1.862,-1.8762,-1.8762,-1.8762,-1.8762,-1.8762,-1.8762,-1.8762,-1.8762,-1.8762,-1.8762,-1.8762,-1.8762,-1.8762,-1.8762,-1.8762,-1.8762,0.0,0.0,0.0,0.0,0.0,0.0,0.0,0.0,0.0,0.0,0.0,0.0,0.0,0.0,0.0,0.0,0.0,0.0,0.0,0.0,0.0,0.0,0.0,0.0,0.0,0.0,0.0,0.0,0.0,0.0,0.0,0.0,0.0,0.0,0.0,0.0,0.0,0.0,0.0,0.0,0.0,0.0,0.0,0.0,0.0,0.0,0.0,0.0,0.0,0.0,0.0,0.0,0.0,0.0,0.0,0.0,0.0,0.0,0.0,0.0,0.0,0.0,0.0,0.0,0.0,0.0,0.0,0.0,0.0,0.0,0.0,0.0,0.0,0.0,0.0,0.0,0.0,0.0,0.0,0.0,0.0,0.0,0.0,0.0,0.0,0.0,-0.0923,-0.4594,-1.1975,-1.2419,-1.4081,-1.7706,-1.2396,-0.6589,-0.0,-0.641,-1.2488,-1.8397,-1.8403,-1.862,-1.8762,-1.8762,-1.8762,-1.8762,-1.8762,-1.8762,-1.8762,-1.8762,-1.8762,-1.8762,-1.8762,-1.8762,-1.8762,-1.8762,-1.8762,-1.8762,0.0,0.0,0.0,0.0,0.0,0.0,0.0,0.0,0.0,0.0,0.0,0.0,0.0,0.0,0.0,0.0,0.0,0.0,0.0,0.0,0.0,0.0,0.0,0.0,0.0,0.0,0.0,0.0,0.0,0.0,0.0,0.0,0.0,0.0,0.0,0.0,0.0,0.0,0.0,0.0,0.0,0.0,0.0,0.0,0.0,0.0,0.0,0.0,0.0,0.0,0.0,0.0,0.0,0.0,0.0,0.0,0.0,0.0,0.0,0.0,0.0,0.0,0.0,0.0,0.0,0.0,0.0,0.0,0.0,0.0,0.0,0.0,0.0,0.0,0.0,0.0,0.0,0.0,0.0,0.0,0.0,0.0,0.0,0.0,0.0,0.0,0.0,-0.1386,-0.4372,-1.1533,-1.6367,-1.7928,-1.5741,-0.973,-0.0,-0.6181,-1.2488,-1.8657,-1.8654,-1.862,-1.8762,-1.8762,-1.8762,-1.8762,-1.8762,-1.8762,-1.8762,-1.8762,-1.8762,-1.8762,-1.8762,-1.8762,-1.8762,-1.8762,-1.8762,-1.8762,0.0,0.0,0.0,0.0,0.0,0.0,0.0,0.0,0.0,0.0,0.0,0.0,0.0,0.0,0.0,0.0,0.0,0.0,0.0,0.0,0.0,0.0,0.0,0.0,0.0,0.0,0.0,0.0,0.0,0.0,0.0,0.0,0.0,0.0,0.0,0.0,0.0,0.0,0.0,0.0,0.0,0.0,0.0,0.0,0.0,0.0,0.0,0.0,0.0,0.0,0.0,0.0,0.0,0.0,0.0,0.0,0.0,0.0,0.0,0.0,0.0,0.0,0.0,0.0,0.0,0.0,0.0,0.0,0.0,0.0,0.0,0.0,0.0,0.0,0.0,0.0,0.0,0.0,0.0,0.0,0.0,0.0,0.0,0.0,0.0,0.0,0.0,0.0,0.0,-0.9689,-1.5928,-1.7928,-1.7968,-1.3088,-0.2979,-0.7099,-1.2488,-1.8898,-1.8708,-1.8654,-1.8762,-1.8762,-1.8762,-1.8762,-1.8762,-1.8762,-1.8762,-1.8762,-1.8762,-1.8762,-1.8762,-1.8762,-1.8762,-1.8762,-1.8762,-1.8762,0.0,0.0,0.0,0.0,0.0,0.0,0.0,0.0,0.0,0.0,0.0,0.0,0.0,0.0,0.0,0.0,0.0,0.0,0.0,0.0,0.0,0.0,0.0,0.0,0.0,0.0,0.0,0.0,0.0,0.0,0.0,0.0,0.0,0.0,0.0,0.0,0.0,0.0,0.0,0.0,0.0,0.0,0.0,0.0,0.0,0.0,0.0,0.0,0.0,0.0,0.0,0.0,0.0,0.0,0.0,0.0,0.0,0.0,0.0,0.0,0.0,0.0,0.0,0.0,0.0,0.0,0.0,0.0,0.0,0.0,0.0,0.0,0.0,0.0,0.0,0.0,0.0,0.0,0.0,0.0,0.0,0.0,0.0,0.0,0.0,0.0,0.0,0.0,0.0,-0.5586,-1.1621,-1.7706,-1.7935,-1.5117,-0.893,-0.938,-1.2718,-1.8898,-1.8816,-1.8762,-1.8762,-1.8762,-1.8762,-1.8762,-1.8762,-1.8762,-1.8762,-1.8762,-1.8762,-1.8762,-1.8762,-1.8762,-1.8762,-1.8762,-1.8762,-1.8762,0.0,0.0,0.0,0.0,0.0,0.0,0.0,0.0,0.0,0.0,0.0,0.0,0.0,0.0,0.0,0.0,0.0,0.0,0.0,0.0,0.0,0.0,0.0,0.0,0.0,0.0,0.0,0.0,0.0,0.0,0.0,0.0,0.0,0.0,0.0,0.0,0.0,0.0,0.0,0.0,0.0,0.0,0.0,0.0,0.0,0.0,0.0,0.0,0.0,0.0,0.0,0.0,0.0,0.0,0.0,0.0,0.0,0.0,0.0,0.0,0.0,0.0,0.0,0.0,0.0,0.0,0.0,0.0,0.0,0.0,0.0,0.0,0.0,0.0,0.0,0.0,0.0,0.0,0.0,0.0,0.0,0.0,0.0,0.0,0.0,0.0,0.0,0.0,0.0,-0.5607,-1.1656,-1.7914,-1.8002,-1.6989,-1.5297,-1.5458,-1.6707,-1.8898,-1.883,-1.8796,-1.8762,-1.8762,-1.8762,-1.8762,-1.8762,-1.8762,-1.8762,-1.8762,-1.8762,-1.8762,-1.8762,-1.8762,-1.8762,-1.8762,-1.8762,-1.8762,0.0,0.0,0.0,0.0,0.0,0.0,0.0,0.0,0.0,0.0,0.0,0.0,0.0,0.0,0.0,0.0,0.0,0.0,0.0,0.0,0.0,0.0,0.0,0.0,0.0,0.0,0.0,0.0,0.0,0.0,0.0,0.0,0.0,0.0,0.0,0.0,0.0,0.0,0.0,0.0,0.0,0.0,0.0,0.0,0.0,0.0,0.0,0.0,0.0,0.0,0.0,0.0,0.0,0.0,0.0,0.0,0.0,0.0,0.0,0.0,0.0,0.0,0.0,0.0,0.0,0.0,0.0,0.0,0.0,0.0,0.0,0.0,0.0,0.0,0.0,0.0,0.0,0.0,0.0,0.0,0.0,0.0,0.0,0.0,0.0,0.0,0.0,0.0,0.0,-0.5607,-1.1678,-1.8001,-1.8023,-1.7893,-1.7876,-1.5676,-1.4825,-1.5064,-1.7651,-1.8816,-1.8762,-1.8762,-1.8762,-1.8762,-1.8762,-1.8762,-1.8762,-1.8762,-1.8762,-1.8762,-1.8762,-1.8762,-1.8762,-1.8762,-1.8762,-1.8762,0.0,0.0,0.0,0.0,0.0,0.0,0.0,0.0,0.0,0.0,0.0,0.0,0.0,0.0,0.0,0.0,0.0,0.0,0.0,0.0,0.0,0.0,0.0,0.0,0.0,0.0,0.0,0.0,0.0,0.0,0.0,0.0,0.0,0.0,0.0,0.0,0.0,0.0,0.0,0.0,0.0,0.0,0.0,0.0,0.0,0.0,0.0,0.0,0.0,0.0,0.0,0.0,0.0,0.0,0.0,0.0,0.0,0.0,0.0,0.0,0.0,0.0,0.0,0.0,0.0,0.0,0.0,0.0,0.0,0.0,0.0,0.0,0.0,0.0,0.0,0.0,0.0,0.0,0.0,0.0,0.0,0.0,0.0,0.0,0.0,0.0,0.0,0.0,0.0,-0.5143,-1.1235,-1.8021,-1.8002,-1.7847,-1.8007,-1.1931,-0.8766,-0.8665,-1.5498,-1.8816,-1.8762,-1.8762,-1.8762,-1.8762,-1.8762,-1.8762,-1.8762,-1.8762,-1.8762,-1.8762,-1.8762,-1.8762,-1.8762,-1.8762,-1.8762,-1.8762,0.0,0.0,0.0,0.0,0.0,0.0,0.0,0.0,0.0,0.0,0.0,0.0,0.0,0.0,0.0,0.0,0.0,0.0,0.0,0.0,0.0,0.0,0.0,0.0,0.0,0.0,0.0,0.0,0.0,0.0,0.0,0.0,0.0,0.0,0.0,0.0,0.0,0.0,0.0,0.0,0.0,0.0,0.0,0.0,0.0,0.0,0.0,0.0,0.0,0.0,0.0,0.0,0.0,0.0,0.0,0.0,0.0,0.0,0.0,0.0,0.0,0.0,0.0,0.0,0.0,0.0,0.0,0.0,0.0,0.0,0.0,0.0,0.0,0.0,0.0,0.0,0.0,0.0,0.0,0.0,0.0,0.0,0.0,0.0,0.0,0.0,0.0,0.0,0.0,-0.1119,-0.6977,-1.7921,-1.8097,-1.8145,-1.8145,-1.1966,-0.6671,-0.2091,-1.3363,-1.8864,-1.8816,-1.8782,-1.8762,-1.8762,-1.8762,-1.8762,-1.8762,-1.8762,-1.8762,-1.8762,-1.8762,-1.8762,-1.8762,-1.8762,-1.8762,-1.8762,0.0,0.0,0.0,0.0,0.0,0.0,0.0,0.0,0.0,0.0,0.0,0.0,0.0,0.0,0.0,0.0,0.0,0.0,0.0,0.0,0.0,0.0,0.0,0.0,0.0,0.0,0.0,0.0,0.0,0.0,0.0,0.0,0.0,0.0,0.0,0.0,0.0,0.0,0.0,0.0,0.0,0.0,0.0,0.0,0.0,0.0,0.0,0.0,0.0,0.0,0.0,0.0,0.0,0.0,0.0,0.0,0.0,0.0,0.0,0.0,0.0,0.0,0.0,0.0,0.0,0.0,0.0,0.0,0.0,0.0,0.0,0.0,0.0,0.0,0.0,0.0,0.0,0.0,0.0,0.0,0.0,0.0,0.0,0.0,0.0,0.0,0.0,0.0,0.0,0.0,-0.4272,-1.3463,-1.6759,-1.839,-1.8195,-1.1966,-0.5984,-0.0231,-0.9804,-1.6005,-1.883,-1.8782,-1.8762,-1.8762,-1.8762,-1.8762,-1.8762,-1.8762,-1.8762,-1.8762,-1.8762,-1.8762,-1.8762,-1.8762,-1.8708,-1.8654,0.0,0.0,0.0,0.0,0.0,0.0,0.0,0.0,0.0,0.0,0.0,0.0,0.0,0.0,0.0,0.0,0.0,0.0,0.0,0.0,0.0,0.0,0.0,0.0,0.0,0.0,0.0,0.0,0.0,0.0,0.0,0.0,0.0,0.0,0.0,0.0,0.0,0.0,0.0,0.0,0.0,0.0,0.0,0.0,0.0,0.0,0.0,0.0,0.0,0.0,0.0,0.0,0.0,0.0,0.0,0.0,0.0,0.0,0.0,0.0,0.0,0.0,0.0,0.0,0.0,0.0,0.0,0.0,0.0,0.0,0.0,0.0,0.0,0.0,0.0,0.0,0.0,0.0,0.0,0.0,0.0,0.0,0.0,0.0,0.0,0.0,0.0,0.0,0.0,0.0,-0.2692,-0.8817,-1.5162,-1.8376,-1.8165,-1.3077,-0.6903,-0.0,-0.6276,-1.2663,-1.885,-1.8782,-1.8762,-1.8762,-1.8762,-1.8762,-1.8762,-1.8762,-1.8762,-1.8762,-1.8762,-1.8762,-1.8762,-1.8762,-1.8654,-1.8531,0.0,0.0,0.0,0.0,0.0,0.0,0.0,0.0,0.0,0.0,0.0,0.0,0.0,0.0,0.0,0.0,0.0,0.0,0.0,0.0,0.0,0.0,0.0,0.0,0.0,0.0,0.0,0.0,0.0,0.0,0.0,0.0,0.0,0.0,0.0,0.0,0.0,0.0,0.0,0.0,0.0,0.0,0.0,0.0,0.0,0.0,0.0,0.0,0.0,0.0,0.0,0.0,0.0,0.0,0.0,0.0,0.0,0.0,0.0,0.0,0.0,0.0,0.0,0.0,0.0,0.0,0.0,0.0,0.0,0.0,0.0,0.0,0.0,0.0,0.0,0.0,0.0,0.0,0.0,0.0,0.0,0.0,0.0,0.0,0.0,0.0,0.0,0.0,0.0,0.0,-0.2697,-0.8817,-1.4876,-1.8077,-1.8397,-1.7317,-1.1182,-0.0,-0.6484,-1.2631,-1.8884,-1.8796,-1.8762,-1.8762,-1.8762,-1.8762,-1.8762,-1.8762,-1.8762,-1.8762,-1.8762,-1.8762,-1.8762,-1.8762,-1.8654,-1.8552,0.0,0.0,0.0,0.0,0.0,0.0,0.0,0.0,0.0,0.0,0.0,0.0,0.0,0.0,0.0,0.0,0.0,0.0,0.0,0.0,0.0,0.0,0.0,0.0,0.0,0.0,0.0,0.0,0.0,0.0,0.0,0.0,0.0,0.0,0.0,0.0,0.0,0.0,0.0,0.0,0.0,0.0,0.0,0.0,0.0,0.0,0.0,0.0,0.0,0.0,0.0,0.0,0.0,0.0,0.0,0.0,0.0,0.0,0.0,0.0,0.0,0.0,0.0,0.0,0.0,0.0,0.0,0.0,0.0,0.0,0.0,0.0,0.0,0.0,0.0,0.0,0.0,0.0,0.0,0.0,0.0,0.0,0.0,0.0,0.0,0.0,0.0,0.0,0.0,0.0,-0.2692,-0.876,-1.468,-1.8091,-1.8232,-1.8226,-1.3746,-0.5038,-0.4388,-0.9325,-1.8898,-1.883,-1.8782,-1.8762,-1.8762,-1.8762,-1.8762,-1.8762,-1.8762,-1.8762,-1.8762,-1.8762,-1.8742,-1.8674,-1.8586,-1.8545]}]]